<?xml version="1.0" encoding="UTF-8" standalone="no" ?>
<gpx xmlns="http://www.topografix.com/GPX/1/1" xmlns:xsi="http://www.w3.org/2001/XMLSchema-instance" xsi:schemaLocation="http://www.topografix.com/GPX/1/1 http://www.topografix.com/GPX/1/1/gpx.xsd" version="1.1" creator="VisuGPX - https://www.visugpx.com">
  <metadata>
    <name>GHOREPANI ==&gt; TADAPANI</name>
    <desc><![CDATA[Trek entre DHAULAGIRI et ANNAPURNA]]></desc>
  </metadata>
  <trk>
    <name><![CDATA[GHOREPANI TADAPANI]]></name>
    <trkseg>
      <trkpt lat="28.40303" lon="83.69994">
        <ele>2803.34</ele>
        <time>2013-11-01T00:56:50Z</time>
      </trkpt>
      <trkpt lat="28.40303" lon="83.69994">
        <ele>2808.15</ele>
        <time>2013-11-01T00:56:51Z</time>
      </trkpt>
      <trkpt lat="28.40303" lon="83.69995">
        <ele>2804.3</ele>
        <time>2013-11-01T00:56:52Z</time>
      </trkpt>
      <trkpt lat="28.40301" lon="83.70001">
        <ele>2803.82</ele>
        <time>2013-11-01T00:57:05Z</time>
      </trkpt>
      <trkpt lat="28.40294" lon="83.70001">
        <ele>2807.67</ele>
        <time>2013-11-01T00:57:15Z</time>
      </trkpt>
      <trkpt lat="28.40294" lon="83.70001">
        <ele>2809.59</ele>
        <time>2013-11-01T00:57:16Z</time>
      </trkpt>
      <trkpt lat="28.40291" lon="83.7">
        <ele>2813.92</ele>
        <time>2013-11-01T00:57:19Z</time>
      </trkpt>
      <trkpt lat="28.4029" lon="83.69999">
        <ele>2817.28</ele>
        <time>2013-11-01T00:57:21Z</time>
      </trkpt>
      <trkpt lat="28.40289" lon="83.69999">
        <ele>2820.65</ele>
        <time>2013-11-01T00:57:23Z</time>
      </trkpt>
      <trkpt lat="28.40286" lon="83.69997">
        <ele>2824.49</ele>
        <time>2013-11-01T00:57:26Z</time>
      </trkpt>
      <trkpt lat="28.40284" lon="83.69996">
        <ele>2828.82</ele>
        <time>2013-11-01T00:57:29Z</time>
      </trkpt>
      <trkpt lat="28.40283" lon="83.69995">
        <ele>2831.7</ele>
        <time>2013-11-01T00:57:32Z</time>
      </trkpt>
      <trkpt lat="28.40282" lon="83.69994">
        <ele>2835.06</ele>
        <time>2013-11-01T00:57:35Z</time>
      </trkpt>
      <trkpt lat="28.4028" lon="83.69994">
        <ele>2838.43</ele>
        <time>2013-11-01T00:57:39Z</time>
      </trkpt>
      <trkpt lat="28.40279" lon="83.69994">
        <ele>2838.43</ele>
        <time>2013-11-01T00:57:40Z</time>
      </trkpt>
      <trkpt lat="28.40278" lon="83.69993">
        <ele>2840.83</ele>
        <time>2013-11-01T00:57:42Z</time>
      </trkpt>
      <trkpt lat="28.40275" lon="83.69991">
        <ele>2843.72</ele>
        <time>2013-11-01T00:57:46Z</time>
      </trkpt>
      <trkpt lat="28.40274" lon="83.69991">
        <ele>2844.68</ele>
        <time>2013-11-01T00:57:47Z</time>
      </trkpt>
      <trkpt lat="28.40271" lon="83.6999">
        <ele>2846.12</ele>
        <time>2013-11-01T00:57:50Z</time>
      </trkpt>
      <trkpt lat="28.40267" lon="83.69991">
        <ele>2847.56</ele>
        <time>2013-11-01T00:57:53Z</time>
      </trkpt>
      <trkpt lat="28.40257" lon="83.6999">
        <ele>2849.97</ele>
        <time>2013-11-01T00:58:05Z</time>
      </trkpt>
      <trkpt lat="28.40253" lon="83.69985">
        <ele>2851.41</ele>
        <time>2013-11-01T00:58:16Z</time>
      </trkpt>
      <trkpt lat="28.40251" lon="83.69969">
        <ele>2853.81</ele>
        <time>2013-11-01T00:58:30Z</time>
      </trkpt>
      <trkpt lat="28.40251" lon="83.69966">
        <ele>2855.73</ele>
        <time>2013-11-01T00:58:41Z</time>
      </trkpt>
      <trkpt lat="28.40253" lon="83.69965">
        <ele>2855.73</ele>
        <time>2013-11-01T00:58:44Z</time>
      </trkpt>
      <trkpt lat="28.40257" lon="83.69965">
        <ele>2855.73</ele>
        <time>2013-11-01T00:58:48Z</time>
      </trkpt>
      <trkpt lat="28.40263" lon="83.69962">
        <ele>2857.66</ele>
        <time>2013-11-01T00:58:56Z</time>
      </trkpt>
      <trkpt lat="28.40274" lon="83.69955">
        <ele>2858.62</ele>
        <time>2013-11-01T00:59:09Z</time>
      </trkpt>
      <trkpt lat="28.40281" lon="83.69948">
        <ele>2859.1</ele>
        <time>2013-11-01T00:59:20Z</time>
      </trkpt>
      <trkpt lat="28.40281" lon="83.69946">
        <ele>2861.98</ele>
        <time>2013-11-01T00:59:36Z</time>
      </trkpt>
      <trkpt lat="28.40281" lon="83.69945">
        <ele>2862.94</ele>
        <time>2013-11-01T00:59:41Z</time>
      </trkpt>
      <trkpt lat="28.40284" lon="83.69932">
        <ele>2863.9</ele>
        <time>2013-11-01T00:59:53Z</time>
      </trkpt>
      <trkpt lat="28.40285" lon="83.69926">
        <ele>2865.83</ele>
        <time>2013-11-01T01:00:07Z</time>
      </trkpt>
      <trkpt lat="28.40284" lon="83.69925">
        <ele>2867.75</ele>
        <time>2013-11-01T01:00:18Z</time>
      </trkpt>
      <trkpt lat="28.40284" lon="83.69924">
        <ele>2869.67</ele>
        <time>2013-11-01T01:00:23Z</time>
      </trkpt>
      <trkpt lat="28.40282" lon="83.69921">
        <ele>2872.56</ele>
        <time>2013-11-01T01:00:38Z</time>
      </trkpt>
      <trkpt lat="28.40279" lon="83.69913">
        <ele>2873.52</ele>
        <time>2013-11-01T01:00:51Z</time>
      </trkpt>
      <trkpt lat="28.40274" lon="83.69908">
        <ele>2874.96</ele>
        <time>2013-11-01T01:01:04Z</time>
      </trkpt>
      <trkpt lat="28.40272" lon="83.69906">
        <ele>2876.4</ele>
        <time>2013-11-01T01:01:14Z</time>
      </trkpt>
      <trkpt lat="28.40267" lon="83.69897">
        <ele>2878.32</ele>
        <time>2013-11-01T01:01:24Z</time>
      </trkpt>
      <trkpt lat="28.40263" lon="83.69892">
        <ele>2878.32</ele>
        <time>2013-11-01T01:01:31Z</time>
      </trkpt>
      <trkpt lat="28.40257" lon="83.69876">
        <ele>2878.32</ele>
        <time>2013-11-01T01:01:45Z</time>
      </trkpt>
      <trkpt lat="28.40254" lon="83.69878">
        <ele>2880.25</ele>
        <time>2013-11-01T01:01:59Z</time>
      </trkpt>
      <trkpt lat="28.4025" lon="83.69877">
        <ele>2883.13</ele>
        <time>2013-11-01T01:02:10Z</time>
      </trkpt>
      <trkpt lat="28.40246" lon="83.69874">
        <ele>2884.57</ele>
        <time>2013-11-01T01:02:24Z</time>
      </trkpt>
      <trkpt lat="28.40245" lon="83.69872">
        <ele>2885.05</ele>
        <time>2013-11-01T01:02:41Z</time>
      </trkpt>
      <trkpt lat="28.40242" lon="83.6987">
        <ele>2886.02</ele>
        <time>2013-11-01T01:02:58Z</time>
      </trkpt>
      <trkpt lat="28.40239" lon="83.69868">
        <ele>2888.42</ele>
        <time>2013-11-01T01:03:12Z</time>
      </trkpt>
      <trkpt lat="28.40233" lon="83.69862">
        <ele>2890.82</ele>
        <time>2013-11-01T01:03:24Z</time>
      </trkpt>
      <trkpt lat="28.40224" lon="83.69853">
        <ele>2891.78</ele>
        <time>2013-11-01T01:03:37Z</time>
      </trkpt>
      <trkpt lat="28.4022" lon="83.69849">
        <ele>2893.71</ele>
        <time>2013-11-01T01:03:49Z</time>
      </trkpt>
      <trkpt lat="28.40217" lon="83.69848">
        <ele>2895.15</ele>
        <time>2013-11-01T01:03:57Z</time>
      </trkpt>
      <trkpt lat="28.40204" lon="83.69838">
        <ele>2895.63</ele>
        <time>2013-11-01T01:04:12Z</time>
      </trkpt>
      <trkpt lat="28.40192" lon="83.69833">
        <ele>2898.03</ele>
        <time>2013-11-01T01:04:26Z</time>
      </trkpt>
      <trkpt lat="28.40192" lon="83.69831">
        <ele>2900.44</ele>
        <time>2013-11-01T01:04:43Z</time>
      </trkpt>
      <trkpt lat="28.40187" lon="83.69822">
        <ele>2902.36</ele>
        <time>2013-11-01T01:04:57Z</time>
      </trkpt>
      <trkpt lat="28.40181" lon="83.69816">
        <ele>2904.76</ele>
        <time>2013-11-01T01:05:09Z</time>
      </trkpt>
      <trkpt lat="28.40176" lon="83.69813">
        <ele>2905.24</ele>
        <time>2013-11-01T01:05:14Z</time>
      </trkpt>
      <trkpt lat="28.40168" lon="83.69797">
        <ele>2906.68</ele>
        <time>2013-11-01T01:05:27Z</time>
      </trkpt>
      <trkpt lat="28.40169" lon="83.69788">
        <ele>2906.68</ele>
        <time>2013-11-01T01:05:40Z</time>
      </trkpt>
      <trkpt lat="28.40167" lon="83.69786">
        <ele>2906.68</ele>
        <time>2013-11-01T01:06:00Z</time>
      </trkpt>
      <trkpt lat="28.40167" lon="83.69783">
        <ele>2907.65</ele>
        <time>2013-11-01T01:06:13Z</time>
      </trkpt>
      <trkpt lat="28.40167" lon="83.69775">
        <ele>2909.57</ele>
        <time>2013-11-01T01:06:25Z</time>
      </trkpt>
      <trkpt lat="28.40168" lon="83.69773">
        <ele>2910.05</ele>
        <time>2013-11-01T01:06:30Z</time>
      </trkpt>
      <trkpt lat="28.4017" lon="83.69761">
        <ele>2911.49</ele>
        <time>2013-11-01T01:06:43Z</time>
      </trkpt>
      <trkpt lat="28.40158" lon="83.69745">
        <ele>2911.97</ele>
        <time>2013-11-01T01:06:56Z</time>
      </trkpt>
      <trkpt lat="28.40148" lon="83.69738">
        <ele>2913.41</ele>
        <time>2013-11-01T01:07:07Z</time>
      </trkpt>
      <trkpt lat="28.40144" lon="83.69736">
        <ele>2914.85</ele>
        <time>2013-11-01T01:07:18Z</time>
      </trkpt>
      <trkpt lat="28.40139" lon="83.69735">
        <ele>2916.78</ele>
        <time>2013-11-01T01:07:30Z</time>
      </trkpt>
      <trkpt lat="28.40132" lon="83.69733">
        <ele>2919.66</ele>
        <time>2013-11-01T01:07:42Z</time>
      </trkpt>
      <trkpt lat="28.4012" lon="83.69732">
        <ele>2921.1</ele>
        <time>2013-11-01T01:07:54Z</time>
      </trkpt>
      <trkpt lat="28.40119" lon="83.69729">
        <ele>2923.51</ele>
        <time>2013-11-01T01:08:04Z</time>
      </trkpt>
      <trkpt lat="28.4012" lon="83.69728">
        <ele>2924.47</ele>
        <time>2013-11-01T01:08:10Z</time>
      </trkpt>
      <trkpt lat="28.40122" lon="83.6972">
        <ele>2923.51</ele>
        <time>2013-11-01T01:08:17Z</time>
      </trkpt>
      <trkpt lat="28.4012" lon="83.69711">
        <ele>2923.99</ele>
        <time>2013-11-01T01:08:28Z</time>
      </trkpt>
      <trkpt lat="28.40115" lon="83.69703">
        <ele>2923.51</ele>
        <time>2013-11-01T01:08:42Z</time>
      </trkpt>
      <trkpt lat="28.40115" lon="83.69703">
        <ele>2923.51</ele>
        <time>2013-11-01T01:08:58Z</time>
      </trkpt>
      <trkpt lat="28.40115" lon="83.69703">
        <ele>2923.51</ele>
        <time>2013-11-01T01:09:00Z</time>
      </trkpt>
      <trkpt lat="28.40114" lon="83.69697">
        <ele>2925.43</ele>
        <time>2013-11-01T01:09:11Z</time>
      </trkpt>
      <trkpt lat="28.40114" lon="83.69696">
        <ele>2926.87</ele>
        <time>2013-11-01T01:09:19Z</time>
      </trkpt>
      <trkpt lat="28.40118" lon="83.69692">
        <ele>2929.27</ele>
        <time>2013-11-01T01:09:32Z</time>
      </trkpt>
      <trkpt lat="28.40124" lon="83.6969">
        <ele>2930.72</ele>
        <time>2013-11-01T01:09:43Z</time>
      </trkpt>
      <trkpt lat="28.40125" lon="83.69689">
        <ele>2932.64</ele>
        <time>2013-11-01T01:09:49Z</time>
      </trkpt>
      <trkpt lat="28.40126" lon="83.69683">
        <ele>2934.08</ele>
        <time>2013-11-01T01:10:00Z</time>
      </trkpt>
      <trkpt lat="28.40128" lon="83.69676">
        <ele>2935.52</ele>
        <time>2013-11-01T01:10:13Z</time>
      </trkpt>
      <trkpt lat="28.40127" lon="83.69668">
        <ele>2938.41</ele>
        <time>2013-11-01T01:10:25Z</time>
      </trkpt>
      <trkpt lat="28.40126" lon="83.69664">
        <ele>2938.89</ele>
        <time>2013-11-01T01:10:40Z</time>
      </trkpt>
      <trkpt lat="28.40126" lon="83.69663">
        <ele>2938.89</ele>
        <time>2013-11-01T01:11:06Z</time>
      </trkpt>
      <trkpt lat="28.40128" lon="83.6966">
        <ele>2939.85</ele>
        <time>2013-11-01T01:11:26Z</time>
      </trkpt>
      <trkpt lat="28.40128" lon="83.69658">
        <ele>2940.33</ele>
        <time>2013-11-01T01:11:43Z</time>
      </trkpt>
      <trkpt lat="28.40127" lon="83.69658">
        <ele>2940.33</ele>
        <time>2013-11-01T01:12:04Z</time>
      </trkpt>
      <trkpt lat="28.40123" lon="83.69657">
        <ele>2943.69</ele>
        <time>2013-11-01T01:12:15Z</time>
      </trkpt>
      <trkpt lat="28.40125" lon="83.69647">
        <ele>2945.62</ele>
        <time>2013-11-01T01:12:27Z</time>
      </trkpt>
      <trkpt lat="28.40125" lon="83.69634">
        <ele>2947.54</ele>
        <time>2013-11-01T01:12:41Z</time>
      </trkpt>
      <trkpt lat="28.40123" lon="83.6963">
        <ele>2948.98</ele>
        <time>2013-11-01T01:12:48Z</time>
      </trkpt>
      <trkpt lat="28.40122" lon="83.6963">
        <ele>2950.9</ele>
        <time>2013-11-01T01:12:58Z</time>
      </trkpt>
      <trkpt lat="28.4012" lon="83.6963">
        <ele>2952.35</ele>
        <time>2013-11-01T01:13:07Z</time>
      </trkpt>
      <trkpt lat="28.40118" lon="83.69629">
        <ele>2953.79</ele>
        <time>2013-11-01T01:13:21Z</time>
      </trkpt>
      <trkpt lat="28.40117" lon="83.69628">
        <ele>2953.79</ele>
        <time>2013-11-01T01:13:22Z</time>
      </trkpt>
      <trkpt lat="28.40115" lon="83.69622">
        <ele>2955.23</ele>
        <time>2013-11-01T01:13:35Z</time>
      </trkpt>
      <trkpt lat="28.40112" lon="83.6962">
        <ele>2956.67</ele>
        <time>2013-11-01T01:13:49Z</time>
      </trkpt>
      <trkpt lat="28.40113" lon="83.6962">
        <ele>2957.15</ele>
        <time>2013-11-01T01:14:05Z</time>
      </trkpt>
      <trkpt lat="28.40113" lon="83.6962">
        <ele>2957.63</ele>
        <time>2013-11-01T01:14:35Z</time>
      </trkpt>
      <trkpt lat="28.40113" lon="83.69619">
        <ele>2957.63</ele>
        <time>2013-11-01T01:14:57Z</time>
      </trkpt>
      <trkpt lat="28.4011" lon="83.69618">
        <ele>2958.59</ele>
        <time>2013-11-01T01:15:19Z</time>
      </trkpt>
      <trkpt lat="28.40106" lon="83.69614">
        <ele>2960.04</ele>
        <time>2013-11-01T01:15:30Z</time>
      </trkpt>
      <trkpt lat="28.40105" lon="83.69612">
        <ele>2960.04</ele>
        <time>2013-11-01T01:15:37Z</time>
      </trkpt>
      <trkpt lat="28.401" lon="83.69606">
        <ele>2963.4</ele>
        <time>2013-11-01T01:15:48Z</time>
      </trkpt>
      <trkpt lat="28.40096" lon="83.69601">
        <ele>2964.36</ele>
        <time>2013-11-01T01:15:58Z</time>
      </trkpt>
      <trkpt lat="28.40091" lon="83.69596">
        <ele>2967.25</ele>
        <time>2013-11-01T01:16:09Z</time>
      </trkpt>
      <trkpt lat="28.40086" lon="83.69589">
        <ele>2968.69</ele>
        <time>2013-11-01T01:16:19Z</time>
      </trkpt>
      <trkpt lat="28.40084" lon="83.69589">
        <ele>2969.65</ele>
        <time>2013-11-01T01:16:21Z</time>
      </trkpt>
      <trkpt lat="28.4008" lon="83.69589">
        <ele>2971.09</ele>
        <time>2013-11-01T01:16:34Z</time>
      </trkpt>
      <trkpt lat="28.4008" lon="83.69589">
        <ele>2971.09</ele>
        <time>2013-11-01T01:16:42Z</time>
      </trkpt>
      <trkpt lat="28.40077" lon="83.69582">
        <ele>2973.98</ele>
        <time>2013-11-01T01:16:55Z</time>
      </trkpt>
      <trkpt lat="28.40076" lon="83.69576">
        <ele>2975.42</ele>
        <time>2013-11-01T01:17:03Z</time>
      </trkpt>
      <trkpt lat="28.40075" lon="83.69569">
        <ele>2976.38</ele>
        <time>2013-11-01T01:17:18Z</time>
      </trkpt>
      <trkpt lat="28.40075" lon="83.69568">
        <ele>2976.86</ele>
        <time>2013-11-01T01:17:37Z</time>
      </trkpt>
      <trkpt lat="28.40075" lon="83.69568">
        <ele>2976.86</ele>
        <time>2013-11-01T01:17:56Z</time>
      </trkpt>
      <trkpt lat="28.40075" lon="83.69568">
        <ele>2976.38</ele>
        <time>2013-11-01T01:18:27Z</time>
      </trkpt>
      <trkpt lat="28.40075" lon="83.69568">
        <ele>2976.86</ele>
        <time>2013-11-01T01:18:56Z</time>
      </trkpt>
      <trkpt lat="28.40075" lon="83.69566">
        <ele>2977.34</ele>
        <time>2013-11-01T01:19:16Z</time>
      </trkpt>
      <trkpt lat="28.40075" lon="83.69557">
        <ele>2978.78</ele>
        <time>2013-11-01T01:19:37Z</time>
      </trkpt>
      <trkpt lat="28.40076" lon="83.69554">
        <ele>2979.74</ele>
        <time>2013-11-01T01:19:51Z</time>
      </trkpt>
      <trkpt lat="28.40076" lon="83.69553">
        <ele>2979.74</ele>
        <time>2013-11-01T01:20:14Z</time>
      </trkpt>
      <trkpt lat="28.40072" lon="83.69557">
        <ele>2983.11</ele>
        <time>2013-11-01T01:20:29Z</time>
      </trkpt>
      <trkpt lat="28.40071" lon="83.69553">
        <ele>2985.03</ele>
        <time>2013-11-01T01:20:41Z</time>
      </trkpt>
      <trkpt lat="28.4007" lon="83.6955">
        <ele>2986.47</ele>
        <time>2013-11-01T01:20:53Z</time>
      </trkpt>
      <trkpt lat="28.40069" lon="83.69545">
        <ele>2989.84</ele>
        <time>2013-11-01T01:21:06Z</time>
      </trkpt>
      <trkpt lat="28.40068" lon="83.69542">
        <ele>2991.28</ele>
        <time>2013-11-01T01:21:20Z</time>
      </trkpt>
      <trkpt lat="28.40066" lon="83.69538">
        <ele>2991.76</ele>
        <time>2013-11-01T01:21:34Z</time>
      </trkpt>
      <trkpt lat="28.40065" lon="83.69536">
        <ele>2992.24</ele>
        <time>2013-11-01T01:21:53Z</time>
      </trkpt>
      <trkpt lat="28.40062" lon="83.6953">
        <ele>2995.12</ele>
        <time>2013-11-01T01:22:07Z</time>
      </trkpt>
      <trkpt lat="28.40061" lon="83.69526">
        <ele>2996.57</ele>
        <time>2013-11-01T01:22:21Z</time>
      </trkpt>
      <trkpt lat="28.40061" lon="83.69525">
        <ele>2996.09</ele>
        <time>2013-11-01T01:22:25Z</time>
      </trkpt>
      <trkpt lat="28.40057" lon="83.69522">
        <ele>2998.49</ele>
        <time>2013-11-01T01:22:39Z</time>
      </trkpt>
      <trkpt lat="28.40054" lon="83.69518">
        <ele>3000.89</ele>
        <time>2013-11-01T01:22:53Z</time>
      </trkpt>
      <trkpt lat="28.40054" lon="83.69518">
        <ele>3000.89</ele>
        <time>2013-11-01T01:22:54Z</time>
      </trkpt>
      <trkpt lat="28.40053" lon="83.69516">
        <ele>3001.37</ele>
        <time>2013-11-01T01:23:09Z</time>
      </trkpt>
      <trkpt lat="28.40052" lon="83.69514">
        <ele>3002.82</ele>
        <time>2013-11-01T01:23:26Z</time>
      </trkpt>
      <trkpt lat="28.40051" lon="83.69509">
        <ele>3004.74</ele>
        <time>2013-11-01T01:23:40Z</time>
      </trkpt>
      <trkpt lat="28.40051" lon="83.69505">
        <ele>3005.22</ele>
        <time>2013-11-01T01:23:52Z</time>
      </trkpt>
      <trkpt lat="28.40051" lon="83.695">
        <ele>3006.66</ele>
        <time>2013-11-01T01:24:06Z</time>
      </trkpt>
      <trkpt lat="28.4005" lon="83.69493">
        <ele>3009.06</ele>
        <time>2013-11-01T01:24:18Z</time>
      </trkpt>
      <trkpt lat="28.40051" lon="83.69486">
        <ele>3011.95</ele>
        <time>2013-11-01T01:24:29Z</time>
      </trkpt>
      <trkpt lat="28.40053" lon="83.69476">
        <ele>3014.83</ele>
        <time>2013-11-01T01:24:43Z</time>
      </trkpt>
      <trkpt lat="28.40054" lon="83.69472">
        <ele>3018.2</ele>
        <time>2013-11-01T01:24:56Z</time>
      </trkpt>
      <trkpt lat="28.40054" lon="83.69467">
        <ele>3020.12</ele>
        <time>2013-11-01T01:25:06Z</time>
      </trkpt>
      <trkpt lat="28.40052" lon="83.69456">
        <ele>3022.04</ele>
        <time>2013-11-01T01:25:20Z</time>
      </trkpt>
      <trkpt lat="28.40049" lon="83.69447">
        <ele>3023.96</ele>
        <time>2013-11-01T01:25:32Z</time>
      </trkpt>
      <trkpt lat="28.40049" lon="83.69444">
        <ele>3023.96</ele>
        <time>2013-11-01T01:25:45Z</time>
      </trkpt>
      <trkpt lat="28.4005" lon="83.69443">
        <ele>3023.96</ele>
        <time>2013-11-01T01:26:05Z</time>
      </trkpt>
      <trkpt lat="28.40049" lon="83.69442">
        <ele>3024.44</ele>
        <time>2013-11-01T01:26:20Z</time>
      </trkpt>
      <trkpt lat="28.40048" lon="83.69444">
        <ele>3024.44</ele>
        <time>2013-11-01T01:26:37Z</time>
      </trkpt>
      <trkpt lat="28.40048" lon="83.69444">
        <ele>3024.44</ele>
        <time>2013-11-01T01:26:53Z</time>
      </trkpt>
      <trkpt lat="28.40048" lon="83.69444">
        <ele>3024.44</ele>
        <time>2013-11-01T01:27:04Z</time>
      </trkpt>
      <trkpt lat="28.40049" lon="83.69431">
        <ele>3025.41</ele>
        <time>2013-11-01T01:27:17Z</time>
      </trkpt>
      <trkpt lat="28.4005" lon="83.69422">
        <ele>3026.85</ele>
        <time>2013-11-01T01:27:25Z</time>
      </trkpt>
      <trkpt lat="28.40046" lon="83.69412">
        <ele>3029.73</ele>
        <time>2013-11-01T01:27:37Z</time>
      </trkpt>
      <trkpt lat="28.40045" lon="83.69405">
        <ele>3031.17</ele>
        <time>2013-11-01T01:27:49Z</time>
      </trkpt>
      <trkpt lat="28.40042" lon="83.69401">
        <ele>3034.06</ele>
        <time>2013-11-01T01:27:57Z</time>
      </trkpt>
      <trkpt lat="28.40038" lon="83.69394">
        <ele>3036.46</ele>
        <time>2013-11-01T01:28:08Z</time>
      </trkpt>
      <trkpt lat="28.4004" lon="83.69387">
        <ele>3038.86</ele>
        <time>2013-11-01T01:28:21Z</time>
      </trkpt>
      <trkpt lat="28.40039" lon="83.6938">
        <ele>3041.27</ele>
        <time>2013-11-01T01:28:34Z</time>
      </trkpt>
      <trkpt lat="28.40036" lon="83.69372">
        <ele>3042.71</ele>
        <time>2013-11-01T01:28:48Z</time>
      </trkpt>
      <trkpt lat="28.40034" lon="83.69366">
        <ele>3044.15</ele>
        <time>2013-11-01T01:29:00Z</time>
      </trkpt>
      <trkpt lat="28.40033" lon="83.69359">
        <ele>3046.07</ele>
        <time>2013-11-01T01:29:15Z</time>
      </trkpt>
      <trkpt lat="28.40031" lon="83.69346">
        <ele>3048.48</ele>
        <time>2013-11-01T01:29:33Z</time>
      </trkpt>
      <trkpt lat="28.40029" lon="83.69339">
        <ele>3050.4</ele>
        <time>2013-11-01T01:29:47Z</time>
      </trkpt>
      <trkpt lat="28.40027" lon="83.69329">
        <ele>3052.32</ele>
        <time>2013-11-01T01:30:03Z</time>
      </trkpt>
      <trkpt lat="28.40024" lon="83.69319">
        <ele>3054.73</ele>
        <time>2013-11-01T01:30:18Z</time>
      </trkpt>
      <trkpt lat="28.40021" lon="83.69307">
        <ele>3057.61</ele>
        <time>2013-11-01T01:30:35Z</time>
      </trkpt>
      <trkpt lat="28.40017" lon="83.69294">
        <ele>3060.01</ele>
        <time>2013-11-01T01:30:50Z</time>
      </trkpt>
      <trkpt lat="28.40013" lon="83.69283">
        <ele>3060.98</ele>
        <time>2013-11-01T01:31:00Z</time>
      </trkpt>
      <trkpt lat="28.40012" lon="83.69271">
        <ele>3062.42</ele>
        <time>2013-11-01T01:31:12Z</time>
      </trkpt>
      <trkpt lat="28.4001" lon="83.69265">
        <ele>3064.82</ele>
        <time>2013-11-01T01:31:24Z</time>
      </trkpt>
      <trkpt lat="28.40008" lon="83.69259">
        <ele>3067.22</ele>
        <time>2013-11-01T01:31:36Z</time>
      </trkpt>
      <trkpt lat="28.40003" lon="83.69255">
        <ele>3070.11</ele>
        <time>2013-11-01T01:31:48Z</time>
      </trkpt>
      <trkpt lat="28.4" lon="83.69247">
        <ele>3072.03</ele>
        <time>2013-11-01T01:32:01Z</time>
      </trkpt>
      <trkpt lat="28.39995" lon="83.69243">
        <ele>3074.91</ele>
        <time>2013-11-01T01:32:15Z</time>
      </trkpt>
      <trkpt lat="28.39986" lon="83.69242">
        <ele>3078.28</ele>
        <time>2013-11-01T01:32:31Z</time>
      </trkpt>
      <trkpt lat="28.39979" lon="83.69242">
        <ele>3080.2</ele>
        <time>2013-11-01T01:32:44Z</time>
      </trkpt>
      <trkpt lat="28.39971" lon="83.6924">
        <ele>3081.64</ele>
        <time>2013-11-01T01:32:55Z</time>
      </trkpt>
      <trkpt lat="28.39964" lon="83.69235">
        <ele>3084.53</ele>
        <time>2013-11-01T01:33:08Z</time>
      </trkpt>
      <trkpt lat="28.39966" lon="83.69231">
        <ele>3086.45</ele>
        <time>2013-11-01T01:33:20Z</time>
      </trkpt>
      <trkpt lat="28.39967" lon="83.69229">
        <ele>3087.41</ele>
        <time>2013-11-01T01:33:41Z</time>
      </trkpt>
      <trkpt lat="28.39967" lon="83.6922">
        <ele>3089.81</ele>
        <time>2013-11-01T01:33:56Z</time>
      </trkpt>
      <trkpt lat="28.39972" lon="83.6922">
        <ele>3091.74</ele>
        <time>2013-11-01T01:34:07Z</time>
      </trkpt>
      <trkpt lat="28.39975" lon="83.69218">
        <ele>3093.66</ele>
        <time>2013-11-01T01:34:18Z</time>
      </trkpt>
      <trkpt lat="28.39973" lon="83.6921">
        <ele>3095.58</ele>
        <time>2013-11-01T01:34:31Z</time>
      </trkpt>
      <trkpt lat="28.39976" lon="83.69205">
        <ele>3097.99</ele>
        <time>2013-11-01T01:34:45Z</time>
      </trkpt>
      <trkpt lat="28.39974" lon="83.69198">
        <ele>3100.87</ele>
        <time>2013-11-01T01:34:58Z</time>
      </trkpt>
      <trkpt lat="28.39972" lon="83.69198">
        <ele>3101.35</ele>
        <time>2013-11-01T01:35:01Z</time>
      </trkpt>
      <trkpt lat="28.3997" lon="83.69195">
        <ele>3102.79</ele>
        <time>2013-11-01T01:35:15Z</time>
      </trkpt>
      <trkpt lat="28.39965" lon="83.69192">
        <ele>3105.2</ele>
        <time>2013-11-01T01:35:34Z</time>
      </trkpt>
      <trkpt lat="28.39962" lon="83.69187">
        <ele>3106.16</ele>
        <time>2013-11-01T01:35:47Z</time>
      </trkpt>
      <trkpt lat="28.39965" lon="83.6918">
        <ele>3107.6</ele>
        <time>2013-11-01T01:36:03Z</time>
      </trkpt>
      <trkpt lat="28.39966" lon="83.69178">
        <ele>3107.6</ele>
        <time>2013-11-01T01:36:05Z</time>
      </trkpt>
      <trkpt lat="28.39966" lon="83.69167">
        <ele>3107.6</ele>
        <time>2013-11-01T01:36:14Z</time>
      </trkpt>
      <trkpt lat="28.39962" lon="83.69158">
        <ele>3110.48</ele>
        <time>2013-11-01T01:36:27Z</time>
      </trkpt>
      <trkpt lat="28.39958" lon="83.69153">
        <ele>3112.89</ele>
        <time>2013-11-01T01:36:40Z</time>
      </trkpt>
      <trkpt lat="28.39953" lon="83.69149">
        <ele>3114.33</ele>
        <time>2013-11-01T01:36:50Z</time>
      </trkpt>
      <trkpt lat="28.39949" lon="83.6914">
        <ele>3115.77</ele>
        <time>2013-11-01T01:37:02Z</time>
      </trkpt>
      <trkpt lat="28.39952" lon="83.69133">
        <ele>3118.17</ele>
        <time>2013-11-01T01:37:15Z</time>
      </trkpt>
      <trkpt lat="28.39953" lon="83.69125">
        <ele>3121.54</ele>
        <time>2013-11-01T01:37:29Z</time>
      </trkpt>
      <trkpt lat="28.39953" lon="83.6912">
        <ele>3124.42</ele>
        <time>2013-11-01T01:37:47Z</time>
      </trkpt>
      <trkpt lat="28.39952" lon="83.69112">
        <ele>3126.83</ele>
        <time>2013-11-01T01:38:04Z</time>
      </trkpt>
      <trkpt lat="28.39955" lon="83.69102">
        <ele>3129.23</ele>
        <time>2013-11-01T01:38:17Z</time>
      </trkpt>
      <trkpt lat="28.39952" lon="83.69095">
        <ele>3131.63</ele>
        <time>2013-11-01T01:38:31Z</time>
      </trkpt>
      <trkpt lat="28.39947" lon="83.69089">
        <ele>3134.04</ele>
        <time>2013-11-01T01:38:48Z</time>
      </trkpt>
      <trkpt lat="28.3994" lon="83.69085">
        <ele>3135.48</ele>
        <time>2013-11-01T01:39:04Z</time>
      </trkpt>
      <trkpt lat="28.39933" lon="83.69077">
        <ele>3138.84</ele>
        <time>2013-11-01T01:39:20Z</time>
      </trkpt>
      <trkpt lat="28.39934" lon="83.69072">
        <ele>3141.25</ele>
        <time>2013-11-01T01:39:33Z</time>
      </trkpt>
      <trkpt lat="28.39935" lon="83.69066">
        <ele>3144.13</ele>
        <time>2013-11-01T01:39:48Z</time>
      </trkpt>
      <trkpt lat="28.39938" lon="83.69054">
        <ele>3146.05</ele>
        <time>2013-11-01T01:40:03Z</time>
      </trkpt>
      <trkpt lat="28.39944" lon="83.69045">
        <ele>3147.49</ele>
        <time>2013-11-01T01:40:14Z</time>
      </trkpt>
      <trkpt lat="28.3995" lon="83.69041">
        <ele>3149.42</ele>
        <time>2013-11-01T01:40:26Z</time>
      </trkpt>
      <trkpt lat="28.39958" lon="83.69037">
        <ele>3150.86</ele>
        <time>2013-11-01T01:40:39Z</time>
      </trkpt>
      <trkpt lat="28.39964" lon="83.69029">
        <ele>3152.3</ele>
        <time>2013-11-01T01:40:52Z</time>
      </trkpt>
      <trkpt lat="28.39966" lon="83.69029">
        <ele>3152.78</ele>
        <time>2013-11-01T01:41:08Z</time>
      </trkpt>
      <trkpt lat="28.39967" lon="83.69029">
        <ele>3153.26</ele>
        <time>2013-11-01T01:41:34Z</time>
      </trkpt>
      <trkpt lat="28.39968" lon="83.69028">
        <ele>3153.26</ele>
        <time>2013-11-01T01:41:52Z</time>
      </trkpt>
      <trkpt lat="28.39968" lon="83.69028">
        <ele>3153.26</ele>
        <time>2013-11-01T01:42:21Z</time>
      </trkpt>
      <trkpt lat="28.39972" lon="83.69017">
        <ele>3154.7</ele>
        <time>2013-11-01T01:42:34Z</time>
      </trkpt>
      <trkpt lat="28.39974" lon="83.69009">
        <ele>3157.11</ele>
        <time>2013-11-01T01:42:46Z</time>
      </trkpt>
      <trkpt lat="28.39976" lon="83.69005">
        <ele>3158.55</ele>
        <time>2013-11-01T01:42:57Z</time>
      </trkpt>
      <trkpt lat="28.39977" lon="83.69003">
        <ele>3159.03</ele>
        <time>2013-11-01T01:43:18Z</time>
      </trkpt>
      <trkpt lat="28.39977" lon="83.69001">
        <ele>3159.51</ele>
        <time>2013-11-01T01:43:42Z</time>
      </trkpt>
      <trkpt lat="28.3998" lon="83.68993">
        <ele>3161.43</ele>
        <time>2013-11-01T01:43:52Z</time>
      </trkpt>
      <trkpt lat="28.39983" lon="83.68984">
        <ele>3164.32</ele>
        <time>2013-11-01T01:44:04Z</time>
      </trkpt>
      <trkpt lat="28.39986" lon="83.68978">
        <ele>3165.76</ele>
        <time>2013-11-01T01:44:16Z</time>
      </trkpt>
      <trkpt lat="28.39985" lon="83.68974">
        <ele>3167.2</ele>
        <time>2013-11-01T01:44:28Z</time>
      </trkpt>
      <trkpt lat="28.39986" lon="83.68974">
        <ele>3166.72</ele>
        <time>2013-11-01T01:44:43Z</time>
      </trkpt>
      <trkpt lat="28.39986" lon="83.68971">
        <ele>3167.68</ele>
        <time>2013-11-01T01:44:58Z</time>
      </trkpt>
      <trkpt lat="28.39986" lon="83.68971">
        <ele>3167.68</ele>
        <time>2013-11-01T01:45:28Z</time>
      </trkpt>
      <trkpt lat="28.39989" lon="83.68972">
        <ele>3167.68</ele>
        <time>2013-11-01T01:45:34Z</time>
      </trkpt>
      <trkpt lat="28.39993" lon="83.68966">
        <ele>3169.6</ele>
        <time>2013-11-01T01:45:45Z</time>
      </trkpt>
      <trkpt lat="28.39996" lon="83.68962">
        <ele>3170.57</ele>
        <time>2013-11-01T01:45:57Z</time>
      </trkpt>
      <trkpt lat="28.40001" lon="83.68954">
        <ele>3171.05</ele>
        <time>2013-11-01T01:46:06Z</time>
      </trkpt>
      <trkpt lat="28.40008" lon="83.68954">
        <ele>3171.53</ele>
        <time>2013-11-01T01:46:17Z</time>
      </trkpt>
      <trkpt lat="28.40011" lon="83.6895">
        <ele>3171.53</ele>
        <time>2013-11-01T01:46:29Z</time>
      </trkpt>
      <trkpt lat="28.40012" lon="83.6895">
        <ele>3171.53</ele>
        <time>2013-11-01T01:46:55Z</time>
      </trkpt>
      <trkpt lat="28.40012" lon="83.68949">
        <ele>3172.01</ele>
        <time>2013-11-01T01:47:23Z</time>
      </trkpt>
      <trkpt lat="28.40013" lon="83.68949">
        <ele>3171.05</ele>
        <time>2013-11-01T01:47:37Z</time>
      </trkpt>
      <trkpt lat="28.40012" lon="83.68949">
        <ele>3171.05</ele>
        <time>2013-11-01T01:47:46Z</time>
      </trkpt>
      <trkpt lat="28.40013" lon="83.6895">
        <ele>3171.05</ele>
        <time>2013-11-01T01:48:00Z</time>
      </trkpt>
      <trkpt lat="28.40014" lon="83.6895">
        <ele>3171.53</ele>
        <time>2013-11-01T01:48:17Z</time>
      </trkpt>
      <trkpt lat="28.40014" lon="83.6895">
        <ele>3171.53</ele>
        <time>2013-11-01T01:48:38Z</time>
      </trkpt>
      <trkpt lat="28.40014" lon="83.68951">
        <ele>3171.05</ele>
        <time>2013-11-01T01:48:55Z</time>
      </trkpt>
      <trkpt lat="28.40013" lon="83.68953">
        <ele>3171.53</ele>
        <time>2013-11-01T01:49:14Z</time>
      </trkpt>
      <trkpt lat="28.40014" lon="83.68952">
        <ele>3171.53</ele>
        <time>2013-11-01T01:49:41Z</time>
      </trkpt>
      <trkpt lat="28.40013" lon="83.68952">
        <ele>3171.53</ele>
        <time>2013-11-01T01:50:05Z</time>
      </trkpt>
      <trkpt lat="28.40015" lon="83.6895">
        <ele>3172.01</ele>
        <time>2013-11-01T01:50:24Z</time>
      </trkpt>
      <trkpt lat="28.40015" lon="83.68949">
        <ele>3172.01</ele>
        <time>2013-11-01T01:50:44Z</time>
      </trkpt>
      <trkpt lat="28.40015" lon="83.68948">
        <ele>3172.01</ele>
        <time>2013-11-01T01:51:00Z</time>
      </trkpt>
      <trkpt lat="28.40014" lon="83.6895">
        <ele>3171.53</ele>
        <time>2013-11-01T01:51:03Z</time>
      </trkpt>
      <trkpt lat="28.40015" lon="83.68947">
        <ele>3172.49</ele>
        <time>2013-11-01T01:51:17Z</time>
      </trkpt>
      <trkpt lat="28.40015" lon="83.68945">
        <ele>3172.49</ele>
        <time>2013-11-01T01:51:36Z</time>
      </trkpt>
      <trkpt lat="28.40015" lon="83.68946">
        <ele>3172.97</ele>
        <time>2013-11-01T01:52:03Z</time>
      </trkpt>
      <trkpt lat="28.40016" lon="83.68946">
        <ele>3172.97</ele>
        <time>2013-11-01T01:52:37Z</time>
      </trkpt>
      <trkpt lat="28.40016" lon="83.68946">
        <ele>3173.45</ele>
        <time>2013-11-01T01:53:02Z</time>
      </trkpt>
      <trkpt lat="28.40016" lon="83.68945">
        <ele>3173.45</ele>
        <time>2013-11-01T01:53:20Z</time>
      </trkpt>
      <trkpt lat="28.40017" lon="83.68946">
        <ele>3172.97</ele>
        <time>2013-11-01T01:53:35Z</time>
      </trkpt>
      <trkpt lat="28.40016" lon="83.68946">
        <ele>3173.45</ele>
        <time>2013-11-01T01:53:49Z</time>
      </trkpt>
      <trkpt lat="28.40017" lon="83.68946">
        <ele>3173.93</ele>
        <time>2013-11-01T01:54:18Z</time>
      </trkpt>
      <trkpt lat="28.40016" lon="83.68946">
        <ele>3173.45</ele>
        <time>2013-11-01T01:54:45Z</time>
      </trkpt>
      <trkpt lat="28.40016" lon="83.68946">
        <ele>3173.93</ele>
        <time>2013-11-01T01:54:59Z</time>
      </trkpt>
      <trkpt lat="28.40017" lon="83.68946">
        <ele>3174.41</ele>
        <time>2013-11-01T01:55:29Z</time>
      </trkpt>
      <trkpt lat="28.40017" lon="83.68946">
        <ele>3174.89</ele>
        <time>2013-11-01T01:55:59Z</time>
      </trkpt>
      <trkpt lat="28.40017" lon="83.68947">
        <ele>3174.89</ele>
        <time>2013-11-01T01:56:28Z</time>
      </trkpt>
      <trkpt lat="28.40017" lon="83.68947">
        <ele>3175.37</ele>
        <time>2013-11-01T01:56:51Z</time>
      </trkpt>
      <trkpt lat="28.40017" lon="83.68947">
        <ele>3174.89</ele>
        <time>2013-11-01T01:57:21Z</time>
      </trkpt>
      <trkpt lat="28.40017" lon="83.68946">
        <ele>3175.37</ele>
        <time>2013-11-01T01:57:47Z</time>
      </trkpt>
      <trkpt lat="28.40017" lon="83.68946">
        <ele>3175.37</ele>
        <time>2013-11-01T01:58:12Z</time>
      </trkpt>
      <trkpt lat="28.40017" lon="83.68945">
        <ele>3175.37</ele>
        <time>2013-11-01T01:58:43Z</time>
      </trkpt>
      <trkpt lat="28.40017" lon="83.68945">
        <ele>3175.37</ele>
        <time>2013-11-01T01:59:12Z</time>
      </trkpt>
      <trkpt lat="28.40018" lon="83.68946">
        <ele>3175.85</ele>
        <time>2013-11-01T01:59:46Z</time>
      </trkpt>
      <trkpt lat="28.40018" lon="83.68946">
        <ele>3175.37</ele>
        <time>2013-11-01T02:00:06Z</time>
      </trkpt>
      <trkpt lat="28.40018" lon="83.68946">
        <ele>3175.37</ele>
        <time>2013-11-01T02:00:42Z</time>
      </trkpt>
      <trkpt lat="28.40017" lon="83.68946">
        <ele>3176.33</ele>
        <time>2013-11-01T02:01:05Z</time>
      </trkpt>
      <trkpt lat="28.40018" lon="83.68946">
        <ele>3175.37</ele>
        <time>2013-11-01T02:01:26Z</time>
      </trkpt>
      <trkpt lat="28.40018" lon="83.68946">
        <ele>3175.37</ele>
        <time>2013-11-01T02:01:54Z</time>
      </trkpt>
      <trkpt lat="28.40018" lon="83.68946">
        <ele>3175.37</ele>
        <time>2013-11-01T02:02:22Z</time>
      </trkpt>
      <trkpt lat="28.40018" lon="83.68946">
        <ele>3175.85</ele>
        <time>2013-11-01T02:02:45Z</time>
      </trkpt>
      <trkpt lat="28.40018" lon="83.68946">
        <ele>3175.85</ele>
        <time>2013-11-01T02:03:07Z</time>
      </trkpt>
      <trkpt lat="28.40018" lon="83.68946">
        <ele>3175.85</ele>
        <time>2013-11-01T02:03:31Z</time>
      </trkpt>
      <trkpt lat="28.40018" lon="83.68946">
        <ele>3175.85</ele>
        <time>2013-11-01T02:03:55Z</time>
      </trkpt>
      <trkpt lat="28.40018" lon="83.68946">
        <ele>3175.85</ele>
        <time>2013-11-01T02:04:27Z</time>
      </trkpt>
      <trkpt lat="28.40018" lon="83.68947">
        <ele>3176.33</ele>
        <time>2013-11-01T02:04:49Z</time>
      </trkpt>
      <trkpt lat="28.40017" lon="83.68947">
        <ele>3176.33</ele>
        <time>2013-11-01T02:05:12Z</time>
      </trkpt>
      <trkpt lat="28.40017" lon="83.68947">
        <ele>3175.85</ele>
        <time>2013-11-01T02:05:37Z</time>
      </trkpt>
      <trkpt lat="28.40017" lon="83.68947">
        <ele>3176.33</ele>
        <time>2013-11-01T02:05:43Z</time>
      </trkpt>
      <trkpt lat="28.4002" lon="83.68946">
        <ele>3176.33</ele>
        <time>2013-11-01T02:05:58Z</time>
      </trkpt>
      <trkpt lat="28.40018" lon="83.68947">
        <ele>3176.33</ele>
        <time>2013-11-01T02:06:10Z</time>
      </trkpt>
      <trkpt lat="28.40018" lon="83.68947">
        <ele>3177.29</ele>
        <time>2013-11-01T02:06:44Z</time>
      </trkpt>
      <trkpt lat="28.40017" lon="83.68947">
        <ele>3176.81</ele>
        <time>2013-11-01T02:07:16Z</time>
      </trkpt>
      <trkpt lat="28.40017" lon="83.68948">
        <ele>3176.81</ele>
        <time>2013-11-01T02:07:47Z</time>
      </trkpt>
      <trkpt lat="28.40017" lon="83.68948">
        <ele>3176.81</ele>
        <time>2013-11-01T02:08:12Z</time>
      </trkpt>
      <trkpt lat="28.40017" lon="83.68948">
        <ele>3177.29</ele>
        <time>2013-11-01T02:08:41Z</time>
      </trkpt>
      <trkpt lat="28.40019" lon="83.68947">
        <ele>3177.78</ele>
        <time>2013-11-01T02:08:59Z</time>
      </trkpt>
      <trkpt lat="28.40018" lon="83.68947">
        <ele>3177.78</ele>
        <time>2013-11-01T02:09:13Z</time>
      </trkpt>
      <trkpt lat="28.40018" lon="83.68944">
        <ele>3177.78</ele>
        <time>2013-11-01T02:09:28Z</time>
      </trkpt>
      <trkpt lat="28.40019" lon="83.68943">
        <ele>3177.29</ele>
        <time>2013-11-01T02:09:40Z</time>
      </trkpt>
      <trkpt lat="28.40017" lon="83.68948">
        <ele>3177.78</ele>
        <time>2013-11-01T02:09:52Z</time>
      </trkpt>
      <trkpt lat="28.40017" lon="83.68947">
        <ele>3177.78</ele>
        <time>2013-11-01T02:10:20Z</time>
      </trkpt>
      <trkpt lat="28.40015" lon="83.68948">
        <ele>3178.26</ele>
        <time>2013-11-01T02:10:33Z</time>
      </trkpt>
      <trkpt lat="28.40013" lon="83.68947">
        <ele>3179.22</ele>
        <time>2013-11-01T02:10:45Z</time>
      </trkpt>
      <trkpt lat="28.40012" lon="83.68947">
        <ele>3179.22</ele>
        <time>2013-11-01T02:11:18Z</time>
      </trkpt>
      <trkpt lat="28.40011" lon="83.68947">
        <ele>3179.22</ele>
        <time>2013-11-01T02:11:51Z</time>
      </trkpt>
      <trkpt lat="28.40011" lon="83.68946">
        <ele>3179.7</ele>
        <time>2013-11-01T02:12:27Z</time>
      </trkpt>
      <trkpt lat="28.40012" lon="83.68947">
        <ele>3179.7</ele>
        <time>2013-11-01T02:13:00Z</time>
      </trkpt>
      <trkpt lat="28.40011" lon="83.68948">
        <ele>3180.18</ele>
        <time>2013-11-01T02:13:30Z</time>
      </trkpt>
      <trkpt lat="28.40011" lon="83.68948">
        <ele>3180.18</ele>
        <time>2013-11-01T02:13:58Z</time>
      </trkpt>
      <trkpt lat="28.40011" lon="83.68948">
        <ele>3180.18</ele>
        <time>2013-11-01T02:14:18Z</time>
      </trkpt>
      <trkpt lat="28.40016" lon="83.68949">
        <ele>3179.22</ele>
        <time>2013-11-01T02:14:30Z</time>
      </trkpt>
      <trkpt lat="28.40018" lon="83.68948">
        <ele>3179.7</ele>
        <time>2013-11-01T02:14:42Z</time>
      </trkpt>
      <trkpt lat="28.40018" lon="83.68947">
        <ele>3179.7</ele>
        <time>2013-11-01T02:15:07Z</time>
      </trkpt>
      <trkpt lat="28.40018" lon="83.68947">
        <ele>3179.22</ele>
        <time>2013-11-01T02:15:27Z</time>
      </trkpt>
      <trkpt lat="28.40018" lon="83.68947">
        <ele>3179.22</ele>
        <time>2013-11-01T02:15:43Z</time>
      </trkpt>
      <trkpt lat="28.40018" lon="83.68947">
        <ele>3179.7</ele>
        <time>2013-11-01T02:16:07Z</time>
      </trkpt>
      <trkpt lat="28.40018" lon="83.68947">
        <ele>3179.7</ele>
        <time>2013-11-01T02:16:21Z</time>
      </trkpt>
      <trkpt lat="28.40018" lon="83.68948">
        <ele>3179.22</ele>
        <time>2013-11-01T02:16:36Z</time>
      </trkpt>
      <trkpt lat="28.40018" lon="83.68948">
        <ele>3179.7</ele>
        <time>2013-11-01T02:16:47Z</time>
      </trkpt>
      <trkpt lat="28.40022" lon="83.68946">
        <ele>3180.18</ele>
        <time>2013-11-01T02:16:58Z</time>
      </trkpt>
      <trkpt lat="28.40021" lon="83.68947">
        <ele>3175.85</ele>
        <time>2013-11-01T02:17:12Z</time>
      </trkpt>
      <trkpt lat="28.40021" lon="83.68947">
        <ele>3180.66</ele>
        <time>2013-11-01T02:17:13Z</time>
      </trkpt>
      <trkpt lat="28.40021" lon="83.68947">
        <ele>3176.81</ele>
        <time>2013-11-01T02:17:15Z</time>
      </trkpt>
      <trkpt lat="28.40021" lon="83.68947">
        <ele>3182.58</ele>
        <time>2013-11-01T02:17:16Z</time>
      </trkpt>
      <trkpt lat="28.40019" lon="83.68947">
        <ele>3177.78</ele>
        <time>2013-11-01T02:17:19Z</time>
      </trkpt>
      <trkpt lat="28.40019" lon="83.68947">
        <ele>3180.66</ele>
        <time>2013-11-01T02:17:20Z</time>
      </trkpt>
      <trkpt lat="28.40018" lon="83.68948">
        <ele>3179.7</ele>
        <time>2013-11-01T02:17:44Z</time>
      </trkpt>
      <trkpt lat="28.40018" lon="83.68948">
        <ele>3180.18</ele>
        <time>2013-11-01T02:18:06Z</time>
      </trkpt>
      <trkpt lat="28.40018" lon="83.68949">
        <ele>3179.22</ele>
        <time>2013-11-01T02:18:11Z</time>
      </trkpt>
      <trkpt lat="28.40314" lon="83.70004">
        <ele>2844.2</ele>
        <time>2013-11-01T04:08:36Z</time>
      </trkpt>
      <trkpt lat="28.40315" lon="83.7">
        <ele>2847.08</ele>
        <time>2013-11-01T04:09:02Z</time>
      </trkpt>
      <trkpt lat="28.40315" lon="83.70002">
        <ele>2850.45</ele>
        <time>2013-11-01T04:09:11Z</time>
      </trkpt>
      <trkpt lat="28.40315" lon="83.7">
        <ele>2853.33</ele>
        <time>2013-11-01T04:09:18Z</time>
      </trkpt>
      <trkpt lat="28.40315" lon="83.7">
        <ele>2856.69</ele>
        <time>2013-11-01T04:09:26Z</time>
      </trkpt>
      <trkpt lat="28.40317" lon="83.70007">
        <ele>2860.06</ele>
        <time>2013-11-01T04:09:38Z</time>
      </trkpt>
      <trkpt lat="28.40318" lon="83.70007">
        <ele>2862.94</ele>
        <time>2013-11-01T04:09:50Z</time>
      </trkpt>
      <trkpt lat="28.40314" lon="83.69999">
        <ele>2863.42</ele>
        <time>2013-11-01T04:10:17Z</time>
      </trkpt>
      <trkpt lat="28.40314" lon="83.69998">
        <ele>2863.42</ele>
        <time>2013-11-01T04:10:46Z</time>
      </trkpt>
      <trkpt lat="28.40314" lon="83.69997">
        <ele>2862.94</ele>
        <time>2013-11-01T04:11:12Z</time>
      </trkpt>
      <trkpt lat="28.40314" lon="83.69997">
        <ele>2861.98</ele>
        <time>2013-11-01T04:11:29Z</time>
      </trkpt>
      <trkpt lat="28.40307" lon="83.69987">
        <ele>2810.07</ele>
        <time>2013-11-02T01:57:14Z</time>
      </trkpt>
      <trkpt lat="28.40307" lon="83.69986">
        <ele>2810.07</ele>
        <time>2013-11-02T01:57:15Z</time>
      </trkpt>
      <trkpt lat="28.40318" lon="83.69979">
        <ele>2809.59</ele>
        <time>2013-11-02T01:57:34Z</time>
      </trkpt>
      <trkpt lat="28.40313" lon="83.69976">
        <ele>2809.59</ele>
        <time>2013-11-02T01:57:55Z</time>
      </trkpt>
      <trkpt lat="28.40326" lon="83.69984">
        <ele>2810.07</ele>
        <time>2013-11-02T01:58:10Z</time>
      </trkpt>
      <trkpt lat="28.40321" lon="83.69981">
        <ele>2809.59</ele>
        <time>2013-11-02T01:58:27Z</time>
      </trkpt>
      <trkpt lat="28.40322" lon="83.69984">
        <ele>2809.59</ele>
        <time>2013-11-02T01:58:31Z</time>
      </trkpt>
      <trkpt lat="28.40334" lon="83.70003">
        <ele>2809.59</ele>
        <time>2013-11-02T01:58:52Z</time>
      </trkpt>
      <trkpt lat="28.40329" lon="83.69994">
        <ele>2809.59</ele>
        <time>2013-11-02T01:59:10Z</time>
      </trkpt>
      <trkpt lat="28.40317" lon="83.69987">
        <ele>2809.11</ele>
        <time>2013-11-02T01:59:17Z</time>
      </trkpt>
      <trkpt lat="28.40307" lon="83.69984">
        <ele>2809.11</ele>
        <time>2013-11-02T01:59:36Z</time>
      </trkpt>
      <trkpt lat="28.40308" lon="83.69984">
        <ele>2810.55</ele>
        <time>2013-11-02T01:59:41Z</time>
      </trkpt>
      <trkpt lat="28.40308" lon="83.69984">
        <ele>2809.59</ele>
        <time>2013-11-02T01:59:43Z</time>
      </trkpt>
      <trkpt lat="28.4031" lon="83.69979">
        <ele>2809.59</ele>
        <time>2013-11-02T02:00:05Z</time>
      </trkpt>
      <trkpt lat="28.40317" lon="83.69984">
        <ele>2810.07</ele>
        <time>2013-11-02T02:00:25Z</time>
      </trkpt>
      <trkpt lat="28.40318" lon="83.69978">
        <ele>2810.07</ele>
        <time>2013-11-02T02:00:41Z</time>
      </trkpt>
      <trkpt lat="28.40316" lon="83.69976">
        <ele>2810.07</ele>
        <time>2013-11-02T02:00:44Z</time>
      </trkpt>
      <trkpt lat="28.40314" lon="83.6997">
        <ele>2810.07</ele>
        <time>2013-11-02T02:01:05Z</time>
      </trkpt>
      <trkpt lat="28.4031" lon="83.69985">
        <ele>2809.11</ele>
        <time>2013-11-02T02:01:24Z</time>
      </trkpt>
      <trkpt lat="28.40308" lon="83.69987">
        <ele>2812.96</ele>
        <time>2013-11-02T02:01:40Z</time>
      </trkpt>
      <trkpt lat="28.40308" lon="83.69987">
        <ele>2815.84</ele>
        <time>2013-11-02T02:01:44Z</time>
      </trkpt>
      <trkpt lat="28.40308" lon="83.69987">
        <ele>2819.2</ele>
        <time>2013-11-02T02:01:47Z</time>
      </trkpt>
      <trkpt lat="28.40308" lon="83.69987">
        <ele>2822.57</ele>
        <time>2013-11-02T02:01:52Z</time>
      </trkpt>
      <trkpt lat="28.40305" lon="83.69989">
        <ele>2825.45</ele>
        <time>2013-11-02T02:01:56Z</time>
      </trkpt>
      <trkpt lat="28.40303" lon="83.69995">
        <ele>2827.37</ele>
        <time>2013-11-02T02:02:02Z</time>
      </trkpt>
      <trkpt lat="28.40304" lon="83.69997">
        <ele>2827.37</ele>
        <time>2013-11-02T02:02:04Z</time>
      </trkpt>
      <trkpt lat="28.40317" lon="83.7001">
        <ele>2827.85</ele>
        <time>2013-11-02T02:02:13Z</time>
      </trkpt>
      <trkpt lat="28.40308" lon="83.70008">
        <ele>2827.85</ele>
        <time>2013-11-02T02:02:25Z</time>
      </trkpt>
      <trkpt lat="28.40308" lon="83.70009">
        <ele>2827.37</ele>
        <time>2013-11-02T02:02:27Z</time>
      </trkpt>
      <trkpt lat="28.40306" lon="83.7001">
        <ele>2831.7</ele>
        <time>2013-11-02T02:02:32Z</time>
      </trkpt>
      <trkpt lat="28.40306" lon="83.7001">
        <ele>2832.18</ele>
        <time>2013-11-02T02:02:33Z</time>
      </trkpt>
      <trkpt lat="28.40306" lon="83.7001">
        <ele>2833.14</ele>
        <time>2013-11-02T02:02:35Z</time>
      </trkpt>
      <trkpt lat="28.40306" lon="83.70009">
        <ele>2837.95</ele>
        <time>2013-11-02T02:02:38Z</time>
      </trkpt>
      <trkpt lat="28.40305" lon="83.70009">
        <ele>2836.99</ele>
        <time>2013-11-02T02:02:39Z</time>
      </trkpt>
      <trkpt lat="28.40305" lon="83.70009">
        <ele>2841.31</ele>
        <time>2013-11-02T02:02:45Z</time>
      </trkpt>
      <trkpt lat="28.40305" lon="83.70009">
        <ele>2840.35</ele>
        <time>2013-11-02T02:02:46Z</time>
      </trkpt>
      <trkpt lat="28.40305" lon="83.70009">
        <ele>2841.79</ele>
        <time>2013-11-02T02:02:49Z</time>
      </trkpt>
      <trkpt lat="28.40304" lon="83.70009">
        <ele>2844.2</ele>
        <time>2013-11-02T02:02:55Z</time>
      </trkpt>
      <trkpt lat="28.40303" lon="83.7001">
        <ele>2848.04</ele>
        <time>2013-11-02T02:03:05Z</time>
      </trkpt>
      <trkpt lat="28.40302" lon="83.7001">
        <ele>2850.93</ele>
        <time>2013-11-02T02:03:19Z</time>
      </trkpt>
      <trkpt lat="28.40302" lon="83.7001">
        <ele>2852.85</ele>
        <time>2013-11-02T02:03:26Z</time>
      </trkpt>
      <trkpt lat="28.403" lon="83.70007">
        <ele>2853.81</ele>
        <time>2013-11-02T02:03:36Z</time>
      </trkpt>
      <trkpt lat="28.403" lon="83.70008">
        <ele>2854.29</ele>
        <time>2013-11-02T02:03:41Z</time>
      </trkpt>
      <trkpt lat="28.40298" lon="83.70009">
        <ele>2853.81</ele>
        <time>2013-11-02T02:03:43Z</time>
      </trkpt>
      <trkpt lat="28.40292" lon="83.70006">
        <ele>2855.73</ele>
        <time>2013-11-02T02:03:50Z</time>
      </trkpt>
      <trkpt lat="28.40284" lon="83.69998">
        <ele>2857.66</ele>
        <time>2013-11-02T02:04:01Z</time>
      </trkpt>
      <trkpt lat="28.40283" lon="83.69996">
        <ele>2859.1</ele>
        <time>2013-11-02T02:04:06Z</time>
      </trkpt>
      <trkpt lat="28.40282" lon="83.69999">
        <ele>2858.14</ele>
        <time>2013-11-02T02:04:10Z</time>
      </trkpt>
      <trkpt lat="28.40281" lon="83.70005">
        <ele>2858.62</ele>
        <time>2013-11-02T02:04:19Z</time>
      </trkpt>
      <trkpt lat="28.40279" lon="83.70007">
        <ele>2858.14</ele>
        <time>2013-11-02T02:04:21Z</time>
      </trkpt>
      <trkpt lat="28.40272" lon="83.70022">
        <ele>2858.14</ele>
        <time>2013-11-02T02:04:34Z</time>
      </trkpt>
      <trkpt lat="28.40271" lon="83.70025">
        <ele>2858.14</ele>
        <time>2013-11-02T02:04:38Z</time>
      </trkpt>
      <trkpt lat="28.40266" lon="83.70027">
        <ele>2859.1</ele>
        <time>2013-11-02T02:04:49Z</time>
      </trkpt>
      <trkpt lat="28.40266" lon="83.70027">
        <ele>2858.62</ele>
        <time>2013-11-02T02:04:56Z</time>
      </trkpt>
      <trkpt lat="28.40261" lon="83.70024">
        <ele>2859.1</ele>
        <time>2013-11-02T02:05:07Z</time>
      </trkpt>
      <trkpt lat="28.40257" lon="83.70022">
        <ele>2859.58</ele>
        <time>2013-11-02T02:05:20Z</time>
      </trkpt>
      <trkpt lat="28.40254" lon="83.70027">
        <ele>2861.02</ele>
        <time>2013-11-02T02:05:33Z</time>
      </trkpt>
      <trkpt lat="28.40254" lon="83.70031">
        <ele>2860.54</ele>
        <time>2013-11-02T02:05:36Z</time>
      </trkpt>
      <trkpt lat="28.40255" lon="83.7004">
        <ele>2860.06</ele>
        <time>2013-11-02T02:05:42Z</time>
      </trkpt>
      <trkpt lat="28.40256" lon="83.70044">
        <ele>2860.06</ele>
        <time>2013-11-02T02:05:45Z</time>
      </trkpt>
      <trkpt lat="28.40256" lon="83.7005">
        <ele>2860.06</ele>
        <time>2013-11-02T02:05:50Z</time>
      </trkpt>
      <trkpt lat="28.40254" lon="83.70059">
        <ele>2861.02</ele>
        <time>2013-11-02T02:05:58Z</time>
      </trkpt>
      <trkpt lat="28.40253" lon="83.70063">
        <ele>2860.54</ele>
        <time>2013-11-02T02:06:01Z</time>
      </trkpt>
      <trkpt lat="28.40254" lon="83.70066">
        <ele>2861.02</ele>
        <time>2013-11-02T02:06:03Z</time>
      </trkpt>
      <trkpt lat="28.4025" lon="83.70084">
        <ele>2860.54</ele>
        <time>2013-11-02T02:06:16Z</time>
      </trkpt>
      <trkpt lat="28.40244" lon="83.70095">
        <ele>2859.58</ele>
        <time>2013-11-02T02:06:28Z</time>
      </trkpt>
      <trkpt lat="28.40244" lon="83.70097">
        <ele>2859.58</ele>
        <time>2013-11-02T02:06:33Z</time>
      </trkpt>
      <trkpt lat="28.4024" lon="83.70101">
        <ele>2859.58</ele>
        <time>2013-11-02T02:06:43Z</time>
      </trkpt>
      <trkpt lat="28.40238" lon="83.70104">
        <ele>2859.58</ele>
        <time>2013-11-02T02:06:48Z</time>
      </trkpt>
      <trkpt lat="28.40236" lon="83.70109">
        <ele>2859.58</ele>
        <time>2013-11-02T02:06:51Z</time>
      </trkpt>
      <trkpt lat="28.40229" lon="83.70127">
        <ele>2859.1</ele>
        <time>2013-11-02T02:07:07Z</time>
      </trkpt>
      <trkpt lat="28.40223" lon="83.70134">
        <ele>2860.06</ele>
        <time>2013-11-02T02:07:19Z</time>
      </trkpt>
      <trkpt lat="28.40221" lon="83.70142">
        <ele>2859.1</ele>
        <time>2013-11-02T02:07:26Z</time>
      </trkpt>
      <trkpt lat="28.40221" lon="83.70145">
        <ele>2859.1</ele>
        <time>2013-11-02T02:07:28Z</time>
      </trkpt>
      <trkpt lat="28.40219" lon="83.70151">
        <ele>2858.14</ele>
        <time>2013-11-02T02:07:33Z</time>
      </trkpt>
      <trkpt lat="28.40215" lon="83.70156">
        <ele>2857.66</ele>
        <time>2013-11-02T02:07:37Z</time>
      </trkpt>
      <trkpt lat="28.40208" lon="83.70171">
        <ele>2856.69</ele>
        <time>2013-11-02T02:07:49Z</time>
      </trkpt>
      <trkpt lat="28.40204" lon="83.70184">
        <ele>2858.62</ele>
        <time>2013-11-02T02:08:03Z</time>
      </trkpt>
      <trkpt lat="28.40199" lon="83.70195">
        <ele>2860.06</ele>
        <time>2013-11-02T02:08:16Z</time>
      </trkpt>
      <trkpt lat="28.40198" lon="83.702">
        <ele>2860.54</ele>
        <time>2013-11-02T02:08:20Z</time>
      </trkpt>
      <trkpt lat="28.40193" lon="83.70215">
        <ele>2861.5</ele>
        <time>2013-11-02T02:08:35Z</time>
      </trkpt>
      <trkpt lat="28.40192" lon="83.7022">
        <ele>2862.46</ele>
        <time>2013-11-02T02:08:47Z</time>
      </trkpt>
      <trkpt lat="28.40192" lon="83.7022">
        <ele>2862.94</ele>
        <time>2013-11-02T02:08:50Z</time>
      </trkpt>
      <trkpt lat="28.40188" lon="83.70223">
        <ele>2863.42</ele>
        <time>2013-11-02T02:08:55Z</time>
      </trkpt>
      <trkpt lat="28.40179" lon="83.70231">
        <ele>2865.35</ele>
        <time>2013-11-02T02:09:11Z</time>
      </trkpt>
      <trkpt lat="28.40158" lon="83.70241">
        <ele>2866.31</ele>
        <time>2013-11-02T02:09:26Z</time>
      </trkpt>
      <trkpt lat="28.40156" lon="83.70242">
        <ele>2866.79</ele>
        <time>2013-11-02T02:09:28Z</time>
      </trkpt>
      <trkpt lat="28.4015" lon="83.70244">
        <ele>2866.79</ele>
        <time>2013-11-02T02:09:33Z</time>
      </trkpt>
      <trkpt lat="28.40146" lon="83.70246">
        <ele>2866.79</ele>
        <time>2013-11-02T02:09:37Z</time>
      </trkpt>
      <trkpt lat="28.40144" lon="83.70251">
        <ele>2866.79</ele>
        <time>2013-11-02T02:09:40Z</time>
      </trkpt>
      <trkpt lat="28.40139" lon="83.70257">
        <ele>2868.71</ele>
        <time>2013-11-02T02:09:46Z</time>
      </trkpt>
      <trkpt lat="28.40129" lon="83.70267">
        <ele>2869.67</ele>
        <time>2013-11-02T02:10:01Z</time>
      </trkpt>
      <trkpt lat="28.40126" lon="83.70271">
        <ele>2869.67</ele>
        <time>2013-11-02T02:10:14Z</time>
      </trkpt>
      <trkpt lat="28.40126" lon="83.70276">
        <ele>2870.63</ele>
        <time>2013-11-02T02:10:32Z</time>
      </trkpt>
      <trkpt lat="28.40128" lon="83.70284">
        <ele>2873.04</ele>
        <time>2013-11-02T02:10:46Z</time>
      </trkpt>
      <trkpt lat="28.40133" lon="83.7029">
        <ele>2874</ele>
        <time>2013-11-02T02:10:58Z</time>
      </trkpt>
      <trkpt lat="28.40134" lon="83.70294">
        <ele>2874</ele>
        <time>2013-11-02T02:11:01Z</time>
      </trkpt>
      <trkpt lat="28.40136" lon="83.70304">
        <ele>2874</ele>
        <time>2013-11-02T02:11:09Z</time>
      </trkpt>
      <trkpt lat="28.40137" lon="83.70308">
        <ele>2874.96</ele>
        <time>2013-11-02T02:11:14Z</time>
      </trkpt>
      <trkpt lat="28.40139" lon="83.70318">
        <ele>2876.4</ele>
        <time>2013-11-02T02:11:26Z</time>
      </trkpt>
      <trkpt lat="28.40144" lon="83.70331">
        <ele>2876.88</ele>
        <time>2013-11-02T02:11:41Z</time>
      </trkpt>
      <trkpt lat="28.40145" lon="83.70334">
        <ele>2876.88</ele>
        <time>2013-11-02T02:11:45Z</time>
      </trkpt>
      <trkpt lat="28.40151" lon="83.70348">
        <ele>2878.32</ele>
        <time>2013-11-02T02:12:01Z</time>
      </trkpt>
      <trkpt lat="28.40153" lon="83.70358">
        <ele>2879.77</ele>
        <time>2013-11-02T02:12:15Z</time>
      </trkpt>
      <trkpt lat="28.40157" lon="83.70372">
        <ele>2881.21</ele>
        <time>2013-11-02T02:12:32Z</time>
      </trkpt>
      <trkpt lat="28.40157" lon="83.70389">
        <ele>2883.13</ele>
        <time>2013-11-02T02:12:48Z</time>
      </trkpt>
      <trkpt lat="28.40164" lon="83.70413">
        <ele>2885.53</ele>
        <time>2013-11-02T02:13:07Z</time>
      </trkpt>
      <trkpt lat="28.40163" lon="83.70421">
        <ele>2886.98</ele>
        <time>2013-11-02T02:13:22Z</time>
      </trkpt>
      <trkpt lat="28.40164" lon="83.70433">
        <ele>2888.42</ele>
        <time>2013-11-02T02:13:36Z</time>
      </trkpt>
      <trkpt lat="28.40165" lon="83.70444">
        <ele>2890.82</ele>
        <time>2013-11-02T02:13:52Z</time>
      </trkpt>
      <trkpt lat="28.40166" lon="83.70458">
        <ele>2893.23</ele>
        <time>2013-11-02T02:14:12Z</time>
      </trkpt>
      <trkpt lat="28.40166" lon="83.70469">
        <ele>2895.15</ele>
        <time>2013-11-02T02:14:26Z</time>
      </trkpt>
      <trkpt lat="28.40167" lon="83.7048">
        <ele>2898.51</ele>
        <time>2013-11-02T02:14:46Z</time>
      </trkpt>
      <trkpt lat="28.40164" lon="83.70491">
        <ele>2900.44</ele>
        <time>2013-11-02T02:15:01Z</time>
      </trkpt>
      <trkpt lat="28.40157" lon="83.705">
        <ele>2903.8</ele>
        <time>2013-11-02T02:15:21Z</time>
      </trkpt>
      <trkpt lat="28.40147" lon="83.70509">
        <ele>2905.72</ele>
        <time>2013-11-02T02:15:36Z</time>
      </trkpt>
      <trkpt lat="28.40144" lon="83.70516">
        <ele>2907.65</ele>
        <time>2013-11-02T02:15:52Z</time>
      </trkpt>
      <trkpt lat="28.40138" lon="83.70524">
        <ele>2910.05</ele>
        <time>2013-11-02T02:16:10Z</time>
      </trkpt>
      <trkpt lat="28.40128" lon="83.7053">
        <ele>2912.45</ele>
        <time>2013-11-02T02:16:26Z</time>
      </trkpt>
      <trkpt lat="28.40125" lon="83.70538">
        <ele>2915.34</ele>
        <time>2013-11-02T02:16:42Z</time>
      </trkpt>
      <trkpt lat="28.40123" lon="83.70542">
        <ele>2917.26</ele>
        <time>2013-11-02T02:16:56Z</time>
      </trkpt>
      <trkpt lat="28.40121" lon="83.70546">
        <ele>2918.7</ele>
        <time>2013-11-02T02:17:13Z</time>
      </trkpt>
      <trkpt lat="28.40118" lon="83.70553">
        <ele>2921.1</ele>
        <time>2013-11-02T02:17:26Z</time>
      </trkpt>
      <trkpt lat="28.40114" lon="83.70557">
        <ele>2924.47</ele>
        <time>2013-11-02T02:17:38Z</time>
      </trkpt>
      <trkpt lat="28.40106" lon="83.70563">
        <ele>2926.87</ele>
        <time>2013-11-02T02:17:53Z</time>
      </trkpt>
      <trkpt lat="28.40101" lon="83.70568">
        <ele>2929.27</ele>
        <time>2013-11-02T02:18:06Z</time>
      </trkpt>
      <trkpt lat="28.40094" lon="83.70572">
        <ele>2932.16</ele>
        <time>2013-11-02T02:18:22Z</time>
      </trkpt>
      <trkpt lat="28.40087" lon="83.70574">
        <ele>2934.56</ele>
        <time>2013-11-02T02:18:40Z</time>
      </trkpt>
      <trkpt lat="28.4008" lon="83.70578">
        <ele>2936.97</ele>
        <time>2013-11-02T02:18:59Z</time>
      </trkpt>
      <trkpt lat="28.40069" lon="83.70578">
        <ele>2940.33</ele>
        <time>2013-11-02T02:19:18Z</time>
      </trkpt>
      <trkpt lat="28.40063" lon="83.70579">
        <ele>2943.21</ele>
        <time>2013-11-02T02:19:36Z</time>
      </trkpt>
      <trkpt lat="28.40056" lon="83.70579">
        <ele>2945.62</ele>
        <time>2013-11-02T02:19:52Z</time>
      </trkpt>
      <trkpt lat="28.40052" lon="83.7058">
        <ele>2947.54</ele>
        <time>2013-11-02T02:20:06Z</time>
      </trkpt>
      <trkpt lat="28.40039" lon="83.70584">
        <ele>2949.46</ele>
        <time>2013-11-02T02:20:22Z</time>
      </trkpt>
      <trkpt lat="28.4003" lon="83.70586">
        <ele>2950.42</ele>
        <time>2013-11-02T02:20:27Z</time>
      </trkpt>
      <trkpt lat="28.40021" lon="83.7059">
        <ele>2951.87</ele>
        <time>2013-11-02T02:20:36Z</time>
      </trkpt>
      <trkpt lat="28.40013" lon="83.70591">
        <ele>2953.79</ele>
        <time>2013-11-02T02:20:47Z</time>
      </trkpt>
      <trkpt lat="28.40003" lon="83.70594">
        <ele>2955.71</ele>
        <time>2013-11-02T02:21:01Z</time>
      </trkpt>
      <trkpt lat="28.39997" lon="83.70595">
        <ele>2957.15</ele>
        <time>2013-11-02T02:21:15Z</time>
      </trkpt>
      <trkpt lat="28.39997" lon="83.70596">
        <ele>2957.63</ele>
        <time>2013-11-02T02:21:31Z</time>
      </trkpt>
      <trkpt lat="28.39998" lon="83.70593">
        <ele>2957.63</ele>
        <time>2013-11-02T02:21:51Z</time>
      </trkpt>
      <trkpt lat="28.39998" lon="83.70593">
        <ele>2957.63</ele>
        <time>2013-11-02T02:22:13Z</time>
      </trkpt>
      <trkpt lat="28.39999" lon="83.70593">
        <ele>2958.11</ele>
        <time>2013-11-02T02:22:46Z</time>
      </trkpt>
      <trkpt lat="28.39998" lon="83.70593">
        <ele>2957.63</ele>
        <time>2013-11-02T02:23:13Z</time>
      </trkpt>
      <trkpt lat="28.39998" lon="83.70591">
        <ele>2959.56</ele>
        <time>2013-11-02T02:23:30Z</time>
      </trkpt>
      <trkpt lat="28.39997" lon="83.7059">
        <ele>2957.63</ele>
        <time>2013-11-02T02:23:48Z</time>
      </trkpt>
      <trkpt lat="28.39998" lon="83.70591">
        <ele>2958.11</ele>
        <time>2013-11-02T02:24:09Z</time>
      </trkpt>
      <trkpt lat="28.39997" lon="83.70591">
        <ele>2957.63</ele>
        <time>2013-11-02T02:24:32Z</time>
      </trkpt>
      <trkpt lat="28.39996" lon="83.70592">
        <ele>2957.63</ele>
        <time>2013-11-02T02:24:53Z</time>
      </trkpt>
      <trkpt lat="28.3999" lon="83.70593">
        <ele>2960.04</ele>
        <time>2013-11-02T02:25:04Z</time>
      </trkpt>
      <trkpt lat="28.39985" lon="83.70594">
        <ele>2961</ele>
        <time>2013-11-02T02:25:14Z</time>
      </trkpt>
      <trkpt lat="28.39981" lon="83.70597">
        <ele>2961.96</ele>
        <time>2013-11-02T02:25:20Z</time>
      </trkpt>
      <trkpt lat="28.39973" lon="83.70601">
        <ele>2963.4</ele>
        <time>2013-11-02T02:25:31Z</time>
      </trkpt>
      <trkpt lat="28.39965" lon="83.70601">
        <ele>2964.84</ele>
        <time>2013-11-02T02:25:43Z</time>
      </trkpt>
      <trkpt lat="28.39958" lon="83.70604">
        <ele>2965.8</ele>
        <time>2013-11-02T02:25:55Z</time>
      </trkpt>
      <trkpt lat="28.39951" lon="83.70605">
        <ele>2967.25</ele>
        <time>2013-11-02T02:26:08Z</time>
      </trkpt>
      <trkpt lat="28.39947" lon="83.70605">
        <ele>2969.17</ele>
        <time>2013-11-02T02:26:18Z</time>
      </trkpt>
      <trkpt lat="28.39942" lon="83.70605">
        <ele>2971.57</ele>
        <time>2013-11-02T02:26:30Z</time>
      </trkpt>
      <trkpt lat="28.39933" lon="83.70604">
        <ele>2973.5</ele>
        <time>2013-11-02T02:26:45Z</time>
      </trkpt>
      <trkpt lat="28.39929" lon="83.70603">
        <ele>2975.9</ele>
        <time>2013-11-02T02:26:59Z</time>
      </trkpt>
      <trkpt lat="28.39924" lon="83.70601">
        <ele>2977.82</ele>
        <time>2013-11-02T02:27:14Z</time>
      </trkpt>
      <trkpt lat="28.39921" lon="83.706">
        <ele>2979.74</ele>
        <time>2013-11-02T02:27:28Z</time>
      </trkpt>
      <trkpt lat="28.39913" lon="83.70601">
        <ele>2983.11</ele>
        <time>2013-11-02T02:27:45Z</time>
      </trkpt>
      <trkpt lat="28.39904" lon="83.70594">
        <ele>2984.55</ele>
        <time>2013-11-02T02:27:59Z</time>
      </trkpt>
      <trkpt lat="28.39898" lon="83.70588">
        <ele>2987.43</ele>
        <time>2013-11-02T02:28:12Z</time>
      </trkpt>
      <trkpt lat="28.39891" lon="83.70589">
        <ele>2989.84</ele>
        <time>2013-11-02T02:28:23Z</time>
      </trkpt>
      <trkpt lat="28.39884" lon="83.70589">
        <ele>2991.76</ele>
        <time>2013-11-02T02:28:37Z</time>
      </trkpt>
      <trkpt lat="28.39879" lon="83.7059">
        <ele>2993.68</ele>
        <time>2013-11-02T02:28:49Z</time>
      </trkpt>
      <trkpt lat="28.39872" lon="83.70589">
        <ele>2996.57</ele>
        <time>2013-11-02T02:29:02Z</time>
      </trkpt>
      <trkpt lat="28.39869" lon="83.70588">
        <ele>2997.05</ele>
        <time>2013-11-02T02:29:15Z</time>
      </trkpt>
      <trkpt lat="28.3987" lon="83.70585">
        <ele>2997.05</ele>
        <time>2013-11-02T02:29:31Z</time>
      </trkpt>
      <trkpt lat="28.3987" lon="83.70584">
        <ele>2997.53</ele>
        <time>2013-11-02T02:29:55Z</time>
      </trkpt>
      <trkpt lat="28.39871" lon="83.70586">
        <ele>2997.05</ele>
        <time>2013-11-02T02:30:07Z</time>
      </trkpt>
      <trkpt lat="28.3987" lon="83.70585">
        <ele>2997.05</ele>
        <time>2013-11-02T02:30:25Z</time>
      </trkpt>
      <trkpt lat="28.3987" lon="83.70588">
        <ele>2997.53</ele>
        <time>2013-11-02T02:30:39Z</time>
      </trkpt>
      <trkpt lat="28.39869" lon="83.70588">
        <ele>2998.01</ele>
        <time>2013-11-02T02:30:54Z</time>
      </trkpt>
      <trkpt lat="28.39865" lon="83.70595">
        <ele>2998.97</ele>
        <time>2013-11-02T02:31:02Z</time>
      </trkpt>
      <trkpt lat="28.39862" lon="83.70602">
        <ele>2999.93</ele>
        <time>2013-11-02T02:31:17Z</time>
      </trkpt>
      <trkpt lat="28.39864" lon="83.70612">
        <ele>3001.37</ele>
        <time>2013-11-02T02:31:30Z</time>
      </trkpt>
      <trkpt lat="28.39866" lon="83.70624">
        <ele>3003.3</ele>
        <time>2013-11-02T02:31:47Z</time>
      </trkpt>
      <trkpt lat="28.39863" lon="83.7063">
        <ele>3005.22</ele>
        <time>2013-11-02T02:32:01Z</time>
      </trkpt>
      <trkpt lat="28.39862" lon="83.70639">
        <ele>3007.62</ele>
        <time>2013-11-02T02:32:16Z</time>
      </trkpt>
      <trkpt lat="28.39861" lon="83.70647">
        <ele>3010.03</ele>
        <time>2013-11-02T02:32:31Z</time>
      </trkpt>
      <trkpt lat="28.39859" lon="83.70655">
        <ele>3011.95</ele>
        <time>2013-11-02T02:32:43Z</time>
      </trkpt>
      <trkpt lat="28.39854" lon="83.70664">
        <ele>3014.83</ele>
        <time>2013-11-02T02:32:57Z</time>
      </trkpt>
      <trkpt lat="28.39846" lon="83.70665">
        <ele>3015.31</ele>
        <time>2013-11-02T02:33:07Z</time>
      </trkpt>
      <trkpt lat="28.39841" lon="83.70671">
        <ele>3015.79</ele>
        <time>2013-11-02T02:33:17Z</time>
      </trkpt>
      <trkpt lat="28.39837" lon="83.70682">
        <ele>3017.23</ele>
        <time>2013-11-02T02:33:28Z</time>
      </trkpt>
      <trkpt lat="28.39829" lon="83.70688">
        <ele>3018.68</ele>
        <time>2013-11-02T02:33:38Z</time>
      </trkpt>
      <trkpt lat="28.39829" lon="83.70691">
        <ele>3019.16</ele>
        <time>2013-11-02T02:33:41Z</time>
      </trkpt>
      <trkpt lat="28.39822" lon="83.70704">
        <ele>3020.6</ele>
        <time>2013-11-02T02:33:55Z</time>
      </trkpt>
      <trkpt lat="28.39818" lon="83.70716">
        <ele>3021.08</ele>
        <time>2013-11-02T02:34:08Z</time>
      </trkpt>
      <trkpt lat="28.39816" lon="83.70719">
        <ele>3020.6</ele>
        <time>2013-11-02T02:34:11Z</time>
      </trkpt>
      <trkpt lat="28.39813" lon="83.70725">
        <ele>3021.08</ele>
        <time>2013-11-02T02:34:17Z</time>
      </trkpt>
      <trkpt lat="28.39807" lon="83.70731">
        <ele>3022.04</ele>
        <time>2013-11-02T02:34:25Z</time>
      </trkpt>
      <trkpt lat="28.39805" lon="83.70734">
        <ele>3022.52</ele>
        <time>2013-11-02T02:34:28Z</time>
      </trkpt>
      <trkpt lat="28.39801" lon="83.7074">
        <ele>3023.96</ele>
        <time>2013-11-02T02:34:37Z</time>
      </trkpt>
      <trkpt lat="28.39797" lon="83.70746">
        <ele>3024.44</ele>
        <time>2013-11-02T02:34:45Z</time>
      </trkpt>
      <trkpt lat="28.39792" lon="83.70751">
        <ele>3025.89</ele>
        <time>2013-11-02T02:34:55Z</time>
      </trkpt>
      <trkpt lat="28.3979" lon="83.70753">
        <ele>3026.85</ele>
        <time>2013-11-02T02:35:14Z</time>
      </trkpt>
      <trkpt lat="28.39786" lon="83.70759">
        <ele>3027.81</ele>
        <time>2013-11-02T02:35:30Z</time>
      </trkpt>
      <trkpt lat="28.39777" lon="83.70766">
        <ele>3029.73</ele>
        <time>2013-11-02T02:35:45Z</time>
      </trkpt>
      <trkpt lat="28.39775" lon="83.70771">
        <ele>3031.17</ele>
        <time>2013-11-02T02:35:52Z</time>
      </trkpt>
      <trkpt lat="28.39769" lon="83.70777">
        <ele>3033.58</ele>
        <time>2013-11-02T02:36:07Z</time>
      </trkpt>
      <trkpt lat="28.39762" lon="83.70786">
        <ele>3035.5</ele>
        <time>2013-11-02T02:36:22Z</time>
      </trkpt>
      <trkpt lat="28.39754" lon="83.70792">
        <ele>3037.42</ele>
        <time>2013-11-02T02:36:37Z</time>
      </trkpt>
      <trkpt lat="28.3975" lon="83.70802">
        <ele>3040.31</ele>
        <time>2013-11-02T02:36:51Z</time>
      </trkpt>
      <trkpt lat="28.39749" lon="83.70812">
        <ele>3042.23</ele>
        <time>2013-11-02T02:37:06Z</time>
      </trkpt>
      <trkpt lat="28.39741" lon="83.7081">
        <ele>3044.63</ele>
        <time>2013-11-02T02:37:22Z</time>
      </trkpt>
      <trkpt lat="28.3974" lon="83.70814">
        <ele>3046.56</ele>
        <time>2013-11-02T02:37:37Z</time>
      </trkpt>
      <trkpt lat="28.39739" lon="83.70829">
        <ele>3048</ele>
        <time>2013-11-02T02:37:51Z</time>
      </trkpt>
      <trkpt lat="28.39732" lon="83.70835">
        <ele>3050.4</ele>
        <time>2013-11-02T02:38:04Z</time>
      </trkpt>
      <trkpt lat="28.39724" lon="83.70839">
        <ele>3051.84</ele>
        <time>2013-11-02T02:38:16Z</time>
      </trkpt>
      <trkpt lat="28.3972" lon="83.70845">
        <ele>3054.25</ele>
        <time>2013-11-02T02:38:28Z</time>
      </trkpt>
      <trkpt lat="28.39719" lon="83.70846">
        <ele>3055.69</ele>
        <time>2013-11-02T02:38:38Z</time>
      </trkpt>
      <trkpt lat="28.39718" lon="83.70847">
        <ele>3055.69</ele>
        <time>2013-11-02T02:38:53Z</time>
      </trkpt>
      <trkpt lat="28.39718" lon="83.70847">
        <ele>3055.21</ele>
        <time>2013-11-02T02:39:11Z</time>
      </trkpt>
      <trkpt lat="28.39718" lon="83.70848">
        <ele>3055.69</ele>
        <time>2013-11-02T02:39:36Z</time>
      </trkpt>
      <trkpt lat="28.39718" lon="83.70848">
        <ele>3056.65</ele>
        <time>2013-11-02T02:39:58Z</time>
      </trkpt>
      <trkpt lat="28.39719" lon="83.70848">
        <ele>3056.65</ele>
        <time>2013-11-02T02:40:21Z</time>
      </trkpt>
      <trkpt lat="28.39718" lon="83.70848">
        <ele>3055.69</ele>
        <time>2013-11-02T02:40:37Z</time>
      </trkpt>
      <trkpt lat="28.39718" lon="83.70849">
        <ele>3056.17</ele>
        <time>2013-11-02T02:40:53Z</time>
      </trkpt>
      <trkpt lat="28.39719" lon="83.70849">
        <ele>3056.17</ele>
        <time>2013-11-02T02:41:11Z</time>
      </trkpt>
      <trkpt lat="28.39719" lon="83.70849">
        <ele>3056.65</ele>
        <time>2013-11-02T02:41:30Z</time>
      </trkpt>
      <trkpt lat="28.39719" lon="83.70849">
        <ele>3056.17</ele>
        <time>2013-11-02T02:41:54Z</time>
      </trkpt>
      <trkpt lat="28.39719" lon="83.70849">
        <ele>3056.65</ele>
        <time>2013-11-02T02:42:18Z</time>
      </trkpt>
      <trkpt lat="28.3972" lon="83.70849">
        <ele>3056.65</ele>
        <time>2013-11-02T02:42:40Z</time>
      </trkpt>
      <trkpt lat="28.39719" lon="83.70848">
        <ele>3056.65</ele>
        <time>2013-11-02T02:43:00Z</time>
      </trkpt>
      <trkpt lat="28.39719" lon="83.7085">
        <ele>3056.65</ele>
        <time>2013-11-02T02:43:13Z</time>
      </trkpt>
      <trkpt lat="28.39718" lon="83.7085">
        <ele>3056.65</ele>
        <time>2013-11-02T02:43:20Z</time>
      </trkpt>
      <trkpt lat="28.39714" lon="83.70854">
        <ele>3057.61</ele>
        <time>2013-11-02T02:43:36Z</time>
      </trkpt>
      <trkpt lat="28.39712" lon="83.70857">
        <ele>3058.09</ele>
        <time>2013-11-02T02:43:43Z</time>
      </trkpt>
      <trkpt lat="28.3971" lon="83.70874">
        <ele>3060.01</ele>
        <time>2013-11-02T02:43:57Z</time>
      </trkpt>
      <trkpt lat="28.39708" lon="83.70882">
        <ele>3061.46</ele>
        <time>2013-11-02T02:44:13Z</time>
      </trkpt>
      <trkpt lat="28.39707" lon="83.70887">
        <ele>3061.94</ele>
        <time>2013-11-02T02:44:18Z</time>
      </trkpt>
      <trkpt lat="28.39702" lon="83.70902">
        <ele>3062.42</ele>
        <time>2013-11-02T02:44:28Z</time>
      </trkpt>
      <trkpt lat="28.39695" lon="83.70915">
        <ele>3062.9</ele>
        <time>2013-11-02T02:44:36Z</time>
      </trkpt>
      <trkpt lat="28.39685" lon="83.70931">
        <ele>3064.34</ele>
        <time>2013-11-02T02:44:51Z</time>
      </trkpt>
      <trkpt lat="28.39677" lon="83.70941">
        <ele>3066.26</ele>
        <time>2013-11-02T02:45:04Z</time>
      </trkpt>
      <trkpt lat="28.39673" lon="83.70948">
        <ele>3067.7</ele>
        <time>2013-11-02T02:45:13Z</time>
      </trkpt>
      <trkpt lat="28.39667" lon="83.7096">
        <ele>3068.67</ele>
        <time>2013-11-02T02:45:25Z</time>
      </trkpt>
      <trkpt lat="28.39666" lon="83.70966">
        <ele>3071.07</ele>
        <time>2013-11-02T02:45:32Z</time>
      </trkpt>
      <trkpt lat="28.39663" lon="83.70977">
        <ele>3071.07</ele>
        <time>2013-11-02T02:45:42Z</time>
      </trkpt>
      <trkpt lat="28.39661" lon="83.70981">
        <ele>3072.03</ele>
        <time>2013-11-02T02:45:46Z</time>
      </trkpt>
      <trkpt lat="28.39658" lon="83.70991">
        <ele>3073.47</ele>
        <time>2013-11-02T02:45:58Z</time>
      </trkpt>
      <trkpt lat="28.39658" lon="83.71001">
        <ele>3076.36</ele>
        <time>2013-11-02T02:46:12Z</time>
      </trkpt>
      <trkpt lat="28.39664" lon="83.71003">
        <ele>3077.8</ele>
        <time>2013-11-02T02:46:23Z</time>
      </trkpt>
      <trkpt lat="28.39665" lon="83.71006">
        <ele>3080.68</ele>
        <time>2013-11-02T02:46:35Z</time>
      </trkpt>
      <trkpt lat="28.3967" lon="83.71018">
        <ele>3083.09</ele>
        <time>2013-11-02T02:46:51Z</time>
      </trkpt>
      <trkpt lat="28.39669" lon="83.71025">
        <ele>3085.97</ele>
        <time>2013-11-02T02:47:06Z</time>
      </trkpt>
      <trkpt lat="28.39668" lon="83.71037">
        <ele>3086.93</ele>
        <time>2013-11-02T02:47:20Z</time>
      </trkpt>
      <trkpt lat="28.39664" lon="83.71052">
        <ele>3089.33</ele>
        <time>2013-11-02T02:47:33Z</time>
      </trkpt>
      <trkpt lat="28.39662" lon="83.71057">
        <ele>3091.26</ele>
        <time>2013-11-02T02:47:47Z</time>
      </trkpt>
      <trkpt lat="28.39658" lon="83.71065">
        <ele>3094.14</ele>
        <time>2013-11-02T02:48:04Z</time>
      </trkpt>
      <trkpt lat="28.39649" lon="83.7108">
        <ele>3095.58</ele>
        <time>2013-11-02T02:48:19Z</time>
      </trkpt>
      <trkpt lat="28.39649" lon="83.71089">
        <ele>3097.02</ele>
        <time>2013-11-02T02:48:30Z</time>
      </trkpt>
      <trkpt lat="28.39645" lon="83.71093">
        <ele>3099.43</ele>
        <time>2013-11-02T02:48:44Z</time>
      </trkpt>
      <trkpt lat="28.39642" lon="83.71095">
        <ele>3101.35</ele>
        <time>2013-11-02T02:48:56Z</time>
      </trkpt>
      <trkpt lat="28.39639" lon="83.71098">
        <ele>3103.75</ele>
        <time>2013-11-02T02:49:10Z</time>
      </trkpt>
      <trkpt lat="28.39632" lon="83.71105">
        <ele>3105.2</ele>
        <time>2013-11-02T02:49:23Z</time>
      </trkpt>
      <trkpt lat="28.3963" lon="83.7111">
        <ele>3107.12</ele>
        <time>2013-11-02T02:49:36Z</time>
      </trkpt>
      <trkpt lat="28.39628" lon="83.71113">
        <ele>3108.56</ele>
        <time>2013-11-02T02:49:49Z</time>
      </trkpt>
      <trkpt lat="28.39626" lon="83.71116">
        <ele>3109.52</ele>
        <time>2013-11-02T02:49:55Z</time>
      </trkpt>
      <trkpt lat="28.39619" lon="83.71129">
        <ele>3111.44</ele>
        <time>2013-11-02T02:50:10Z</time>
      </trkpt>
      <trkpt lat="28.39616" lon="83.7114">
        <ele>3112.89</ele>
        <time>2013-11-02T02:50:23Z</time>
      </trkpt>
      <trkpt lat="28.39617" lon="83.71145">
        <ele>3112.41</ele>
        <time>2013-11-02T02:50:28Z</time>
      </trkpt>
      <trkpt lat="28.39618" lon="83.7115">
        <ele>3113.37</ele>
        <time>2013-11-02T02:50:31Z</time>
      </trkpt>
      <trkpt lat="28.39615" lon="83.71156">
        <ele>3114.81</ele>
        <time>2013-11-02T02:50:38Z</time>
      </trkpt>
      <trkpt lat="28.39613" lon="83.7116">
        <ele>3115.29</ele>
        <time>2013-11-02T02:50:42Z</time>
      </trkpt>
      <trkpt lat="28.39611" lon="83.71165">
        <ele>3115.77</ele>
        <time>2013-11-02T02:50:48Z</time>
      </trkpt>
      <trkpt lat="28.39611" lon="83.71173">
        <ele>3117.69</ele>
        <time>2013-11-02T02:50:56Z</time>
      </trkpt>
      <trkpt lat="28.39609" lon="83.71175">
        <ele>3117.69</ele>
        <time>2013-11-02T02:50:59Z</time>
      </trkpt>
      <trkpt lat="28.39606" lon="83.71181">
        <ele>3121.54</ele>
        <time>2013-11-02T02:51:12Z</time>
      </trkpt>
      <trkpt lat="28.39601" lon="83.71179">
        <ele>3122.98</ele>
        <time>2013-11-02T02:51:24Z</time>
      </trkpt>
      <trkpt lat="28.39595" lon="83.71173">
        <ele>3125.38</ele>
        <time>2013-11-02T02:51:37Z</time>
      </trkpt>
      <trkpt lat="28.39594" lon="83.71174">
        <ele>3123.94</ele>
        <time>2013-11-02T02:51:43Z</time>
      </trkpt>
      <trkpt lat="28.39591" lon="83.71182">
        <ele>3128.27</ele>
        <time>2013-11-02T02:51:55Z</time>
      </trkpt>
      <trkpt lat="28.39587" lon="83.71188">
        <ele>3130.67</ele>
        <time>2013-11-02T02:52:07Z</time>
      </trkpt>
      <trkpt lat="28.39585" lon="83.71191">
        <ele>3130.67</ele>
        <time>2013-11-02T02:52:11Z</time>
      </trkpt>
      <trkpt lat="28.3958" lon="83.71195">
        <ele>3133.07</ele>
        <time>2013-11-02T02:52:25Z</time>
      </trkpt>
      <trkpt lat="28.39571" lon="83.71202">
        <ele>3134.52</ele>
        <time>2013-11-02T02:52:38Z</time>
      </trkpt>
      <trkpt lat="28.39569" lon="83.71202">
        <ele>3134.04</ele>
        <time>2013-11-02T02:52:51Z</time>
      </trkpt>
      <trkpt lat="28.39569" lon="83.71203">
        <ele>3135.48</ele>
        <time>2013-11-02T02:53:12Z</time>
      </trkpt>
      <trkpt lat="28.3957" lon="83.71203">
        <ele>3135.48</ele>
        <time>2013-11-02T02:53:28Z</time>
      </trkpt>
      <trkpt lat="28.3957" lon="83.71203">
        <ele>3135.48</ele>
        <time>2013-11-02T02:53:44Z</time>
      </trkpt>
      <trkpt lat="28.39569" lon="83.71204">
        <ele>3135.96</ele>
        <time>2013-11-02T02:53:49Z</time>
      </trkpt>
      <trkpt lat="28.39568" lon="83.71205">
        <ele>3135.96</ele>
        <time>2013-11-02T02:53:52Z</time>
      </trkpt>
      <trkpt lat="28.39564" lon="83.71211">
        <ele>3138.84</ele>
        <time>2013-11-02T02:54:03Z</time>
      </trkpt>
      <trkpt lat="28.39561" lon="83.71218">
        <ele>3139.8</ele>
        <time>2013-11-02T02:54:12Z</time>
      </trkpt>
      <trkpt lat="28.3956" lon="83.71221">
        <ele>3139.32</ele>
        <time>2013-11-02T02:54:15Z</time>
      </trkpt>
      <trkpt lat="28.39558" lon="83.71224">
        <ele>3140.76</ele>
        <time>2013-11-02T02:54:19Z</time>
      </trkpt>
      <trkpt lat="28.39554" lon="83.71238">
        <ele>3141.73</ele>
        <time>2013-11-02T02:54:33Z</time>
      </trkpt>
      <trkpt lat="28.39554" lon="83.71241">
        <ele>3141.73</ele>
        <time>2013-11-02T02:54:36Z</time>
      </trkpt>
      <trkpt lat="28.39554" lon="83.71243">
        <ele>3141.73</ele>
        <time>2013-11-02T02:54:38Z</time>
      </trkpt>
      <trkpt lat="28.39555" lon="83.71249">
        <ele>3142.69</ele>
        <time>2013-11-02T02:54:45Z</time>
      </trkpt>
      <trkpt lat="28.39552" lon="83.7126">
        <ele>3143.17</ele>
        <time>2013-11-02T02:54:55Z</time>
      </trkpt>
      <trkpt lat="28.39552" lon="83.7127">
        <ele>3145.57</ele>
        <time>2013-11-02T02:55:06Z</time>
      </trkpt>
      <trkpt lat="28.39553" lon="83.71274">
        <ele>3145.09</ele>
        <time>2013-11-02T02:55:18Z</time>
      </trkpt>
      <trkpt lat="28.39553" lon="83.71274">
        <ele>3146.05</ele>
        <time>2013-11-02T02:55:34Z</time>
      </trkpt>
      <trkpt lat="28.39553" lon="83.71274">
        <ele>3146.05</ele>
        <time>2013-11-02T02:55:50Z</time>
      </trkpt>
      <trkpt lat="28.39553" lon="83.71274">
        <ele>3146.53</ele>
        <time>2013-11-02T02:56:08Z</time>
      </trkpt>
      <trkpt lat="28.39553" lon="83.71273">
        <ele>3146.05</ele>
        <time>2013-11-02T02:56:27Z</time>
      </trkpt>
      <trkpt lat="28.39553" lon="83.71274">
        <ele>3146.05</ele>
        <time>2013-11-02T02:56:44Z</time>
      </trkpt>
      <trkpt lat="28.39554" lon="83.71274">
        <ele>3146.05</ele>
        <time>2013-11-02T02:57:02Z</time>
      </trkpt>
      <trkpt lat="28.39555" lon="83.71274">
        <ele>3146.05</ele>
        <time>2013-11-02T02:57:17Z</time>
      </trkpt>
      <trkpt lat="28.39555" lon="83.71273">
        <ele>3146.05</ele>
        <time>2013-11-02T02:57:39Z</time>
      </trkpt>
      <trkpt lat="28.39555" lon="83.71273">
        <ele>3146.53</ele>
        <time>2013-11-02T02:58:01Z</time>
      </trkpt>
      <trkpt lat="28.39554" lon="83.71274">
        <ele>3146.53</ele>
        <time>2013-11-02T02:58:21Z</time>
      </trkpt>
      <trkpt lat="28.39555" lon="83.71274">
        <ele>3147.01</ele>
        <time>2013-11-02T02:58:44Z</time>
      </trkpt>
      <trkpt lat="28.39554" lon="83.71273">
        <ele>3146.53</ele>
        <time>2013-11-02T02:59:04Z</time>
      </trkpt>
      <trkpt lat="28.39554" lon="83.71272">
        <ele>3147.01</ele>
        <time>2013-11-02T02:59:28Z</time>
      </trkpt>
      <trkpt lat="28.39554" lon="83.71271">
        <ele>3147.01</ele>
        <time>2013-11-02T02:59:45Z</time>
      </trkpt>
      <trkpt lat="28.39553" lon="83.71272">
        <ele>3147.01</ele>
        <time>2013-11-02T03:00:02Z</time>
      </trkpt>
      <trkpt lat="28.39554" lon="83.71273">
        <ele>3147.01</ele>
        <time>2013-11-02T03:00:14Z</time>
      </trkpt>
      <trkpt lat="28.39554" lon="83.71273">
        <ele>3146.53</ele>
        <time>2013-11-02T03:00:32Z</time>
      </trkpt>
      <trkpt lat="28.39553" lon="83.71272">
        <ele>3147.01</ele>
        <time>2013-11-02T03:00:50Z</time>
      </trkpt>
      <trkpt lat="28.39553" lon="83.71273">
        <ele>3147.49</ele>
        <time>2013-11-02T03:01:08Z</time>
      </trkpt>
      <trkpt lat="28.39555" lon="83.71277">
        <ele>3147.49</ele>
        <time>2013-11-02T03:01:20Z</time>
      </trkpt>
      <trkpt lat="28.39556" lon="83.71277">
        <ele>3147.49</ele>
        <time>2013-11-02T03:01:48Z</time>
      </trkpt>
      <trkpt lat="28.39554" lon="83.71274">
        <ele>3147.49</ele>
        <time>2013-11-02T03:02:09Z</time>
      </trkpt>
      <trkpt lat="28.39554" lon="83.71273">
        <ele>3147.49</ele>
        <time>2013-11-02T03:02:33Z</time>
      </trkpt>
      <trkpt lat="28.39553" lon="83.71274">
        <ele>3147.97</ele>
        <time>2013-11-02T03:02:49Z</time>
      </trkpt>
      <trkpt lat="28.39555" lon="83.71273">
        <ele>3147.49</ele>
        <time>2013-11-02T03:03:05Z</time>
      </trkpt>
      <trkpt lat="28.39556" lon="83.71272">
        <ele>3147.97</ele>
        <time>2013-11-02T03:03:30Z</time>
      </trkpt>
      <trkpt lat="28.39556" lon="83.71273">
        <ele>3147.97</ele>
        <time>2013-11-02T03:03:52Z</time>
      </trkpt>
      <trkpt lat="28.39556" lon="83.71272">
        <ele>3147.97</ele>
        <time>2013-11-02T03:04:17Z</time>
      </trkpt>
      <trkpt lat="28.39556" lon="83.71273">
        <ele>3148.46</ele>
        <time>2013-11-02T03:04:37Z</time>
      </trkpt>
      <trkpt lat="28.39555" lon="83.71273">
        <ele>3148.46</ele>
        <time>2013-11-02T03:05:00Z</time>
      </trkpt>
      <trkpt lat="28.39554" lon="83.71273">
        <ele>3148.46</ele>
        <time>2013-11-02T03:05:18Z</time>
      </trkpt>
      <trkpt lat="28.39555" lon="83.71276">
        <ele>3148.46</ele>
        <time>2013-11-02T03:05:30Z</time>
      </trkpt>
      <trkpt lat="28.39555" lon="83.71284">
        <ele>3148.46</ele>
        <time>2013-11-02T03:05:39Z</time>
      </trkpt>
      <trkpt lat="28.39555" lon="83.71284">
        <ele>3148.46</ele>
        <time>2013-11-02T03:05:40Z</time>
      </trkpt>
      <trkpt lat="28.39555" lon="83.71288">
        <ele>3148.46</ele>
        <time>2013-11-02T03:05:43Z</time>
      </trkpt>
      <trkpt lat="28.39554" lon="83.71301">
        <ele>3147.49</ele>
        <time>2013-11-02T03:05:57Z</time>
      </trkpt>
      <trkpt lat="28.39554" lon="83.71313">
        <ele>3147.01</ele>
        <time>2013-11-02T03:06:08Z</time>
      </trkpt>
      <trkpt lat="28.39554" lon="83.71323">
        <ele>3147.97</ele>
        <time>2013-11-02T03:06:17Z</time>
      </trkpt>
      <trkpt lat="28.39554" lon="83.71336">
        <ele>3147.01</ele>
        <time>2013-11-02T03:06:27Z</time>
      </trkpt>
      <trkpt lat="28.3955" lon="83.7135">
        <ele>3146.53</ele>
        <time>2013-11-02T03:06:38Z</time>
      </trkpt>
      <trkpt lat="28.39546" lon="83.71352">
        <ele>3146.53</ele>
        <time>2013-11-02T03:06:41Z</time>
      </trkpt>
      <trkpt lat="28.39543" lon="83.71361">
        <ele>3148.46</ele>
        <time>2013-11-02T03:06:54Z</time>
      </trkpt>
      <trkpt lat="28.39543" lon="83.71362">
        <ele>3148.46</ele>
        <time>2013-11-02T03:06:55Z</time>
      </trkpt>
      <trkpt lat="28.39545" lon="83.71369">
        <ele>3150.38</ele>
        <time>2013-11-02T03:07:04Z</time>
      </trkpt>
      <trkpt lat="28.39544" lon="83.71379">
        <ele>3150.38</ele>
        <time>2013-11-02T03:07:13Z</time>
      </trkpt>
      <trkpt lat="28.39541" lon="83.7139">
        <ele>3151.34</ele>
        <time>2013-11-02T03:07:25Z</time>
      </trkpt>
      <trkpt lat="28.39544" lon="83.71403">
        <ele>3152.3</ele>
        <time>2013-11-02T03:07:39Z</time>
      </trkpt>
      <trkpt lat="28.39544" lon="83.71414">
        <ele>3152.3</ele>
        <time>2013-11-02T03:07:51Z</time>
      </trkpt>
      <trkpt lat="28.3955" lon="83.71424">
        <ele>3149.9</ele>
        <time>2013-11-02T03:08:03Z</time>
      </trkpt>
      <trkpt lat="28.39552" lon="83.7144">
        <ele>3151.82</ele>
        <time>2013-11-02T03:08:17Z</time>
      </trkpt>
      <trkpt lat="28.39552" lon="83.71442">
        <ele>3153.26</ele>
        <time>2013-11-02T03:08:22Z</time>
      </trkpt>
      <trkpt lat="28.3955" lon="83.71459">
        <ele>3154.22</ele>
        <time>2013-11-02T03:08:36Z</time>
      </trkpt>
      <trkpt lat="28.39549" lon="83.71472">
        <ele>3154.7</ele>
        <time>2013-11-02T03:08:47Z</time>
      </trkpt>
      <trkpt lat="28.39548" lon="83.71483">
        <ele>3157.11</ele>
        <time>2013-11-02T03:09:01Z</time>
      </trkpt>
      <trkpt lat="28.39549" lon="83.7149">
        <ele>3159.51</ele>
        <time>2013-11-02T03:09:14Z</time>
      </trkpt>
      <trkpt lat="28.39547" lon="83.71495">
        <ele>3160.47</ele>
        <time>2013-11-02T03:09:21Z</time>
      </trkpt>
      <trkpt lat="28.39547" lon="83.71507">
        <ele>3162.39</ele>
        <time>2013-11-02T03:09:33Z</time>
      </trkpt>
      <trkpt lat="28.39548" lon="83.71509">
        <ele>3163.36</ele>
        <time>2013-11-02T03:09:47Z</time>
      </trkpt>
      <trkpt lat="28.39546" lon="83.71517">
        <ele>3164.8</ele>
        <time>2013-11-02T03:09:58Z</time>
      </trkpt>
      <trkpt lat="28.3955" lon="83.7152">
        <ele>3167.2</ele>
        <time>2013-11-02T03:10:11Z</time>
      </trkpt>
      <trkpt lat="28.3955" lon="83.71523">
        <ele>3169.12</ele>
        <time>2013-11-02T03:10:19Z</time>
      </trkpt>
      <trkpt lat="28.39551" lon="83.7153">
        <ele>3172.01</ele>
        <time>2013-11-02T03:10:33Z</time>
      </trkpt>
      <trkpt lat="28.39548" lon="83.71536">
        <ele>3173.45</ele>
        <time>2013-11-02T03:10:43Z</time>
      </trkpt>
      <trkpt lat="28.39547" lon="83.71547">
        <ele>3175.37</ele>
        <time>2013-11-02T03:10:55Z</time>
      </trkpt>
      <trkpt lat="28.39546" lon="83.71549">
        <ele>3175.85</ele>
        <time>2013-11-02T03:10:57Z</time>
      </trkpt>
      <trkpt lat="28.39549" lon="83.71558">
        <ele>3177.29</ele>
        <time>2013-11-02T03:11:11Z</time>
      </trkpt>
      <trkpt lat="28.39555" lon="83.71573">
        <ele>3179.7</ele>
        <time>2013-11-02T03:11:30Z</time>
      </trkpt>
      <trkpt lat="28.39556" lon="83.71586">
        <ele>3181.14</ele>
        <time>2013-11-02T03:11:47Z</time>
      </trkpt>
      <trkpt lat="28.3956" lon="83.71596">
        <ele>3181.62</ele>
        <time>2013-11-02T03:12:00Z</time>
      </trkpt>
      <trkpt lat="28.39566" lon="83.71608">
        <ele>3179.7</ele>
        <time>2013-11-02T03:12:13Z</time>
      </trkpt>
      <trkpt lat="28.39568" lon="83.71609">
        <ele>3179.7</ele>
        <time>2013-11-02T03:12:44Z</time>
      </trkpt>
      <trkpt lat="28.39563" lon="83.71617">
        <ele>3180.66</ele>
        <time>2013-11-02T03:12:56Z</time>
      </trkpt>
      <trkpt lat="28.39561" lon="83.71622">
        <ele>3181.14</ele>
        <time>2013-11-02T03:13:14Z</time>
      </trkpt>
      <trkpt lat="28.3956" lon="83.71629">
        <ele>3179.7</ele>
        <time>2013-11-02T03:13:25Z</time>
      </trkpt>
      <trkpt lat="28.39565" lon="83.71644">
        <ele>3179.7</ele>
        <time>2013-11-02T03:13:38Z</time>
      </trkpt>
      <trkpt lat="28.39569" lon="83.71659">
        <ele>3181.14</ele>
        <time>2013-11-02T03:13:54Z</time>
      </trkpt>
      <trkpt lat="28.39571" lon="83.71663">
        <ele>3180.18</ele>
        <time>2013-11-02T03:14:08Z</time>
      </trkpt>
      <trkpt lat="28.3957" lon="83.71661">
        <ele>3181.14</ele>
        <time>2013-11-02T03:14:25Z</time>
      </trkpt>
      <trkpt lat="28.3957" lon="83.71662">
        <ele>3181.14</ele>
        <time>2013-11-02T03:14:42Z</time>
      </trkpt>
      <trkpt lat="28.3957" lon="83.71663">
        <ele>3181.14</ele>
        <time>2013-11-02T03:14:58Z</time>
      </trkpt>
      <trkpt lat="28.39571" lon="83.71664">
        <ele>3180.66</ele>
        <time>2013-11-02T03:15:15Z</time>
      </trkpt>
      <trkpt lat="28.39572" lon="83.71662">
        <ele>3181.62</ele>
        <time>2013-11-02T03:15:32Z</time>
      </trkpt>
      <trkpt lat="28.39572" lon="83.71662">
        <ele>3181.62</ele>
        <time>2013-11-02T03:16:04Z</time>
      </trkpt>
      <trkpt lat="28.39573" lon="83.71663">
        <ele>3181.14</ele>
        <time>2013-11-02T03:16:28Z</time>
      </trkpt>
      <trkpt lat="28.39573" lon="83.71663">
        <ele>3181.62</ele>
        <time>2013-11-02T03:16:44Z</time>
      </trkpt>
      <trkpt lat="28.39572" lon="83.71663">
        <ele>3182.1</ele>
        <time>2013-11-02T03:17:09Z</time>
      </trkpt>
      <trkpt lat="28.39572" lon="83.71663">
        <ele>3182.1</ele>
        <time>2013-11-02T03:17:41Z</time>
      </trkpt>
      <trkpt lat="28.39572" lon="83.71662">
        <ele>3182.58</ele>
        <time>2013-11-02T03:18:08Z</time>
      </trkpt>
      <trkpt lat="28.39572" lon="83.71662">
        <ele>3182.58</ele>
        <time>2013-11-02T03:18:29Z</time>
      </trkpt>
      <trkpt lat="28.39573" lon="83.71662">
        <ele>3183.06</ele>
        <time>2013-11-02T03:18:45Z</time>
      </trkpt>
      <trkpt lat="28.39573" lon="83.71661">
        <ele>3183.54</ele>
        <time>2013-11-02T03:19:11Z</time>
      </trkpt>
      <trkpt lat="28.39575" lon="83.71664">
        <ele>3182.1</ele>
        <time>2013-11-02T03:19:26Z</time>
      </trkpt>
      <trkpt lat="28.39576" lon="83.71664">
        <ele>3181.62</ele>
        <time>2013-11-02T03:19:27Z</time>
      </trkpt>
      <trkpt lat="28.39582" lon="83.71674">
        <ele>3180.66</ele>
        <time>2013-11-02T03:19:39Z</time>
      </trkpt>
      <trkpt lat="28.3959" lon="83.71687">
        <ele>3180.18</ele>
        <time>2013-11-02T03:19:51Z</time>
      </trkpt>
      <trkpt lat="28.39601" lon="83.71701">
        <ele>3181.14</ele>
        <time>2013-11-02T03:20:05Z</time>
      </trkpt>
      <trkpt lat="28.39606" lon="83.71708">
        <ele>3181.62</ele>
        <time>2013-11-02T03:20:17Z</time>
      </trkpt>
      <trkpt lat="28.39611" lon="83.7172">
        <ele>3180.66</ele>
        <time>2013-11-02T03:20:29Z</time>
      </trkpt>
      <trkpt lat="28.39614" lon="83.71737">
        <ele>3180.18</ele>
        <time>2013-11-02T03:20:41Z</time>
      </trkpt>
      <trkpt lat="28.39617" lon="83.71754">
        <ele>3183.06</ele>
        <time>2013-11-02T03:20:56Z</time>
      </trkpt>
      <trkpt lat="28.39621" lon="83.71756">
        <ele>3184.5</ele>
        <time>2013-11-02T03:21:07Z</time>
      </trkpt>
      <trkpt lat="28.39625" lon="83.71759">
        <ele>3185.47</ele>
        <time>2013-11-02T03:21:17Z</time>
      </trkpt>
      <trkpt lat="28.39629" lon="83.71771">
        <ele>3188.35</ele>
        <time>2013-11-02T03:21:31Z</time>
      </trkpt>
      <trkpt lat="28.39628" lon="83.71775">
        <ele>3190.27</ele>
        <time>2013-11-02T03:21:42Z</time>
      </trkpt>
      <trkpt lat="28.39634" lon="83.71778">
        <ele>3193.16</ele>
        <time>2013-11-02T03:21:58Z</time>
      </trkpt>
      <trkpt lat="28.39635" lon="83.71783">
        <ele>3194.6</ele>
        <time>2013-11-02T03:22:06Z</time>
      </trkpt>
      <trkpt lat="28.39639" lon="83.71801">
        <ele>3194.12</ele>
        <time>2013-11-02T03:22:20Z</time>
      </trkpt>
      <trkpt lat="28.39637" lon="83.71815">
        <ele>3194.6</ele>
        <time>2013-11-02T03:22:30Z</time>
      </trkpt>
      <trkpt lat="28.39634" lon="83.7183">
        <ele>3195.56</ele>
        <time>2013-11-02T03:22:45Z</time>
      </trkpt>
      <trkpt lat="28.39633" lon="83.7183">
        <ele>3195.08</ele>
        <time>2013-11-02T03:23:01Z</time>
      </trkpt>
      <trkpt lat="28.39632" lon="83.71835">
        <ele>3195.08</ele>
        <time>2013-11-02T03:23:26Z</time>
      </trkpt>
      <trkpt lat="28.39632" lon="83.71841">
        <ele>3194.6</ele>
        <time>2013-11-02T03:23:39Z</time>
      </trkpt>
      <trkpt lat="28.39632" lon="83.71845">
        <ele>3194.12</ele>
        <time>2013-11-02T03:23:42Z</time>
      </trkpt>
      <trkpt lat="28.39629" lon="83.71857">
        <ele>3193.16</ele>
        <time>2013-11-02T03:23:53Z</time>
      </trkpt>
      <trkpt lat="28.39625" lon="83.71872">
        <ele>3190.75</ele>
        <time>2013-11-02T03:24:07Z</time>
      </trkpt>
      <trkpt lat="28.39626" lon="83.71878">
        <ele>3189.79</ele>
        <time>2013-11-02T03:24:19Z</time>
      </trkpt>
      <trkpt lat="28.39627" lon="83.71891">
        <ele>3189.31</ele>
        <time>2013-11-02T03:24:32Z</time>
      </trkpt>
      <trkpt lat="28.39629" lon="83.71899">
        <ele>3187.39</ele>
        <time>2013-11-02T03:24:44Z</time>
      </trkpt>
      <trkpt lat="28.3963" lon="83.71909">
        <ele>3186.91</ele>
        <time>2013-11-02T03:24:54Z</time>
      </trkpt>
      <trkpt lat="28.39639" lon="83.71921">
        <ele>3186.91</ele>
        <time>2013-11-02T03:25:09Z</time>
      </trkpt>
      <trkpt lat="28.3964" lon="83.71922">
        <ele>3186.91</ele>
        <time>2013-11-02T03:25:12Z</time>
      </trkpt>
      <trkpt lat="28.39646" lon="83.71926">
        <ele>3186.43</ele>
        <time>2013-11-02T03:25:27Z</time>
      </trkpt>
      <trkpt lat="28.39646" lon="83.71926">
        <ele>3186.43</ele>
        <time>2013-11-02T03:25:51Z</time>
      </trkpt>
      <trkpt lat="28.39646" lon="83.71926">
        <ele>3186.43</ele>
        <time>2013-11-02T03:26:14Z</time>
      </trkpt>
      <trkpt lat="28.39648" lon="83.71928">
        <ele>3186.43</ele>
        <time>2013-11-02T03:26:39Z</time>
      </trkpt>
      <trkpt lat="28.3965" lon="83.71941">
        <ele>3185.47</ele>
        <time>2013-11-02T03:26:52Z</time>
      </trkpt>
      <trkpt lat="28.39658" lon="83.71947">
        <ele>3184.5</ele>
        <time>2013-11-02T03:27:07Z</time>
      </trkpt>
      <trkpt lat="28.39657" lon="83.71953">
        <ele>3183.06</ele>
        <time>2013-11-02T03:27:16Z</time>
      </trkpt>
      <trkpt lat="28.39656" lon="83.71962">
        <ele>3179.7</ele>
        <time>2013-11-02T03:27:29Z</time>
      </trkpt>
      <trkpt lat="28.39657" lon="83.71974">
        <ele>3176.81</ele>
        <time>2013-11-02T03:27:42Z</time>
      </trkpt>
      <trkpt lat="28.39656" lon="83.71991">
        <ele>3174.89</ele>
        <time>2013-11-02T03:27:54Z</time>
      </trkpt>
      <trkpt lat="28.39655" lon="83.71994">
        <ele>3174.89</ele>
        <time>2013-11-02T03:28:09Z</time>
      </trkpt>
      <trkpt lat="28.39655" lon="83.71994">
        <ele>3174.89</ele>
        <time>2013-11-02T03:28:32Z</time>
      </trkpt>
      <trkpt lat="28.39656" lon="83.71994">
        <ele>3174.89</ele>
        <time>2013-11-02T03:29:03Z</time>
      </trkpt>
      <trkpt lat="28.39657" lon="83.71994">
        <ele>3174.89</ele>
        <time>2013-11-02T03:29:31Z</time>
      </trkpt>
      <trkpt lat="28.39656" lon="83.72">
        <ele>3175.37</ele>
        <time>2013-11-02T03:29:47Z</time>
      </trkpt>
      <trkpt lat="28.39655" lon="83.72004">
        <ele>3175.85</ele>
        <time>2013-11-02T03:29:49Z</time>
      </trkpt>
      <trkpt lat="28.39653" lon="83.72017">
        <ele>3179.22</ele>
        <time>2013-11-02T03:30:04Z</time>
      </trkpt>
      <trkpt lat="28.39651" lon="83.72024">
        <ele>3182.1</ele>
        <time>2013-11-02T03:30:15Z</time>
      </trkpt>
      <trkpt lat="28.39645" lon="83.72027">
        <ele>3183.54</ele>
        <time>2013-11-02T03:30:30Z</time>
      </trkpt>
      <trkpt lat="28.39644" lon="83.72035">
        <ele>3185.47</ele>
        <time>2013-11-02T03:30:43Z</time>
      </trkpt>
      <trkpt lat="28.39647" lon="83.72045">
        <ele>3185.95</ele>
        <time>2013-11-02T03:30:54Z</time>
      </trkpt>
      <trkpt lat="28.39641" lon="83.72057">
        <ele>3186.43</ele>
        <time>2013-11-02T03:31:08Z</time>
      </trkpt>
      <trkpt lat="28.3964" lon="83.72059">
        <ele>3185.95</ele>
        <time>2013-11-02T03:31:24Z</time>
      </trkpt>
      <trkpt lat="28.3964" lon="83.72059">
        <ele>3186.43</ele>
        <time>2013-11-02T03:31:44Z</time>
      </trkpt>
      <trkpt lat="28.3964" lon="83.7206">
        <ele>3186.91</ele>
        <time>2013-11-02T03:32:06Z</time>
      </trkpt>
      <trkpt lat="28.3964" lon="83.7206">
        <ele>3186.91</ele>
        <time>2013-11-02T03:32:24Z</time>
      </trkpt>
      <trkpt lat="28.3964" lon="83.7206">
        <ele>3186.91</ele>
        <time>2013-11-02T03:32:42Z</time>
      </trkpt>
      <trkpt lat="28.3964" lon="83.7206">
        <ele>3186.43</ele>
        <time>2013-11-02T03:33:01Z</time>
      </trkpt>
      <trkpt lat="28.39641" lon="83.72061">
        <ele>3186.91</ele>
        <time>2013-11-02T03:33:26Z</time>
      </trkpt>
      <trkpt lat="28.39641" lon="83.7206">
        <ele>3186.91</ele>
        <time>2013-11-02T03:33:54Z</time>
      </trkpt>
      <trkpt lat="28.3964" lon="83.7206">
        <ele>3186.91</ele>
        <time>2013-11-02T03:34:16Z</time>
      </trkpt>
      <trkpt lat="28.3964" lon="83.7206">
        <ele>3187.39</ele>
        <time>2013-11-02T03:34:36Z</time>
      </trkpt>
      <trkpt lat="28.3964" lon="83.7206">
        <ele>3186.91</ele>
        <time>2013-11-02T03:34:58Z</time>
      </trkpt>
      <trkpt lat="28.3964" lon="83.7206">
        <ele>3186.91</ele>
        <time>2013-11-02T03:35:19Z</time>
      </trkpt>
      <trkpt lat="28.39641" lon="83.7206">
        <ele>3186.91</ele>
        <time>2013-11-02T03:35:50Z</time>
      </trkpt>
      <trkpt lat="28.39641" lon="83.72062">
        <ele>3185.95</ele>
        <time>2013-11-02T03:36:11Z</time>
      </trkpt>
      <trkpt lat="28.39641" lon="83.72065">
        <ele>3184.02</ele>
        <time>2013-11-02T03:36:22Z</time>
      </trkpt>
      <trkpt lat="28.39644" lon="83.72079">
        <ele>3183.06</ele>
        <time>2013-11-02T03:36:37Z</time>
      </trkpt>
      <trkpt lat="28.39644" lon="83.72084">
        <ele>3182.58</ele>
        <time>2013-11-02T03:36:41Z</time>
      </trkpt>
      <trkpt lat="28.39647" lon="83.72097">
        <ele>3180.18</ele>
        <time>2013-11-02T03:36:55Z</time>
      </trkpt>
      <trkpt lat="28.39647" lon="83.72103">
        <ele>3177.78</ele>
        <time>2013-11-02T03:37:08Z</time>
      </trkpt>
      <trkpt lat="28.39647" lon="83.72108">
        <ele>3175.37</ele>
        <time>2013-11-02T03:37:22Z</time>
      </trkpt>
      <trkpt lat="28.39646" lon="83.72118">
        <ele>3174.41</ele>
        <time>2013-11-02T03:37:31Z</time>
      </trkpt>
      <trkpt lat="28.39644" lon="83.72126">
        <ele>3174.89</ele>
        <time>2013-11-02T03:37:35Z</time>
      </trkpt>
      <trkpt lat="28.39643" lon="83.72144">
        <ele>3178.26</ele>
        <time>2013-11-02T03:37:48Z</time>
      </trkpt>
      <trkpt lat="28.39646" lon="83.72157">
        <ele>3180.66</ele>
        <time>2013-11-02T03:38:03Z</time>
      </trkpt>
      <trkpt lat="28.39639" lon="83.72176">
        <ele>3180.66</ele>
        <time>2013-11-02T03:38:20Z</time>
      </trkpt>
      <trkpt lat="28.39639" lon="83.72187">
        <ele>3178.74</ele>
        <time>2013-11-02T03:38:31Z</time>
      </trkpt>
      <trkpt lat="28.39639" lon="83.72203">
        <ele>3178.26</ele>
        <time>2013-11-02T03:38:43Z</time>
      </trkpt>
      <trkpt lat="28.39639" lon="83.72215">
        <ele>3180.66</ele>
        <time>2013-11-02T03:38:54Z</time>
      </trkpt>
      <trkpt lat="28.39639" lon="83.72221">
        <ele>3179.7</ele>
        <time>2013-11-02T03:39:06Z</time>
      </trkpt>
      <trkpt lat="28.39639" lon="83.72227">
        <ele>3177.78</ele>
        <time>2013-11-02T03:39:18Z</time>
      </trkpt>
      <trkpt lat="28.39639" lon="83.72244">
        <ele>3175.37</ele>
        <time>2013-11-02T03:39:31Z</time>
      </trkpt>
      <trkpt lat="28.39632" lon="83.72258">
        <ele>3177.29</ele>
        <time>2013-11-02T03:39:47Z</time>
      </trkpt>
      <trkpt lat="28.39629" lon="83.72267">
        <ele>3179.7</ele>
        <time>2013-11-02T03:40:02Z</time>
      </trkpt>
      <trkpt lat="28.39626" lon="83.7227">
        <ele>3178.74</ele>
        <time>2013-11-02T03:40:17Z</time>
      </trkpt>
      <trkpt lat="28.39624" lon="83.72278">
        <ele>3176.33</ele>
        <time>2013-11-02T03:40:31Z</time>
      </trkpt>
      <trkpt lat="28.39624" lon="83.72286">
        <ele>3175.85</ele>
        <time>2013-11-02T03:40:39Z</time>
      </trkpt>
      <trkpt lat="28.39625" lon="83.72298">
        <ele>3176.81</ele>
        <time>2013-11-02T03:40:52Z</time>
      </trkpt>
      <trkpt lat="28.39624" lon="83.72307">
        <ele>3176.33</ele>
        <time>2013-11-02T03:41:05Z</time>
      </trkpt>
      <trkpt lat="28.39627" lon="83.7231">
        <ele>3174.41</ele>
        <time>2013-11-02T03:41:17Z</time>
      </trkpt>
      <trkpt lat="28.39635" lon="83.72318">
        <ele>3174.41</ele>
        <time>2013-11-02T03:41:27Z</time>
      </trkpt>
      <trkpt lat="28.39644" lon="83.72331">
        <ele>3173.45</ele>
        <time>2013-11-02T03:41:41Z</time>
      </trkpt>
      <trkpt lat="28.39647" lon="83.72341">
        <ele>3171.53</ele>
        <time>2013-11-02T03:41:55Z</time>
      </trkpt>
      <trkpt lat="28.39649" lon="83.72347">
        <ele>3170.08</ele>
        <time>2013-11-02T03:42:02Z</time>
      </trkpt>
      <trkpt lat="28.39649" lon="83.7235">
        <ele>3170.08</ele>
        <time>2013-11-02T03:42:04Z</time>
      </trkpt>
      <trkpt lat="28.39648" lon="83.72353">
        <ele>3170.08</ele>
        <time>2013-11-02T03:42:06Z</time>
      </trkpt>
      <trkpt lat="28.39649" lon="83.72365">
        <ele>3170.57</ele>
        <time>2013-11-02T03:42:16Z</time>
      </trkpt>
      <trkpt lat="28.3965" lon="83.72369">
        <ele>3171.05</ele>
        <time>2013-11-02T03:42:21Z</time>
      </trkpt>
      <trkpt lat="28.39643" lon="83.72372">
        <ele>3172.49</ele>
        <time>2013-11-02T03:42:35Z</time>
      </trkpt>
      <trkpt lat="28.39642" lon="83.72381">
        <ele>3175.37</ele>
        <time>2013-11-02T03:42:47Z</time>
      </trkpt>
      <trkpt lat="28.39637" lon="83.72392">
        <ele>3177.29</ele>
        <time>2013-11-02T03:43:01Z</time>
      </trkpt>
      <trkpt lat="28.39633" lon="83.72403">
        <ele>3176.81</ele>
        <time>2013-11-02T03:43:16Z</time>
      </trkpt>
      <trkpt lat="28.39631" lon="83.72406">
        <ele>3176.81</ele>
        <time>2013-11-02T03:43:32Z</time>
      </trkpt>
      <trkpt lat="28.39631" lon="83.72408">
        <ele>3176.81</ele>
        <time>2013-11-02T03:44:02Z</time>
      </trkpt>
      <trkpt lat="28.39624" lon="83.72421">
        <ele>3177.78</ele>
        <time>2013-11-02T03:44:16Z</time>
      </trkpt>
      <trkpt lat="28.39619" lon="83.72426">
        <ele>3178.26</ele>
        <time>2013-11-02T03:44:30Z</time>
      </trkpt>
      <trkpt lat="28.39618" lon="83.72429">
        <ele>3178.74</ele>
        <time>2013-11-02T03:44:49Z</time>
      </trkpt>
      <trkpt lat="28.39613" lon="83.72438">
        <ele>3177.78</ele>
        <time>2013-11-02T03:45:00Z</time>
      </trkpt>
      <trkpt lat="28.39607" lon="83.72442">
        <ele>3176.81</ele>
        <time>2013-11-02T03:45:07Z</time>
      </trkpt>
      <trkpt lat="28.39597" lon="83.72452">
        <ele>3175.37</ele>
        <time>2013-11-02T03:45:19Z</time>
      </trkpt>
      <trkpt lat="28.39592" lon="83.72457">
        <ele>3174.41</ele>
        <time>2013-11-02T03:45:26Z</time>
      </trkpt>
      <trkpt lat="28.39591" lon="83.7247">
        <ele>3172.49</ele>
        <time>2013-11-02T03:45:37Z</time>
      </trkpt>
      <trkpt lat="28.39597" lon="83.72481">
        <ele>3173.93</ele>
        <time>2013-11-02T03:45:50Z</time>
      </trkpt>
      <trkpt lat="28.39597" lon="83.72493">
        <ele>3172.01</ele>
        <time>2013-11-02T03:46:05Z</time>
      </trkpt>
      <trkpt lat="28.39598" lon="83.72504">
        <ele>3168.64</ele>
        <time>2013-11-02T03:46:18Z</time>
      </trkpt>
      <trkpt lat="28.39608" lon="83.72505">
        <ele>3166.24</ele>
        <time>2013-11-02T03:46:30Z</time>
      </trkpt>
      <trkpt lat="28.39606" lon="83.72515">
        <ele>3164.32</ele>
        <time>2013-11-02T03:46:44Z</time>
      </trkpt>
      <trkpt lat="28.39606" lon="83.72516">
        <ele>3158.07</ele>
        <time>2013-11-02T03:46:49Z</time>
      </trkpt>
      <trkpt lat="28.39606" lon="83.72516">
        <ele>3169.12</ele>
        <time>2013-11-02T03:46:50Z</time>
      </trkpt>
      <trkpt lat="28.39606" lon="83.72518">
        <ele>3164.8</ele>
        <time>2013-11-02T03:46:51Z</time>
      </trkpt>
      <trkpt lat="28.39606" lon="83.72521">
        <ele>3164.32</ele>
        <time>2013-11-02T03:46:53Z</time>
      </trkpt>
      <trkpt lat="28.39601" lon="83.72533">
        <ele>3164.32</ele>
        <time>2013-11-02T03:47:06Z</time>
      </trkpt>
      <trkpt lat="28.396" lon="83.72533">
        <ele>3163.84</ele>
        <time>2013-11-02T03:47:27Z</time>
      </trkpt>
      <trkpt lat="28.39601" lon="83.72534">
        <ele>3163.84</ele>
        <time>2013-11-02T03:47:57Z</time>
      </trkpt>
      <trkpt lat="28.396" lon="83.72534">
        <ele>3163.36</ele>
        <time>2013-11-02T03:48:04Z</time>
      </trkpt>
      <trkpt lat="28.39594" lon="83.72538">
        <ele>3163.84</ele>
        <time>2013-11-02T03:48:11Z</time>
      </trkpt>
      <trkpt lat="28.39587" lon="83.7255">
        <ele>3165.76</ele>
        <time>2013-11-02T03:48:27Z</time>
      </trkpt>
      <trkpt lat="28.39581" lon="83.72561">
        <ele>3163.36</ele>
        <time>2013-11-02T03:48:41Z</time>
      </trkpt>
      <trkpt lat="28.39584" lon="83.72576">
        <ele>3160.47</ele>
        <time>2013-11-02T03:48:52Z</time>
      </trkpt>
      <trkpt lat="28.39588" lon="83.72584">
        <ele>3158.07</ele>
        <time>2013-11-02T03:49:00Z</time>
      </trkpt>
      <trkpt lat="28.39591" lon="83.72588">
        <ele>3157.11</ele>
        <time>2013-11-02T03:49:04Z</time>
      </trkpt>
      <trkpt lat="28.39595" lon="83.72591">
        <ele>3156.63</ele>
        <time>2013-11-02T03:49:07Z</time>
      </trkpt>
      <trkpt lat="28.396" lon="83.72595">
        <ele>3155.66</ele>
        <time>2013-11-02T03:49:12Z</time>
      </trkpt>
      <trkpt lat="28.39602" lon="83.72603">
        <ele>3153.74</ele>
        <time>2013-11-02T03:49:18Z</time>
      </trkpt>
      <trkpt lat="28.39604" lon="83.72607">
        <ele>3153.26</ele>
        <time>2013-11-02T03:49:21Z</time>
      </trkpt>
      <trkpt lat="28.39605" lon="83.72621">
        <ele>3151.34</ele>
        <time>2013-11-02T03:49:34Z</time>
      </trkpt>
      <trkpt lat="28.3961" lon="83.72635">
        <ele>3153.74</ele>
        <time>2013-11-02T03:49:49Z</time>
      </trkpt>
      <trkpt lat="28.39614" lon="83.72644">
        <ele>3154.22</ele>
        <time>2013-11-02T03:49:57Z</time>
      </trkpt>
      <trkpt lat="28.3962" lon="83.72658">
        <ele>3154.22</ele>
        <time>2013-11-02T03:50:12Z</time>
      </trkpt>
      <trkpt lat="28.39624" lon="83.7267">
        <ele>3151.34</ele>
        <time>2013-11-02T03:50:28Z</time>
      </trkpt>
      <trkpt lat="28.39628" lon="83.72677">
        <ele>3148.94</ele>
        <time>2013-11-02T03:50:43Z</time>
      </trkpt>
      <trkpt lat="28.39629" lon="83.72676">
        <ele>3146.53</ele>
        <time>2013-11-02T03:50:59Z</time>
      </trkpt>
      <trkpt lat="28.39631" lon="83.72678">
        <ele>3144.61</ele>
        <time>2013-11-02T03:51:08Z</time>
      </trkpt>
      <trkpt lat="28.39633" lon="83.72679">
        <ele>3144.13</ele>
        <time>2013-11-02T03:51:25Z</time>
      </trkpt>
      <trkpt lat="28.3964" lon="83.7268">
        <ele>3142.21</ele>
        <time>2013-11-02T03:51:45Z</time>
      </trkpt>
      <trkpt lat="28.39646" lon="83.72684">
        <ele>3139.32</ele>
        <time>2013-11-02T03:51:59Z</time>
      </trkpt>
      <trkpt lat="28.39652" lon="83.72685">
        <ele>3135.96</ele>
        <time>2013-11-02T03:52:13Z</time>
      </trkpt>
      <trkpt lat="28.39655" lon="83.72689">
        <ele>3134.04</ele>
        <time>2013-11-02T03:52:27Z</time>
      </trkpt>
      <trkpt lat="28.39655" lon="83.72689">
        <ele>3132.59</ele>
        <time>2013-11-02T03:52:36Z</time>
      </trkpt>
      <trkpt lat="28.39653" lon="83.727">
        <ele>3129.23</ele>
        <time>2013-11-02T03:52:48Z</time>
      </trkpt>
      <trkpt lat="28.39661" lon="83.72715">
        <ele>3126.83</ele>
        <time>2013-11-02T03:53:02Z</time>
      </trkpt>
      <trkpt lat="28.39663" lon="83.72721">
        <ele>3126.83</ele>
        <time>2013-11-02T03:53:07Z</time>
      </trkpt>
      <trkpt lat="28.39664" lon="83.72732">
        <ele>3126.34</ele>
        <time>2013-11-02T03:53:21Z</time>
      </trkpt>
      <trkpt lat="28.39659" lon="83.72747">
        <ele>3125.86</ele>
        <time>2013-11-02T03:53:36Z</time>
      </trkpt>
      <trkpt lat="28.39658" lon="83.7276">
        <ele>3124.9</ele>
        <time>2013-11-02T03:53:47Z</time>
      </trkpt>
      <trkpt lat="28.3966" lon="83.72779">
        <ele>3125.86</ele>
        <time>2013-11-02T03:53:59Z</time>
      </trkpt>
      <trkpt lat="28.39661" lon="83.72787">
        <ele>3123.46</ele>
        <time>2013-11-02T03:54:16Z</time>
      </trkpt>
      <trkpt lat="28.39664" lon="83.728">
        <ele>3121.06</ele>
        <time>2013-11-02T03:54:30Z</time>
      </trkpt>
      <trkpt lat="28.39675" lon="83.72816">
        <ele>3117.69</ele>
        <time>2013-11-02T03:54:46Z</time>
      </trkpt>
      <trkpt lat="28.39688" lon="83.72821">
        <ele>3114.81</ele>
        <time>2013-11-02T03:55:00Z</time>
      </trkpt>
      <trkpt lat="28.39687" lon="83.7283">
        <ele>3111.92</ele>
        <time>2013-11-02T03:55:15Z</time>
      </trkpt>
      <trkpt lat="28.39696" lon="83.72838">
        <ele>3110</ele>
        <time>2013-11-02T03:55:32Z</time>
      </trkpt>
      <trkpt lat="28.39698" lon="83.72847">
        <ele>3108.56</ele>
        <time>2013-11-02T03:55:52Z</time>
      </trkpt>
      <trkpt lat="28.39698" lon="83.72855">
        <ele>3107.12</ele>
        <time>2013-11-02T03:56:08Z</time>
      </trkpt>
      <trkpt lat="28.39698" lon="83.72858">
        <ele>3105.68</ele>
        <time>2013-11-02T03:56:25Z</time>
      </trkpt>
      <trkpt lat="28.39695" lon="83.72866">
        <ele>3104.71</ele>
        <time>2013-11-02T03:56:32Z</time>
      </trkpt>
      <trkpt lat="28.3969" lon="83.72874">
        <ele>3103.75</ele>
        <time>2013-11-02T03:56:45Z</time>
      </trkpt>
      <trkpt lat="28.39686" lon="83.72881">
        <ele>3103.75</ele>
        <time>2013-11-02T03:56:57Z</time>
      </trkpt>
      <trkpt lat="28.39686" lon="83.72879">
        <ele>3103.75</ele>
        <time>2013-11-02T03:57:13Z</time>
      </trkpt>
      <trkpt lat="28.3968" lon="83.72882">
        <ele>3103.27</ele>
        <time>2013-11-02T03:57:21Z</time>
      </trkpt>
      <trkpt lat="28.39672" lon="83.72885">
        <ele>3102.79</ele>
        <time>2013-11-02T03:57:35Z</time>
      </trkpt>
      <trkpt lat="28.39673" lon="83.72886">
        <ele>3103.27</ele>
        <time>2013-11-02T03:57:58Z</time>
      </trkpt>
      <trkpt lat="28.39672" lon="83.72886">
        <ele>3103.27</ele>
        <time>2013-11-02T03:58:22Z</time>
      </trkpt>
      <trkpt lat="28.39673" lon="83.72888">
        <ele>3103.27</ele>
        <time>2013-11-02T03:58:41Z</time>
      </trkpt>
      <trkpt lat="28.39673" lon="83.72889">
        <ele>3103.27</ele>
        <time>2013-11-02T03:59:04Z</time>
      </trkpt>
      <trkpt lat="28.39671" lon="83.72888">
        <ele>3103.27</ele>
        <time>2013-11-02T03:59:27Z</time>
      </trkpt>
      <trkpt lat="28.39673" lon="83.72889">
        <ele>3102.79</ele>
        <time>2013-11-02T03:59:47Z</time>
      </trkpt>
      <trkpt lat="28.39672" lon="83.72889">
        <ele>3102.79</ele>
        <time>2013-11-02T04:00:04Z</time>
      </trkpt>
      <trkpt lat="28.39672" lon="83.72889">
        <ele>3102.79</ele>
        <time>2013-11-02T04:00:27Z</time>
      </trkpt>
      <trkpt lat="28.39671" lon="83.72889">
        <ele>3102.79</ele>
        <time>2013-11-02T04:00:52Z</time>
      </trkpt>
      <trkpt lat="28.39668" lon="83.72891">
        <ele>3102.31</ele>
        <time>2013-11-02T04:01:08Z</time>
      </trkpt>
      <trkpt lat="28.39663" lon="83.72897">
        <ele>3099.43</ele>
        <time>2013-11-02T04:01:20Z</time>
      </trkpt>
      <trkpt lat="28.39662" lon="83.72898">
        <ele>3098.95</ele>
        <time>2013-11-02T04:01:21Z</time>
      </trkpt>
      <trkpt lat="28.39657" lon="83.72902">
        <ele>3098.95</ele>
        <time>2013-11-02T04:01:27Z</time>
      </trkpt>
      <trkpt lat="28.39644" lon="83.72911">
        <ele>3097.02</ele>
        <time>2013-11-02T04:01:39Z</time>
      </trkpt>
      <trkpt lat="28.39641" lon="83.72915">
        <ele>3096.06</ele>
        <time>2013-11-02T04:01:52Z</time>
      </trkpt>
      <trkpt lat="28.39633" lon="83.72918">
        <ele>3094.14</ele>
        <time>2013-11-02T04:02:01Z</time>
      </trkpt>
      <trkpt lat="28.39629" lon="83.72924">
        <ele>3090.78</ele>
        <time>2013-11-02T04:02:11Z</time>
      </trkpt>
      <trkpt lat="28.39627" lon="83.72925">
        <ele>3088.85</ele>
        <time>2013-11-02T04:02:16Z</time>
      </trkpt>
      <trkpt lat="28.39629" lon="83.72929">
        <ele>3086.45</ele>
        <time>2013-11-02T04:02:27Z</time>
      </trkpt>
      <trkpt lat="28.39634" lon="83.72926">
        <ele>3083.57</ele>
        <time>2013-11-02T04:02:39Z</time>
      </trkpt>
      <trkpt lat="28.39634" lon="83.72926">
        <ele>3083.57</ele>
        <time>2013-11-02T04:02:40Z</time>
      </trkpt>
      <trkpt lat="28.39632" lon="83.72934">
        <ele>3081.16</ele>
        <time>2013-11-02T04:02:50Z</time>
      </trkpt>
      <trkpt lat="28.39632" lon="83.72936">
        <ele>3080.68</ele>
        <time>2013-11-02T04:02:52Z</time>
      </trkpt>
      <trkpt lat="28.39627" lon="83.72947">
        <ele>3077.8</ele>
        <time>2013-11-02T04:03:03Z</time>
      </trkpt>
      <trkpt lat="28.39632" lon="83.72965">
        <ele>3074.91</ele>
        <time>2013-11-02T04:03:15Z</time>
      </trkpt>
      <trkpt lat="28.3963" lon="83.72966">
        <ele>3072.99</ele>
        <time>2013-11-02T04:03:25Z</time>
      </trkpt>
      <trkpt lat="28.39619" lon="83.72966">
        <ele>3070.11</ele>
        <time>2013-11-02T04:03:42Z</time>
      </trkpt>
      <trkpt lat="28.39612" lon="83.72967">
        <ele>3069.63</ele>
        <time>2013-11-02T04:04:01Z</time>
      </trkpt>
      <trkpt lat="28.3961" lon="83.72963">
        <ele>3069.63</ele>
        <time>2013-11-02T04:04:26Z</time>
      </trkpt>
      <trkpt lat="28.39608" lon="83.72963">
        <ele>3069.63</ele>
        <time>2013-11-02T04:04:51Z</time>
      </trkpt>
      <trkpt lat="28.39604" lon="83.72969">
        <ele>3069.15</ele>
        <time>2013-11-02T04:05:09Z</time>
      </trkpt>
      <trkpt lat="28.396" lon="83.72967">
        <ele>3069.63</ele>
        <time>2013-11-02T04:05:40Z</time>
      </trkpt>
      <trkpt lat="28.396" lon="83.72967">
        <ele>3069.63</ele>
        <time>2013-11-02T04:06:07Z</time>
      </trkpt>
      <trkpt lat="28.39592" lon="83.72967">
        <ele>3068.67</ele>
        <time>2013-11-02T04:06:26Z</time>
      </trkpt>
      <trkpt lat="28.39592" lon="83.72993">
        <ele>3065.3</ele>
        <time>2013-11-02T04:06:40Z</time>
      </trkpt>
      <trkpt lat="28.39592" lon="83.73014">
        <ele>3062.42</ele>
        <time>2013-11-02T04:06:53Z</time>
      </trkpt>
      <trkpt lat="28.39589" lon="83.73031">
        <ele>3059.05</ele>
        <time>2013-11-02T04:07:06Z</time>
      </trkpt>
      <trkpt lat="28.39584" lon="83.73037">
        <ele>3056.17</ele>
        <time>2013-11-02T04:07:19Z</time>
      </trkpt>
      <trkpt lat="28.39579" lon="83.73054">
        <ele>3053.28</ele>
        <time>2013-11-02T04:07:32Z</time>
      </trkpt>
      <trkpt lat="28.39579" lon="83.73058">
        <ele>3052.8</ele>
        <time>2013-11-02T04:07:35Z</time>
      </trkpt>
      <trkpt lat="28.3958" lon="83.73073">
        <ele>3052.32</ele>
        <time>2013-11-02T04:07:48Z</time>
      </trkpt>
      <trkpt lat="28.39582" lon="83.73081">
        <ele>3052.8</ele>
        <time>2013-11-02T04:08:04Z</time>
      </trkpt>
      <trkpt lat="28.39582" lon="83.73083">
        <ele>3052.8</ele>
        <time>2013-11-02T04:08:10Z</time>
      </trkpt>
      <trkpt lat="28.39584" lon="83.73089">
        <ele>3051.36</ele>
        <time>2013-11-02T04:08:20Z</time>
      </trkpt>
      <trkpt lat="28.39584" lon="83.73103">
        <ele>3050.4</ele>
        <time>2013-11-02T04:08:35Z</time>
      </trkpt>
      <trkpt lat="28.39585" lon="83.73118">
        <ele>3047.52</ele>
        <time>2013-11-02T04:08:46Z</time>
      </trkpt>
      <trkpt lat="28.39588" lon="83.73136">
        <ele>3046.07</ele>
        <time>2013-11-02T04:09:00Z</time>
      </trkpt>
      <trkpt lat="28.39584" lon="83.7315">
        <ele>3046.56</ele>
        <time>2013-11-02T04:09:11Z</time>
      </trkpt>
      <trkpt lat="28.39583" lon="83.73153">
        <ele>3046.07</ele>
        <time>2013-11-02T04:09:26Z</time>
      </trkpt>
      <trkpt lat="28.39584" lon="83.73158">
        <ele>3045.59</ele>
        <time>2013-11-02T04:09:41Z</time>
      </trkpt>
      <trkpt lat="28.39585" lon="83.73158">
        <ele>3045.59</ele>
        <time>2013-11-02T04:10:04Z</time>
      </trkpt>
      <trkpt lat="28.39582" lon="83.73157">
        <ele>3046.07</ele>
        <time>2013-11-02T04:10:15Z</time>
      </trkpt>
      <trkpt lat="28.39582" lon="83.73157">
        <ele>3045.59</ele>
        <time>2013-11-02T04:10:43Z</time>
      </trkpt>
      <trkpt lat="28.39582" lon="83.73157">
        <ele>3045.59</ele>
        <time>2013-11-02T04:11:15Z</time>
      </trkpt>
      <trkpt lat="28.39583" lon="83.73157">
        <ele>3046.07</ele>
        <time>2013-11-02T04:11:33Z</time>
      </trkpt>
      <trkpt lat="28.39582" lon="83.73162">
        <ele>3045.59</ele>
        <time>2013-11-02T04:11:43Z</time>
      </trkpt>
      <trkpt lat="28.39582" lon="83.73162">
        <ele>3045.59</ele>
        <time>2013-11-02T04:11:56Z</time>
      </trkpt>
      <trkpt lat="28.39582" lon="83.73157">
        <ele>3045.59</ele>
        <time>2013-11-02T04:12:11Z</time>
      </trkpt>
      <trkpt lat="28.39583" lon="83.73157">
        <ele>3045.11</ele>
        <time>2013-11-02T04:12:38Z</time>
      </trkpt>
      <trkpt lat="28.39583" lon="83.73157">
        <ele>3045.11</ele>
        <time>2013-11-02T04:13:04Z</time>
      </trkpt>
      <trkpt lat="28.39583" lon="83.73157">
        <ele>3045.11</ele>
        <time>2013-11-02T04:13:37Z</time>
      </trkpt>
      <trkpt lat="28.39583" lon="83.73157">
        <ele>3045.11</ele>
        <time>2013-11-02T04:14:02Z</time>
      </trkpt>
      <trkpt lat="28.39583" lon="83.73157">
        <ele>3045.11</ele>
        <time>2013-11-02T04:14:25Z</time>
      </trkpt>
      <trkpt lat="28.39585" lon="83.73156">
        <ele>3044.63</ele>
        <time>2013-11-02T04:14:42Z</time>
      </trkpt>
      <trkpt lat="28.39583" lon="83.73157">
        <ele>3044.63</ele>
        <time>2013-11-02T04:14:59Z</time>
      </trkpt>
      <trkpt lat="28.39582" lon="83.73156">
        <ele>3044.63</ele>
        <time>2013-11-02T04:15:25Z</time>
      </trkpt>
      <trkpt lat="28.39581" lon="83.73156">
        <ele>3044.63</ele>
        <time>2013-11-02T04:15:52Z</time>
      </trkpt>
      <trkpt lat="28.39581" lon="83.73156">
        <ele>3044.15</ele>
        <time>2013-11-02T04:16:23Z</time>
      </trkpt>
      <trkpt lat="28.39581" lon="83.73156">
        <ele>3044.15</ele>
        <time>2013-11-02T04:16:55Z</time>
      </trkpt>
      <trkpt lat="28.39582" lon="83.73156">
        <ele>3044.15</ele>
        <time>2013-11-02T04:17:19Z</time>
      </trkpt>
      <trkpt lat="28.39582" lon="83.73156">
        <ele>3044.63</ele>
        <time>2013-11-02T04:17:48Z</time>
      </trkpt>
      <trkpt lat="28.39582" lon="83.73156">
        <ele>3044.63</ele>
        <time>2013-11-02T04:18:18Z</time>
      </trkpt>
      <trkpt lat="28.39582" lon="83.73155">
        <ele>3044.15</ele>
        <time>2013-11-02T04:18:50Z</time>
      </trkpt>
      <trkpt lat="28.39582" lon="83.73155">
        <ele>3044.15</ele>
        <time>2013-11-02T04:19:21Z</time>
      </trkpt>
      <trkpt lat="28.39583" lon="83.73154">
        <ele>3044.63</ele>
        <time>2013-11-02T04:19:51Z</time>
      </trkpt>
      <trkpt lat="28.39584" lon="83.73153">
        <ele>3044.15</ele>
        <time>2013-11-02T04:20:20Z</time>
      </trkpt>
      <trkpt lat="28.39587" lon="83.73153">
        <ele>3044.63</ele>
        <time>2013-11-02T04:20:51Z</time>
      </trkpt>
      <trkpt lat="28.39586" lon="83.73154">
        <ele>3044.15</ele>
        <time>2013-11-02T04:21:18Z</time>
      </trkpt>
      <trkpt lat="28.39585" lon="83.73154">
        <ele>3044.15</ele>
        <time>2013-11-02T04:21:44Z</time>
      </trkpt>
      <trkpt lat="28.39585" lon="83.73153">
        <ele>3044.63</ele>
        <time>2013-11-02T04:22:17Z</time>
      </trkpt>
      <trkpt lat="28.39584" lon="83.73155">
        <ele>3044.15</ele>
        <time>2013-11-02T04:22:42Z</time>
      </trkpt>
      <trkpt lat="28.39585" lon="83.73156">
        <ele>3044.15</ele>
        <time>2013-11-02T04:23:10Z</time>
      </trkpt>
      <trkpt lat="28.39584" lon="83.73156">
        <ele>3044.15</ele>
        <time>2013-11-02T04:23:35Z</time>
      </trkpt>
      <trkpt lat="28.39584" lon="83.73156">
        <ele>3044.15</ele>
        <time>2013-11-02T04:24:06Z</time>
      </trkpt>
      <trkpt lat="28.39583" lon="83.73156">
        <ele>3044.15</ele>
        <time>2013-11-02T04:24:34Z</time>
      </trkpt>
      <trkpt lat="28.39583" lon="83.73156">
        <ele>3044.15</ele>
        <time>2013-11-02T04:24:55Z</time>
      </trkpt>
      <trkpt lat="28.39582" lon="83.73156">
        <ele>3044.15</ele>
        <time>2013-11-02T04:25:32Z</time>
      </trkpt>
      <trkpt lat="28.39583" lon="83.73157">
        <ele>3044.15</ele>
        <time>2013-11-02T04:26:06Z</time>
      </trkpt>
      <trkpt lat="28.39583" lon="83.73156">
        <ele>3044.63</ele>
        <time>2013-11-02T04:26:29Z</time>
      </trkpt>
      <trkpt lat="28.39584" lon="83.73157">
        <ele>3044.15</ele>
        <time>2013-11-02T04:26:54Z</time>
      </trkpt>
      <trkpt lat="28.39583" lon="83.73155">
        <ele>3044.15</ele>
        <time>2013-11-02T04:27:17Z</time>
      </trkpt>
      <trkpt lat="28.39583" lon="83.73157">
        <ele>3044.63</ele>
        <time>2013-11-02T04:27:36Z</time>
      </trkpt>
      <trkpt lat="28.39584" lon="83.73157">
        <ele>3044.15</ele>
        <time>2013-11-02T04:27:46Z</time>
      </trkpt>
      <trkpt lat="28.39583" lon="83.73157">
        <ele>3044.15</ele>
        <time>2013-11-02T04:28:04Z</time>
      </trkpt>
      <trkpt lat="28.39584" lon="83.73157">
        <ele>3044.15</ele>
        <time>2013-11-02T04:28:19Z</time>
      </trkpt>
      <trkpt lat="28.39584" lon="83.73158">
        <ele>3043.67</ele>
        <time>2013-11-02T04:28:39Z</time>
      </trkpt>
      <trkpt lat="28.39585" lon="83.73158">
        <ele>3043.67</ele>
        <time>2013-11-02T04:28:58Z</time>
      </trkpt>
      <trkpt lat="28.39585" lon="83.73159">
        <ele>3043.67</ele>
        <time>2013-11-02T04:29:19Z</time>
      </trkpt>
      <trkpt lat="28.39585" lon="83.73159">
        <ele>3043.67</ele>
        <time>2013-11-02T04:29:35Z</time>
      </trkpt>
      <trkpt lat="28.39585" lon="83.7316">
        <ele>3043.67</ele>
        <time>2013-11-02T04:29:53Z</time>
      </trkpt>
      <trkpt lat="28.39585" lon="83.7316">
        <ele>3043.67</ele>
        <time>2013-11-02T04:30:18Z</time>
      </trkpt>
      <trkpt lat="28.39585" lon="83.7316">
        <ele>3043.67</ele>
        <time>2013-11-02T04:30:33Z</time>
      </trkpt>
      <trkpt lat="28.39585" lon="83.73161">
        <ele>3044.15</ele>
        <time>2013-11-02T04:30:54Z</time>
      </trkpt>
      <trkpt lat="28.39585" lon="83.7316">
        <ele>3043.67</ele>
        <time>2013-11-02T04:31:16Z</time>
      </trkpt>
      <trkpt lat="28.39585" lon="83.7316">
        <ele>3043.19</ele>
        <time>2013-11-02T04:31:34Z</time>
      </trkpt>
      <trkpt lat="28.39582" lon="83.73163">
        <ele>3043.19</ele>
        <time>2013-11-02T04:31:51Z</time>
      </trkpt>
      <trkpt lat="28.39583" lon="83.73164">
        <ele>3039.83</ele>
        <time>2013-11-02T04:32:04Z</time>
      </trkpt>
      <trkpt lat="28.39585" lon="83.73172">
        <ele>3037.9</ele>
        <time>2013-11-02T04:32:15Z</time>
      </trkpt>
      <trkpt lat="28.39585" lon="83.73172">
        <ele>3035.02</ele>
        <time>2013-11-02T04:32:26Z</time>
      </trkpt>
      <trkpt lat="28.39588" lon="83.73174">
        <ele>3033.58</ele>
        <time>2013-11-02T04:32:40Z</time>
      </trkpt>
      <trkpt lat="28.39593" lon="83.73188">
        <ele>3031.17</ele>
        <time>2013-11-02T04:32:52Z</time>
      </trkpt>
      <trkpt lat="28.39589" lon="83.73196">
        <ele>3028.77</ele>
        <time>2013-11-02T04:33:06Z</time>
      </trkpt>
      <trkpt lat="28.39588" lon="83.73198">
        <ele>3027.33</ele>
        <time>2013-11-02T04:33:21Z</time>
      </trkpt>
      <trkpt lat="28.39588" lon="83.73214">
        <ele>3025.41</ele>
        <time>2013-11-02T04:33:33Z</time>
      </trkpt>
      <trkpt lat="28.39585" lon="83.73228">
        <ele>3022.04</ele>
        <time>2013-11-02T04:33:46Z</time>
      </trkpt>
      <trkpt lat="28.39582" lon="83.73244">
        <ele>3020.12</ele>
        <time>2013-11-02T04:34:01Z</time>
      </trkpt>
      <trkpt lat="28.39576" lon="83.73257">
        <ele>3019.16</ele>
        <time>2013-11-02T04:34:16Z</time>
      </trkpt>
      <trkpt lat="28.39572" lon="83.73263">
        <ele>3016.75</ele>
        <time>2013-11-02T04:34:30Z</time>
      </trkpt>
      <trkpt lat="28.39559" lon="83.73284">
        <ele>3015.31</ele>
        <time>2013-11-02T04:34:45Z</time>
      </trkpt>
      <trkpt lat="28.39554" lon="83.73285">
        <ele>3014.35</ele>
        <time>2013-11-02T04:34:51Z</time>
      </trkpt>
      <trkpt lat="28.39546" lon="83.73289">
        <ele>3014.35</ele>
        <time>2013-11-02T04:35:01Z</time>
      </trkpt>
      <trkpt lat="28.39546" lon="83.73289">
        <ele>3010.99</ele>
        <time>2013-11-02T04:35:02Z</time>
      </trkpt>
      <trkpt lat="28.39546" lon="83.7329">
        <ele>3014.35</ele>
        <time>2013-11-02T04:35:03Z</time>
      </trkpt>
      <trkpt lat="28.39545" lon="83.73298">
        <ele>3013.87</ele>
        <time>2013-11-02T04:35:09Z</time>
      </trkpt>
      <trkpt lat="28.39538" lon="83.73307">
        <ele>3013.87</ele>
        <time>2013-11-02T04:35:23Z</time>
      </trkpt>
      <trkpt lat="28.39536" lon="83.73306">
        <ele>3013.87</ele>
        <time>2013-11-02T04:35:29Z</time>
      </trkpt>
      <trkpt lat="28.39526" lon="83.73313">
        <ele>3014.83</ele>
        <time>2013-11-02T04:35:41Z</time>
      </trkpt>
      <trkpt lat="28.39518" lon="83.73325">
        <ele>3017.72</ele>
        <time>2013-11-02T04:35:55Z</time>
      </trkpt>
      <trkpt lat="28.39516" lon="83.73328">
        <ele>3017.23</ele>
        <time>2013-11-02T04:35:57Z</time>
      </trkpt>
      <trkpt lat="28.39512" lon="83.73336">
        <ele>3020.12</ele>
        <time>2013-11-02T04:36:08Z</time>
      </trkpt>
      <trkpt lat="28.39512" lon="83.7334">
        <ele>3021.08</ele>
        <time>2013-11-02T04:36:12Z</time>
      </trkpt>
      <trkpt lat="28.39509" lon="83.7335">
        <ele>3022.52</ele>
        <time>2013-11-02T04:36:26Z</time>
      </trkpt>
      <trkpt lat="28.395" lon="83.73357">
        <ele>3020.6</ele>
        <time>2013-11-02T04:36:39Z</time>
      </trkpt>
      <trkpt lat="28.39496" lon="83.73364">
        <ele>3017.72</ele>
        <time>2013-11-02T04:36:50Z</time>
      </trkpt>
      <trkpt lat="28.39495" lon="83.7337">
        <ele>3014.83</ele>
        <time>2013-11-02T04:37:03Z</time>
      </trkpt>
      <trkpt lat="28.39494" lon="83.73376">
        <ele>3014.35</ele>
        <time>2013-11-02T04:37:07Z</time>
      </trkpt>
      <trkpt lat="28.39492" lon="83.73382">
        <ele>3012.91</ele>
        <time>2013-11-02T04:37:13Z</time>
      </trkpt>
      <trkpt lat="28.39493" lon="83.73385">
        <ele>3009.54</ele>
        <time>2013-11-02T04:37:25Z</time>
      </trkpt>
      <trkpt lat="28.39495" lon="83.73388">
        <ele>3007.62</ele>
        <time>2013-11-02T04:37:36Z</time>
      </trkpt>
      <trkpt lat="28.395" lon="83.73391">
        <ele>3006.18</ele>
        <time>2013-11-02T04:37:40Z</time>
      </trkpt>
      <trkpt lat="28.39498" lon="83.73397">
        <ele>3003.3</ele>
        <time>2013-11-02T04:37:51Z</time>
      </trkpt>
      <trkpt lat="28.39494" lon="83.73402">
        <ele>3000.41</ele>
        <time>2013-11-02T04:38:02Z</time>
      </trkpt>
      <trkpt lat="28.39494" lon="83.73405">
        <ele>2997.05</ele>
        <time>2013-11-02T04:38:15Z</time>
      </trkpt>
      <trkpt lat="28.39499" lon="83.73412">
        <ele>2993.68</ele>
        <time>2013-11-02T04:38:28Z</time>
      </trkpt>
      <trkpt lat="28.39498" lon="83.73428">
        <ele>2991.28</ele>
        <time>2013-11-02T04:38:43Z</time>
      </trkpt>
      <trkpt lat="28.39501" lon="83.73436">
        <ele>2991.76</ele>
        <time>2013-11-02T04:38:55Z</time>
      </trkpt>
      <trkpt lat="28.39506" lon="83.73444">
        <ele>2993.68</ele>
        <time>2013-11-02T04:39:08Z</time>
      </trkpt>
      <trkpt lat="28.39511" lon="83.73444">
        <ele>2991.28</ele>
        <time>2013-11-02T04:39:22Z</time>
      </trkpt>
      <trkpt lat="28.39512" lon="83.73449">
        <ele>2987.91</ele>
        <time>2013-11-02T04:39:39Z</time>
      </trkpt>
      <trkpt lat="28.39512" lon="83.73452">
        <ele>2987.43</ele>
        <time>2013-11-02T04:39:43Z</time>
      </trkpt>
      <trkpt lat="28.39515" lon="83.7346">
        <ele>2985.99</ele>
        <time>2013-11-02T04:39:48Z</time>
      </trkpt>
      <trkpt lat="28.39516" lon="83.73486">
        <ele>2983.11</ele>
        <time>2013-11-02T04:40:04Z</time>
      </trkpt>
      <trkpt lat="28.39516" lon="83.73486">
        <ele>2980.22</ele>
        <time>2013-11-02T04:40:19Z</time>
      </trkpt>
      <trkpt lat="28.39519" lon="83.73483">
        <ele>2976.86</ele>
        <time>2013-11-02T04:40:32Z</time>
      </trkpt>
      <trkpt lat="28.39522" lon="83.73487">
        <ele>2973.5</ele>
        <time>2013-11-02T04:40:48Z</time>
      </trkpt>
      <trkpt lat="28.39522" lon="83.73491">
        <ele>2970.61</ele>
        <time>2013-11-02T04:40:59Z</time>
      </trkpt>
      <trkpt lat="28.39488" lon="83.73495">
        <ele>2968.21</ele>
        <time>2013-11-02T04:41:17Z</time>
      </trkpt>
      <trkpt lat="28.39461" lon="83.73489">
        <ele>2969.17</ele>
        <time>2013-11-02T04:41:38Z</time>
      </trkpt>
      <trkpt lat="28.39455" lon="83.73477">
        <ele>2969.17</ele>
        <time>2013-11-02T04:42:04Z</time>
      </trkpt>
      <trkpt lat="28.39456" lon="83.73475">
        <ele>2969.65</ele>
        <time>2013-11-02T04:42:26Z</time>
      </trkpt>
      <trkpt lat="28.39457" lon="83.73475">
        <ele>2970.13</ele>
        <time>2013-11-02T04:42:48Z</time>
      </trkpt>
      <trkpt lat="28.39457" lon="83.73472">
        <ele>2970.13</ele>
        <time>2013-11-02T04:43:09Z</time>
      </trkpt>
      <trkpt lat="28.39457" lon="83.73472">
        <ele>2970.61</ele>
        <time>2013-11-02T04:43:40Z</time>
      </trkpt>
      <trkpt lat="28.39457" lon="83.73473">
        <ele>2968.69</ele>
        <time>2013-11-02T04:44:03Z</time>
      </trkpt>
      <trkpt lat="28.39459" lon="83.73478">
        <ele>2967.73</ele>
        <time>2013-11-02T04:44:13Z</time>
      </trkpt>
      <trkpt lat="28.3947" lon="83.73487">
        <ele>2965.32</ele>
        <time>2013-11-02T04:44:21Z</time>
      </trkpt>
      <trkpt lat="28.39482" lon="83.73501">
        <ele>2961.96</ele>
        <time>2013-11-02T04:44:39Z</time>
      </trkpt>
      <trkpt lat="28.39475" lon="83.73502">
        <ele>2960.04</ele>
        <time>2013-11-02T04:44:56Z</time>
      </trkpt>
      <trkpt lat="28.39468" lon="83.73502">
        <ele>2957.15</ele>
        <time>2013-11-02T04:45:13Z</time>
      </trkpt>
      <trkpt lat="28.39464" lon="83.73505">
        <ele>2955.23</ele>
        <time>2013-11-02T04:45:21Z</time>
      </trkpt>
      <trkpt lat="28.39453" lon="83.73512">
        <ele>2951.87</ele>
        <time>2013-11-02T04:45:33Z</time>
      </trkpt>
      <trkpt lat="28.39458" lon="83.73511">
        <ele>2950.42</ele>
        <time>2013-11-02T04:45:50Z</time>
      </trkpt>
      <trkpt lat="28.3948" lon="83.735">
        <ele>2950.42</ele>
        <time>2013-11-02T04:46:12Z</time>
      </trkpt>
      <trkpt lat="28.39465" lon="83.73496">
        <ele>2948.98</ele>
        <time>2013-11-02T04:46:50Z</time>
      </trkpt>
      <trkpt lat="28.39461" lon="83.73517">
        <ele>2949.46</ele>
        <time>2013-11-02T04:47:05Z</time>
      </trkpt>
      <trkpt lat="28.3946" lon="83.73529">
        <ele>2947.54</ele>
        <time>2013-11-02T04:47:13Z</time>
      </trkpt>
      <trkpt lat="28.39461" lon="83.73538">
        <ele>2945.14</ele>
        <time>2013-11-02T04:47:26Z</time>
      </trkpt>
      <trkpt lat="28.39464" lon="83.73545">
        <ele>2944.17</ele>
        <time>2013-11-02T04:47:31Z</time>
      </trkpt>
      <trkpt lat="28.39467" lon="83.73562">
        <ele>2941.77</ele>
        <time>2013-11-02T04:47:46Z</time>
      </trkpt>
      <trkpt lat="28.39463" lon="83.73573">
        <ele>2942.73</ele>
        <time>2013-11-02T04:47:59Z</time>
      </trkpt>
      <trkpt lat="28.39461" lon="83.73591">
        <ele>2945.62</ele>
        <time>2013-11-02T04:48:14Z</time>
      </trkpt>
      <trkpt lat="28.3946" lon="83.736">
        <ele>2943.69</ele>
        <time>2013-11-02T04:48:26Z</time>
      </trkpt>
      <trkpt lat="28.3946" lon="83.73603">
        <ele>2942.73</ele>
        <time>2013-11-02T04:48:31Z</time>
      </trkpt>
      <trkpt lat="28.39459" lon="83.73623">
        <ele>2940.81</ele>
        <time>2013-11-02T04:48:48Z</time>
      </trkpt>
      <trkpt lat="28.39453" lon="83.73632">
        <ele>2940.81</ele>
        <time>2013-11-02T04:49:07Z</time>
      </trkpt>
      <trkpt lat="28.39445" lon="83.73645">
        <ele>2937.45</ele>
        <time>2013-11-02T04:49:21Z</time>
      </trkpt>
      <trkpt lat="28.39444" lon="83.73657">
        <ele>2937.45</ele>
        <time>2013-11-02T04:49:32Z</time>
      </trkpt>
      <trkpt lat="28.39431" lon="83.73662">
        <ele>2940.33</ele>
        <time>2013-11-02T04:49:47Z</time>
      </trkpt>
      <trkpt lat="28.39418" lon="83.73667">
        <ele>2938.89</ele>
        <time>2013-11-02T04:49:59Z</time>
      </trkpt>
      <trkpt lat="28.39411" lon="83.73668">
        <ele>2936</ele>
        <time>2013-11-02T04:50:10Z</time>
      </trkpt>
      <trkpt lat="28.39403" lon="83.73673">
        <ele>2934.56</ele>
        <time>2013-11-02T04:50:19Z</time>
      </trkpt>
      <trkpt lat="28.39404" lon="83.73686">
        <ele>2932.64</ele>
        <time>2013-11-02T04:50:29Z</time>
      </trkpt>
      <trkpt lat="28.39407" lon="83.73693">
        <ele>2930.72</ele>
        <time>2013-11-02T04:50:44Z</time>
      </trkpt>
      <trkpt lat="28.39398" lon="83.73701">
        <ele>2930.24</ele>
        <time>2013-11-02T04:50:57Z</time>
      </trkpt>
      <trkpt lat="28.39394" lon="83.73705">
        <ele>2930.72</ele>
        <time>2013-11-02T04:51:04Z</time>
      </trkpt>
      <trkpt lat="28.39394" lon="83.73712">
        <ele>2930.24</ele>
        <time>2013-11-02T04:51:12Z</time>
      </trkpt>
      <trkpt lat="28.39392" lon="83.73716">
        <ele>2930.24</ele>
        <time>2013-11-02T04:51:19Z</time>
      </trkpt>
      <trkpt lat="28.39396" lon="83.73727">
        <ele>2927.35</ele>
        <time>2013-11-02T04:51:32Z</time>
      </trkpt>
      <trkpt lat="28.39396" lon="83.73728">
        <ele>2927.35</ele>
        <time>2013-11-02T04:51:34Z</time>
      </trkpt>
      <trkpt lat="28.39396" lon="83.73741">
        <ele>2924.47</ele>
        <time>2013-11-02T04:51:47Z</time>
      </trkpt>
      <trkpt lat="28.39395" lon="83.73741">
        <ele>2924.47</ele>
        <time>2013-11-02T04:51:48Z</time>
      </trkpt>
      <trkpt lat="28.39392" lon="83.73749">
        <ele>2924.95</ele>
        <time>2013-11-02T04:51:58Z</time>
      </trkpt>
      <trkpt lat="28.39391" lon="83.73749">
        <ele>2924.47</ele>
        <time>2013-11-02T04:52:13Z</time>
      </trkpt>
      <trkpt lat="28.39393" lon="83.73755">
        <ele>2923.51</ele>
        <time>2013-11-02T04:52:24Z</time>
      </trkpt>
      <trkpt lat="28.39392" lon="83.73758">
        <ele>2920.62</ele>
        <time>2013-11-02T04:52:36Z</time>
      </trkpt>
      <trkpt lat="28.39388" lon="83.73763">
        <ele>2917.74</ele>
        <time>2013-11-02T04:52:47Z</time>
      </trkpt>
      <trkpt lat="28.39387" lon="83.73766">
        <ele>2915.34</ele>
        <time>2013-11-02T04:52:57Z</time>
      </trkpt>
      <trkpt lat="28.39387" lon="83.73771">
        <ele>2913.41</ele>
        <time>2013-11-02T04:53:09Z</time>
      </trkpt>
      <trkpt lat="28.39384" lon="83.73769">
        <ele>2912.93</ele>
        <time>2013-11-02T04:53:31Z</time>
      </trkpt>
      <trkpt lat="28.39385" lon="83.73769">
        <ele>2912.93</ele>
        <time>2013-11-02T04:54:00Z</time>
      </trkpt>
      <trkpt lat="28.39387" lon="83.73769">
        <ele>2911.49</ele>
        <time>2013-11-02T04:54:22Z</time>
      </trkpt>
      <trkpt lat="28.39387" lon="83.7377">
        <ele>2909.57</ele>
        <time>2013-11-02T04:54:30Z</time>
      </trkpt>
      <trkpt lat="28.39389" lon="83.73779">
        <ele>2906.2</ele>
        <time>2013-11-02T04:54:42Z</time>
      </trkpt>
      <trkpt lat="28.39389" lon="83.73786">
        <ele>2903.32</ele>
        <time>2013-11-02T04:54:53Z</time>
      </trkpt>
      <trkpt lat="28.39388" lon="83.73787">
        <ele>2899.95</ele>
        <time>2013-11-02T04:55:04Z</time>
      </trkpt>
      <trkpt lat="28.39389" lon="83.73787">
        <ele>2898.51</ele>
        <time>2013-11-02T04:55:09Z</time>
      </trkpt>
      <trkpt lat="28.39393" lon="83.73797">
        <ele>2896.11</ele>
        <time>2013-11-02T04:55:21Z</time>
      </trkpt>
      <trkpt lat="28.39393" lon="83.73798">
        <ele>2895.15</ele>
        <time>2013-11-02T04:55:38Z</time>
      </trkpt>
      <trkpt lat="28.39393" lon="83.73798">
        <ele>2895.15</ele>
        <time>2013-11-02T04:55:39Z</time>
      </trkpt>
      <trkpt lat="28.39393" lon="83.7381">
        <ele>2893.71</ele>
        <time>2013-11-02T04:55:48Z</time>
      </trkpt>
      <trkpt lat="28.39392" lon="83.73814">
        <ele>2892.74</ele>
        <time>2013-11-02T04:55:59Z</time>
      </trkpt>
      <trkpt lat="28.39393" lon="83.73822">
        <ele>2890.82</ele>
        <time>2013-11-02T04:56:11Z</time>
      </trkpt>
      <trkpt lat="28.39394" lon="83.73823">
        <ele>2887.46</ele>
        <time>2013-11-02T04:56:24Z</time>
      </trkpt>
      <trkpt lat="28.39395" lon="83.7382">
        <ele>2884.57</ele>
        <time>2013-11-02T04:56:39Z</time>
      </trkpt>
      <trkpt lat="28.39397" lon="83.73821">
        <ele>2881.69</ele>
        <time>2013-11-02T04:56:52Z</time>
      </trkpt>
      <trkpt lat="28.394" lon="83.73827">
        <ele>2878.81</ele>
        <time>2013-11-02T04:57:02Z</time>
      </trkpt>
      <trkpt lat="28.39404" lon="83.73841">
        <ele>2877.36</ele>
        <time>2013-11-02T04:57:14Z</time>
      </trkpt>
      <trkpt lat="28.39404" lon="83.73842">
        <ele>2876.4</ele>
        <time>2013-11-02T04:57:22Z</time>
      </trkpt>
      <trkpt lat="28.39411" lon="83.7385">
        <ele>2873.04</ele>
        <time>2013-11-02T04:57:35Z</time>
      </trkpt>
      <trkpt lat="28.39417" lon="83.73859">
        <ele>2870.63</ele>
        <time>2013-11-02T04:57:49Z</time>
      </trkpt>
      <trkpt lat="28.39416" lon="83.73869">
        <ele>2869.19</ele>
        <time>2013-11-02T04:58:06Z</time>
      </trkpt>
      <trkpt lat="28.39415" lon="83.73871">
        <ele>2869.67</ele>
        <time>2013-11-02T04:58:18Z</time>
      </trkpt>
      <trkpt lat="28.39418" lon="83.73874">
        <ele>2868.71</ele>
        <time>2013-11-02T04:58:23Z</time>
      </trkpt>
      <trkpt lat="28.39422" lon="83.73877">
        <ele>2867.75</ele>
        <time>2013-11-02T04:58:27Z</time>
      </trkpt>
      <trkpt lat="28.39426" lon="83.73884">
        <ele>2866.31</ele>
        <time>2013-11-02T04:58:34Z</time>
      </trkpt>
      <trkpt lat="28.39428" lon="83.73886">
        <ele>2865.83</ele>
        <time>2013-11-02T04:58:36Z</time>
      </trkpt>
      <trkpt lat="28.39434" lon="83.7389">
        <ele>2865.35</ele>
        <time>2013-11-02T04:58:45Z</time>
      </trkpt>
      <trkpt lat="28.39437" lon="83.73892">
        <ele>2865.35</ele>
        <time>2013-11-02T04:58:48Z</time>
      </trkpt>
      <trkpt lat="28.3944" lon="83.73898">
        <ele>2863.9</ele>
        <time>2013-11-02T04:59:00Z</time>
      </trkpt>
      <trkpt lat="28.39438" lon="83.739">
        <ele>2863.42</ele>
        <time>2013-11-02T04:59:15Z</time>
      </trkpt>
      <trkpt lat="28.39436" lon="83.739">
        <ele>2863.42</ele>
        <time>2013-11-02T04:59:40Z</time>
      </trkpt>
      <trkpt lat="28.39438" lon="83.73901">
        <ele>2863.42</ele>
        <time>2013-11-02T05:00:05Z</time>
      </trkpt>
      <trkpt lat="28.39439" lon="83.73899">
        <ele>2863.9</ele>
        <time>2013-11-02T05:00:34Z</time>
      </trkpt>
      <trkpt lat="28.39439" lon="83.73898">
        <ele>2863.42</ele>
        <time>2013-11-02T05:00:45Z</time>
      </trkpt>
      <trkpt lat="28.39441" lon="83.73899">
        <ele>2862.94</ele>
        <time>2013-11-02T05:00:48Z</time>
      </trkpt>
      <trkpt lat="28.39446" lon="83.73903">
        <ele>2861.5</ele>
        <time>2013-11-02T05:00:57Z</time>
      </trkpt>
      <trkpt lat="28.39446" lon="83.73907">
        <ele>2860.54</ele>
        <time>2013-11-02T05:01:02Z</time>
      </trkpt>
      <trkpt lat="28.39443" lon="83.73912">
        <ele>2860.06</ele>
        <time>2013-11-02T05:01:08Z</time>
      </trkpt>
      <trkpt lat="28.39441" lon="83.73918">
        <ele>2859.1</ele>
        <time>2013-11-02T05:01:14Z</time>
      </trkpt>
      <trkpt lat="28.39441" lon="83.73922">
        <ele>2858.62</ele>
        <time>2013-11-02T05:01:17Z</time>
      </trkpt>
      <trkpt lat="28.39444" lon="83.73932">
        <ele>2858.14</ele>
        <time>2013-11-02T05:01:25Z</time>
      </trkpt>
      <trkpt lat="28.39444" lon="83.73937">
        <ele>2856.69</ele>
        <time>2013-11-02T05:01:29Z</time>
      </trkpt>
      <trkpt lat="28.39445" lon="83.73943">
        <ele>2856.21</ele>
        <time>2013-11-02T05:01:34Z</time>
      </trkpt>
      <trkpt lat="28.39443" lon="83.73947">
        <ele>2855.73</ele>
        <time>2013-11-02T05:01:38Z</time>
      </trkpt>
      <trkpt lat="28.39439" lon="83.73951">
        <ele>2854.77</ele>
        <time>2013-11-02T05:01:44Z</time>
      </trkpt>
      <trkpt lat="28.39438" lon="83.73954">
        <ele>2854.77</ele>
        <time>2013-11-02T05:01:51Z</time>
      </trkpt>
      <trkpt lat="28.39441" lon="83.7396">
        <ele>2852.85</ele>
        <time>2013-11-02T05:02:02Z</time>
      </trkpt>
      <trkpt lat="28.39442" lon="83.73965">
        <ele>2852.37</ele>
        <time>2013-11-02T05:02:09Z</time>
      </trkpt>
      <trkpt lat="28.39441" lon="83.73979">
        <ele>2849.48</ele>
        <time>2013-11-02T05:02:23Z</time>
      </trkpt>
      <trkpt lat="28.39441" lon="83.73989">
        <ele>2847.56</ele>
        <time>2013-11-02T05:02:35Z</time>
      </trkpt>
      <trkpt lat="28.39442" lon="83.73993">
        <ele>2845.16</ele>
        <time>2013-11-02T05:02:45Z</time>
      </trkpt>
      <trkpt lat="28.39438" lon="83.74006">
        <ele>2841.31</ele>
        <time>2013-11-02T05:03:00Z</time>
      </trkpt>
      <trkpt lat="28.39438" lon="83.74008">
        <ele>2840.83</ele>
        <time>2013-11-02T05:03:03Z</time>
      </trkpt>
      <trkpt lat="28.39436" lon="83.74021">
        <ele>2838.91</ele>
        <time>2013-11-02T05:03:19Z</time>
      </trkpt>
      <trkpt lat="28.39433" lon="83.74042">
        <ele>2836.03</ele>
        <time>2013-11-02T05:03:37Z</time>
      </trkpt>
      <trkpt lat="28.39431" lon="83.74064">
        <ele>2834.1</ele>
        <time>2013-11-02T05:03:52Z</time>
      </trkpt>
      <trkpt lat="28.39429" lon="83.74071">
        <ele>2832.66</ele>
        <time>2013-11-02T05:04:04Z</time>
      </trkpt>
      <trkpt lat="28.39417" lon="83.74089">
        <ele>2830.74</ele>
        <time>2013-11-02T05:04:19Z</time>
      </trkpt>
      <trkpt lat="28.3942" lon="83.74107">
        <ele>2828.82</ele>
        <time>2013-11-02T05:04:32Z</time>
      </trkpt>
      <trkpt lat="28.39428" lon="83.74115">
        <ele>2828.34</ele>
        <time>2013-11-02T05:04:46Z</time>
      </trkpt>
      <trkpt lat="28.39433" lon="83.74115">
        <ele>2828.34</ele>
        <time>2013-11-02T05:05:11Z</time>
      </trkpt>
      <trkpt lat="28.39436" lon="83.74118">
        <ele>2828.34</ele>
        <time>2013-11-02T05:05:41Z</time>
      </trkpt>
      <trkpt lat="28.39435" lon="83.7412">
        <ele>2828.34</ele>
        <time>2013-11-02T05:05:59Z</time>
      </trkpt>
      <trkpt lat="28.39435" lon="83.74122">
        <ele>2827.85</ele>
        <time>2013-11-02T05:06:15Z</time>
      </trkpt>
      <trkpt lat="28.39438" lon="83.74129">
        <ele>2827.37</ele>
        <time>2013-11-02T05:06:26Z</time>
      </trkpt>
      <trkpt lat="28.39438" lon="83.74129">
        <ele>2824.49</ele>
        <time>2013-11-02T05:06:29Z</time>
      </trkpt>
      <trkpt lat="28.39438" lon="83.74129">
        <ele>2827.85</ele>
        <time>2013-11-02T05:06:30Z</time>
      </trkpt>
      <trkpt lat="28.39431" lon="83.74122">
        <ele>2826.89</ele>
        <time>2013-11-02T05:06:55Z</time>
      </trkpt>
      <trkpt lat="28.39427" lon="83.74119">
        <ele>2825.45</ele>
        <time>2013-11-02T05:07:14Z</time>
      </trkpt>
      <trkpt lat="28.39427" lon="83.74119">
        <ele>2828.34</ele>
        <time>2013-11-02T05:07:15Z</time>
      </trkpt>
      <trkpt lat="28.39432" lon="83.74126">
        <ele>2822.57</ele>
        <time>2013-11-02T05:07:30Z</time>
      </trkpt>
      <trkpt lat="28.39432" lon="83.74126">
        <ele>2827.85</ele>
        <time>2013-11-02T05:07:31Z</time>
      </trkpt>
      <trkpt lat="28.39432" lon="83.74126">
        <ele>2826.41</ele>
        <time>2013-11-02T05:07:32Z</time>
      </trkpt>
      <trkpt lat="28.39432" lon="83.74126">
        <ele>2823.05</ele>
        <time>2013-11-02T05:07:36Z</time>
      </trkpt>
      <trkpt lat="28.39432" lon="83.74126">
        <ele>2824.97</ele>
        <time>2013-11-02T05:07:37Z</time>
      </trkpt>
      <trkpt lat="28.39432" lon="83.74126">
        <ele>2827.85</ele>
        <time>2013-11-02T05:07:38Z</time>
      </trkpt>
      <trkpt lat="28.39434" lon="83.74134">
        <ele>2825.45</ele>
        <time>2013-11-02T05:07:54Z</time>
      </trkpt>
      <trkpt lat="28.39435" lon="83.74137">
        <ele>2825.45</ele>
        <time>2013-11-02T05:08:00Z</time>
      </trkpt>
      <trkpt lat="28.39437" lon="83.74144">
        <ele>2824.97</ele>
        <time>2013-11-02T05:08:12Z</time>
      </trkpt>
      <trkpt lat="28.39438" lon="83.74144">
        <ele>2824.49</ele>
        <time>2013-11-02T05:08:29Z</time>
      </trkpt>
      <trkpt lat="28.39435" lon="83.74144">
        <ele>2824.49</ele>
        <time>2013-11-02T05:08:57Z</time>
      </trkpt>
      <trkpt lat="28.39437" lon="83.74144">
        <ele>2825.45</ele>
        <time>2013-11-02T05:09:04Z</time>
      </trkpt>
      <trkpt lat="28.39434" lon="83.74143">
        <ele>2825.45</ele>
        <time>2013-11-02T05:09:19Z</time>
      </trkpt>
      <trkpt lat="28.39436" lon="83.74152">
        <ele>2825.45</ele>
        <time>2013-11-02T05:09:27Z</time>
      </trkpt>
      <trkpt lat="28.39441" lon="83.74166">
        <ele>2824.01</ele>
        <time>2013-11-02T05:09:38Z</time>
      </trkpt>
      <trkpt lat="28.39442" lon="83.74171">
        <ele>2822.57</ele>
        <time>2013-11-02T05:09:46Z</time>
      </trkpt>
      <trkpt lat="28.39444" lon="83.74179">
        <ele>2820.65</ele>
        <time>2013-11-02T05:10:01Z</time>
      </trkpt>
      <trkpt lat="28.39445" lon="83.7419">
        <ele>2817.76</ele>
        <time>2013-11-02T05:10:17Z</time>
      </trkpt>
      <trkpt lat="28.3945" lon="83.74202">
        <ele>2817.28</ele>
        <time>2013-11-02T05:10:25Z</time>
      </trkpt>
      <trkpt lat="28.3945" lon="83.74207">
        <ele>2817.28</ele>
        <time>2013-11-02T05:10:29Z</time>
      </trkpt>
      <trkpt lat="28.39441" lon="83.74214">
        <ele>2815.84</ele>
        <time>2013-11-02T05:10:42Z</time>
      </trkpt>
      <trkpt lat="28.3944" lon="83.74221">
        <ele>2812.47</ele>
        <time>2013-11-02T05:10:52Z</time>
      </trkpt>
      <trkpt lat="28.39435" lon="83.74225">
        <ele>2810.07</ele>
        <time>2013-11-02T05:11:02Z</time>
      </trkpt>
      <trkpt lat="28.39435" lon="83.74229">
        <ele>2807.67</ele>
        <time>2013-11-02T05:11:10Z</time>
      </trkpt>
      <trkpt lat="28.39436" lon="83.74233">
        <ele>2804.3</ele>
        <time>2013-11-02T05:11:21Z</time>
      </trkpt>
      <trkpt lat="28.39436" lon="83.74235">
        <ele>2804.3</ele>
        <time>2013-11-02T05:11:23Z</time>
      </trkpt>
      <trkpt lat="28.39433" lon="83.74244">
        <ele>2801.42</ele>
        <time>2013-11-02T05:11:36Z</time>
      </trkpt>
      <trkpt lat="28.39435" lon="83.74248">
        <ele>2798.54</ele>
        <time>2013-11-02T05:11:53Z</time>
      </trkpt>
      <trkpt lat="28.39438" lon="83.74246">
        <ele>2798.05</ele>
        <time>2013-11-02T05:12:16Z</time>
      </trkpt>
      <trkpt lat="28.39438" lon="83.74244">
        <ele>2798.05</ele>
        <time>2013-11-02T05:12:40Z</time>
      </trkpt>
      <trkpt lat="28.39437" lon="83.74243">
        <ele>2797.57</ele>
        <time>2013-11-02T05:13:03Z</time>
      </trkpt>
      <trkpt lat="28.39438" lon="83.74243">
        <ele>2798.05</ele>
        <time>2013-11-02T05:13:26Z</time>
      </trkpt>
      <trkpt lat="28.39433" lon="83.74243">
        <ele>2797.57</ele>
        <time>2013-11-02T05:13:47Z</time>
      </trkpt>
      <trkpt lat="28.39432" lon="83.74247">
        <ele>2796.13</ele>
        <time>2013-11-02T05:13:55Z</time>
      </trkpt>
      <trkpt lat="28.39432" lon="83.74257">
        <ele>2792.77</ele>
        <time>2013-11-02T05:14:06Z</time>
      </trkpt>
      <trkpt lat="28.3943" lon="83.74257">
        <ele>2790.36</ele>
        <time>2013-11-02T05:14:18Z</time>
      </trkpt>
      <trkpt lat="28.3943" lon="83.74258">
        <ele>2787</ele>
        <time>2013-11-02T05:14:30Z</time>
      </trkpt>
      <trkpt lat="28.39431" lon="83.74258">
        <ele>2786.52</ele>
        <time>2013-11-02T05:14:48Z</time>
      </trkpt>
      <trkpt lat="28.39433" lon="83.7426">
        <ele>2786.52</ele>
        <time>2013-11-02T05:15:07Z</time>
      </trkpt>
      <trkpt lat="28.39433" lon="83.74262">
        <ele>2785.56</ele>
        <time>2013-11-02T05:15:23Z</time>
      </trkpt>
      <trkpt lat="28.39434" lon="83.74268">
        <ele>2782.67</ele>
        <time>2013-11-02T05:15:36Z</time>
      </trkpt>
      <trkpt lat="28.3944" lon="83.7428">
        <ele>2779.79</ele>
        <time>2013-11-02T05:15:47Z</time>
      </trkpt>
      <trkpt lat="28.39443" lon="83.74286">
        <ele>2778.35</ele>
        <time>2013-11-02T05:15:52Z</time>
      </trkpt>
      <trkpt lat="28.3945" lon="83.74295">
        <ele>2774.98</ele>
        <time>2013-11-02T05:16:07Z</time>
      </trkpt>
      <trkpt lat="28.39451" lon="83.743">
        <ele>2771.62</ele>
        <time>2013-11-02T05:16:16Z</time>
      </trkpt>
      <trkpt lat="28.39453" lon="83.74305">
        <ele>2771.62</ele>
        <time>2013-11-02T05:16:22Z</time>
      </trkpt>
      <trkpt lat="28.39454" lon="83.74313">
        <ele>2769.21</ele>
        <time>2013-11-02T05:16:35Z</time>
      </trkpt>
      <trkpt lat="28.39451" lon="83.74328">
        <ele>2767.29</ele>
        <time>2013-11-02T05:16:49Z</time>
      </trkpt>
      <trkpt lat="28.39456" lon="83.74335">
        <ele>2764.41</ele>
        <time>2013-11-02T05:17:02Z</time>
      </trkpt>
      <trkpt lat="28.39459" lon="83.74346">
        <ele>2762</ele>
        <time>2013-11-02T05:17:17Z</time>
      </trkpt>
      <trkpt lat="28.3946" lon="83.74356">
        <ele>2759.12</ele>
        <time>2013-11-02T05:17:28Z</time>
      </trkpt>
      <trkpt lat="28.39461" lon="83.74373">
        <ele>2758.16</ele>
        <time>2013-11-02T05:17:42Z</time>
      </trkpt>
      <trkpt lat="28.3946" lon="83.74383">
        <ele>2757.2</ele>
        <time>2013-11-02T05:17:53Z</time>
      </trkpt>
      <trkpt lat="28.39462" lon="83.74387">
        <ele>2756.24</ele>
        <time>2013-11-02T05:17:56Z</time>
      </trkpt>
      <trkpt lat="28.39464" lon="83.74405">
        <ele>2754.8</ele>
        <time>2013-11-02T05:18:09Z</time>
      </trkpt>
      <trkpt lat="28.3946" lon="83.74412">
        <ele>2754.31</ele>
        <time>2013-11-02T05:18:28Z</time>
      </trkpt>
      <trkpt lat="28.39461" lon="83.74426">
        <ele>2751.43</ele>
        <time>2013-11-02T05:18:40Z</time>
      </trkpt>
      <trkpt lat="28.39463" lon="83.7443">
        <ele>2750.95</ele>
        <time>2013-11-02T05:18:43Z</time>
      </trkpt>
      <trkpt lat="28.39465" lon="83.74444">
        <ele>2747.59</ele>
        <time>2013-11-02T05:18:59Z</time>
      </trkpt>
      <trkpt lat="28.3946" lon="83.74458">
        <ele>2744.7</ele>
        <time>2013-11-02T05:19:17Z</time>
      </trkpt>
      <trkpt lat="28.39458" lon="83.74478">
        <ele>2742.3</ele>
        <time>2013-11-02T05:19:35Z</time>
      </trkpt>
      <trkpt lat="28.39454" lon="83.74494">
        <ele>2741.34</ele>
        <time>2013-11-02T05:19:50Z</time>
      </trkpt>
      <trkpt lat="28.3945" lon="83.74496">
        <ele>2740.38</ele>
        <time>2013-11-02T05:20:10Z</time>
      </trkpt>
      <trkpt lat="28.39449" lon="83.74512">
        <ele>2738.45</ele>
        <time>2013-11-02T05:20:23Z</time>
      </trkpt>
      <trkpt lat="28.39447" lon="83.74522">
        <ele>2736.53</ele>
        <time>2013-11-02T05:20:37Z</time>
      </trkpt>
      <trkpt lat="28.39444" lon="83.74531">
        <ele>2735.09</ele>
        <time>2013-11-02T05:20:54Z</time>
      </trkpt>
      <trkpt lat="28.39441" lon="83.7454">
        <ele>2734.61</ele>
        <time>2013-11-02T05:21:12Z</time>
      </trkpt>
      <trkpt lat="28.3944" lon="83.74549">
        <ele>2731.24</ele>
        <time>2013-11-02T05:21:30Z</time>
      </trkpt>
      <trkpt lat="28.39441" lon="83.74558">
        <ele>2729.32</ele>
        <time>2013-11-02T05:21:48Z</time>
      </trkpt>
      <trkpt lat="28.39439" lon="83.74564">
        <ele>2728.36</ele>
        <time>2013-11-02T05:22:06Z</time>
      </trkpt>
      <trkpt lat="28.39441" lon="83.74569">
        <ele>2728.36</ele>
        <time>2013-11-02T05:22:30Z</time>
      </trkpt>
      <trkpt lat="28.39438" lon="83.74575">
        <ele>2728.36</ele>
        <time>2013-11-02T05:23:02Z</time>
      </trkpt>
      <trkpt lat="28.39442" lon="83.74572">
        <ele>2728.36</ele>
        <time>2013-11-02T05:23:24Z</time>
      </trkpt>
      <trkpt lat="28.39444" lon="83.74572">
        <ele>2729.32</ele>
        <time>2013-11-02T05:23:47Z</time>
      </trkpt>
      <trkpt lat="28.39445" lon="83.74572">
        <ele>2729.32</ele>
        <time>2013-11-02T05:24:08Z</time>
      </trkpt>
      <trkpt lat="28.39447" lon="83.74575">
        <ele>2729.32</ele>
        <time>2013-11-02T05:24:35Z</time>
      </trkpt>
      <trkpt lat="28.39448" lon="83.74576">
        <ele>2729.8</ele>
        <time>2013-11-02T05:25:01Z</time>
      </trkpt>
      <trkpt lat="28.39445" lon="83.74573">
        <ele>2729.8</ele>
        <time>2013-11-02T05:25:27Z</time>
      </trkpt>
      <trkpt lat="28.39446" lon="83.74571">
        <ele>2729.8</ele>
        <time>2013-11-02T05:25:49Z</time>
      </trkpt>
      <trkpt lat="28.39449" lon="83.74571">
        <ele>2729.8</ele>
        <time>2013-11-02T05:26:13Z</time>
      </trkpt>
      <trkpt lat="28.39449" lon="83.74571">
        <ele>2729.8</ele>
        <time>2013-11-02T05:26:36Z</time>
      </trkpt>
      <trkpt lat="28.39448" lon="83.74574">
        <ele>2729.8</ele>
        <time>2013-11-02T05:26:55Z</time>
      </trkpt>
      <trkpt lat="28.39448" lon="83.74574">
        <ele>2731.72</ele>
        <time>2013-11-02T05:27:15Z</time>
      </trkpt>
      <trkpt lat="28.39448" lon="83.74574">
        <ele>2730.28</ele>
        <time>2013-11-02T05:27:16Z</time>
      </trkpt>
      <trkpt lat="28.39449" lon="83.74572">
        <ele>2730.28</ele>
        <time>2013-11-02T05:27:43Z</time>
      </trkpt>
      <trkpt lat="28.39448" lon="83.74575">
        <ele>2729.32</ele>
        <time>2013-11-02T05:28:02Z</time>
      </trkpt>
      <trkpt lat="28.39448" lon="83.74576">
        <ele>2730.28</ele>
        <time>2013-11-02T05:28:27Z</time>
      </trkpt>
      <trkpt lat="28.39448" lon="83.74575">
        <ele>2730.28</ele>
        <time>2013-11-02T05:28:52Z</time>
      </trkpt>
      <trkpt lat="28.39448" lon="83.74573">
        <ele>2730.28</ele>
        <time>2013-11-02T05:29:14Z</time>
      </trkpt>
      <trkpt lat="28.39449" lon="83.74572">
        <ele>2730.28</ele>
        <time>2013-11-02T05:29:41Z</time>
      </trkpt>
      <trkpt lat="28.39448" lon="83.7457">
        <ele>2730.28</ele>
        <time>2013-11-02T05:30:06Z</time>
      </trkpt>
      <trkpt lat="28.39447" lon="83.74575">
        <ele>2728.84</ele>
        <time>2013-11-02T05:30:25Z</time>
      </trkpt>
      <trkpt lat="28.39443" lon="83.74589">
        <ele>2726.92</ele>
        <time>2013-11-02T05:30:40Z</time>
      </trkpt>
      <trkpt lat="28.39435" lon="83.74601">
        <ele>2724.51</ele>
        <time>2013-11-02T05:30:54Z</time>
      </trkpt>
      <trkpt lat="28.3943" lon="83.74616">
        <ele>2724.03</ele>
        <time>2013-11-02T05:31:09Z</time>
      </trkpt>
      <trkpt lat="28.39426" lon="83.74635">
        <ele>2721.63</ele>
        <time>2013-11-02T05:31:25Z</time>
      </trkpt>
      <trkpt lat="28.39427" lon="83.74657">
        <ele>2718.27</ele>
        <time>2013-11-02T05:31:40Z</time>
      </trkpt>
      <trkpt lat="28.39423" lon="83.74679">
        <ele>2715.86</ele>
        <time>2013-11-02T05:32:02Z</time>
      </trkpt>
      <trkpt lat="28.39415" lon="83.74703">
        <ele>2713.46</ele>
        <time>2013-11-02T05:32:20Z</time>
      </trkpt>
      <trkpt lat="28.3941" lon="83.74725">
        <ele>2711.06</ele>
        <time>2013-11-02T05:32:35Z</time>
      </trkpt>
      <trkpt lat="28.39395" lon="83.74747">
        <ele>2708.17</ele>
        <time>2013-11-02T05:32:48Z</time>
      </trkpt>
      <trkpt lat="28.3939" lon="83.74752">
        <ele>2708.65</ele>
        <time>2013-11-02T05:32:57Z</time>
      </trkpt>
      <trkpt lat="28.39396" lon="83.74744">
        <ele>2708.17</ele>
        <time>2013-11-02T05:33:14Z</time>
      </trkpt>
      <trkpt lat="28.39398" lon="83.74746">
        <ele>2707.21</ele>
        <time>2013-11-02T05:33:17Z</time>
      </trkpt>
      <trkpt lat="28.39398" lon="83.74756">
        <ele>2705.29</ele>
        <time>2013-11-02T05:33:28Z</time>
      </trkpt>
      <trkpt lat="28.394" lon="83.74769">
        <ele>2704.81</ele>
        <time>2013-11-02T05:33:41Z</time>
      </trkpt>
      <trkpt lat="28.39394" lon="83.74791">
        <ele>2702.88</ele>
        <time>2013-11-02T05:33:53Z</time>
      </trkpt>
      <trkpt lat="28.39393" lon="83.74808">
        <ele>2701.92</ele>
        <time>2013-11-02T05:34:04Z</time>
      </trkpt>
      <trkpt lat="28.39393" lon="83.74814">
        <ele>2700</ele>
        <time>2013-11-02T05:34:10Z</time>
      </trkpt>
      <trkpt lat="28.39393" lon="83.74818">
        <ele>2698.56</ele>
        <time>2013-11-02T05:34:13Z</time>
      </trkpt>
      <trkpt lat="28.39392" lon="83.74819">
        <ele>2698.56</ele>
        <time>2013-11-02T05:34:15Z</time>
      </trkpt>
      <trkpt lat="28.39391" lon="83.74822">
        <ele>2698.08</ele>
        <time>2013-11-02T05:34:17Z</time>
      </trkpt>
      <trkpt lat="28.39388" lon="83.74829">
        <ele>2697.12</ele>
        <time>2013-11-02T05:34:24Z</time>
      </trkpt>
      <trkpt lat="28.39386" lon="83.74831">
        <ele>2696.15</ele>
        <time>2013-11-02T05:34:28Z</time>
      </trkpt>
      <trkpt lat="28.39385" lon="83.74849">
        <ele>2693.75</ele>
        <time>2013-11-02T05:34:41Z</time>
      </trkpt>
      <trkpt lat="28.39392" lon="83.74855">
        <ele>2692.79</ele>
        <time>2013-11-02T05:34:52Z</time>
      </trkpt>
      <trkpt lat="28.39392" lon="83.74856">
        <ele>2692.31</ele>
        <time>2013-11-02T05:34:53Z</time>
      </trkpt>
      <trkpt lat="28.39392" lon="83.74858">
        <ele>2691.83</ele>
        <time>2013-11-02T05:34:55Z</time>
      </trkpt>
      <trkpt lat="28.39395" lon="83.74868">
        <ele>2689.91</ele>
        <time>2013-11-02T05:35:06Z</time>
      </trkpt>
      <trkpt lat="28.39399" lon="83.74875">
        <ele>2689.43</ele>
        <time>2013-11-02T05:35:13Z</time>
      </trkpt>
      <trkpt lat="28.39404" lon="83.74884">
        <ele>2687.98</ele>
        <time>2013-11-02T05:35:25Z</time>
      </trkpt>
      <trkpt lat="28.3941" lon="83.74899">
        <ele>2686.54</ele>
        <time>2013-11-02T05:35:35Z</time>
      </trkpt>
      <trkpt lat="28.39414" lon="83.74912">
        <ele>2684.14</ele>
        <time>2013-11-02T05:35:47Z</time>
      </trkpt>
      <trkpt lat="28.39417" lon="83.74921">
        <ele>2682.7</ele>
        <time>2013-11-02T05:35:53Z</time>
      </trkpt>
      <trkpt lat="28.39418" lon="83.74924">
        <ele>2682.22</ele>
        <time>2013-11-02T05:35:56Z</time>
      </trkpt>
      <trkpt lat="28.39422" lon="83.74932">
        <ele>2682.22</ele>
        <time>2013-11-02T05:36:07Z</time>
      </trkpt>
      <trkpt lat="28.3942" lon="83.74934">
        <ele>2682.22</ele>
        <time>2013-11-02T05:36:16Z</time>
      </trkpt>
      <trkpt lat="28.39419" lon="83.74934">
        <ele>2682.22</ele>
        <time>2013-11-02T05:36:37Z</time>
      </trkpt>
      <trkpt lat="28.3942" lon="83.74932">
        <ele>2683.18</ele>
        <time>2013-11-02T05:36:52Z</time>
      </trkpt>
      <trkpt lat="28.39422" lon="83.74925">
        <ele>2683.18</ele>
        <time>2013-11-02T05:37:08Z</time>
      </trkpt>
      <trkpt lat="28.39424" lon="83.74924">
        <ele>2683.18</ele>
        <time>2013-11-02T05:37:27Z</time>
      </trkpt>
      <trkpt lat="28.39424" lon="83.74922">
        <ele>2683.66</ele>
        <time>2013-11-02T05:37:47Z</time>
      </trkpt>
      <trkpt lat="28.39422" lon="83.74924">
        <ele>2684.14</ele>
        <time>2013-11-02T05:38:09Z</time>
      </trkpt>
      <trkpt lat="28.39423" lon="83.74925">
        <ele>2682.7</ele>
        <time>2013-11-02T05:38:11Z</time>
      </trkpt>
      <trkpt lat="28.39423" lon="83.74925">
        <ele>2684.14</ele>
        <time>2013-11-02T05:38:12Z</time>
      </trkpt>
      <trkpt lat="28.39417" lon="83.74928">
        <ele>2683.66</ele>
        <time>2013-11-02T05:38:28Z</time>
      </trkpt>
      <trkpt lat="28.39416" lon="83.74925">
        <ele>2685.1</ele>
        <time>2013-11-02T05:38:43Z</time>
      </trkpt>
      <trkpt lat="28.39416" lon="83.74928">
        <ele>2685.1</ele>
        <time>2013-11-02T05:39:04Z</time>
      </trkpt>
      <trkpt lat="28.39394" lon="83.74945">
        <ele>2685.1</ele>
        <time>2013-11-02T05:39:45Z</time>
      </trkpt>
      <trkpt lat="28.39405" lon="83.74941">
        <ele>2683.66</ele>
        <time>2013-11-02T05:39:57Z</time>
      </trkpt>
      <trkpt lat="28.39423" lon="83.74935">
        <ele>2683.66</ele>
        <time>2013-11-02T05:40:19Z</time>
      </trkpt>
      <trkpt lat="28.3943" lon="83.74932">
        <ele>2683.66</ele>
        <time>2013-11-02T05:40:45Z</time>
      </trkpt>
      <trkpt lat="28.39417" lon="83.74943">
        <ele>2683.66</ele>
        <time>2013-11-02T05:41:07Z</time>
      </trkpt>
      <trkpt lat="28.39414" lon="83.74944">
        <ele>2683.66</ele>
        <time>2013-11-02T05:41:42Z</time>
      </trkpt>
      <trkpt lat="28.3942" lon="83.74934">
        <ele>2683.18</ele>
        <time>2013-11-02T05:42:07Z</time>
      </trkpt>
      <trkpt lat="28.39426" lon="83.74931">
        <ele>2683.66</ele>
        <time>2013-11-02T05:42:29Z</time>
      </trkpt>
      <trkpt lat="28.39427" lon="83.7493">
        <ele>2683.66</ele>
        <time>2013-11-02T05:42:57Z</time>
      </trkpt>
      <trkpt lat="28.39426" lon="83.74926">
        <ele>2684.14</ele>
        <time>2013-11-02T05:43:17Z</time>
      </trkpt>
      <trkpt lat="28.39429" lon="83.74919">
        <ele>2684.14</ele>
        <time>2013-11-02T05:43:31Z</time>
      </trkpt>
      <trkpt lat="28.39434" lon="83.7491">
        <ele>2684.14</ele>
        <time>2013-11-02T05:43:51Z</time>
      </trkpt>
      <trkpt lat="28.39438" lon="83.74903">
        <ele>2684.14</ele>
        <time>2013-11-02T05:44:13Z</time>
      </trkpt>
      <trkpt lat="28.39449" lon="83.74907">
        <ele>2684.14</ele>
        <time>2013-11-02T05:44:40Z</time>
      </trkpt>
      <trkpt lat="28.39445" lon="83.74913">
        <ele>2684.14</ele>
        <time>2013-11-02T05:45:04Z</time>
      </trkpt>
      <trkpt lat="28.39443" lon="83.74921">
        <ele>2684.14</ele>
        <time>2013-11-02T05:45:30Z</time>
      </trkpt>
      <trkpt lat="28.39437" lon="83.74921">
        <ele>2684.14</ele>
        <time>2013-11-02T05:46:03Z</time>
      </trkpt>
      <trkpt lat="28.39435" lon="83.74919">
        <ele>2684.14</ele>
        <time>2013-11-02T05:46:24Z</time>
      </trkpt>
      <trkpt lat="28.39436" lon="83.74914">
        <ele>2684.14</ele>
        <time>2013-11-02T05:46:48Z</time>
      </trkpt>
      <trkpt lat="28.39436" lon="83.74911">
        <ele>2684.14</ele>
        <time>2013-11-02T05:47:13Z</time>
      </trkpt>
      <trkpt lat="28.39438" lon="83.74913">
        <ele>2684.14</ele>
        <time>2013-11-02T05:47:35Z</time>
      </trkpt>
      <trkpt lat="28.39436" lon="83.74915">
        <ele>2684.14</ele>
        <time>2013-11-02T05:48:01Z</time>
      </trkpt>
      <trkpt lat="28.39435" lon="83.74917">
        <ele>2684.62</ele>
        <time>2013-11-02T05:48:27Z</time>
      </trkpt>
      <trkpt lat="28.39435" lon="83.74915">
        <ele>2684.14</ele>
        <time>2013-11-02T05:48:53Z</time>
      </trkpt>
      <trkpt lat="28.39435" lon="83.74918">
        <ele>2684.62</ele>
        <time>2013-11-02T05:49:18Z</time>
      </trkpt>
      <trkpt lat="28.39434" lon="83.74919">
        <ele>2684.62</ele>
        <time>2013-11-02T05:49:43Z</time>
      </trkpt>
      <trkpt lat="28.39439" lon="83.74922">
        <ele>2685.1</ele>
        <time>2013-11-02T05:50:11Z</time>
      </trkpt>
      <trkpt lat="28.39439" lon="83.74923">
        <ele>2685.58</ele>
        <time>2013-11-02T05:50:39Z</time>
      </trkpt>
      <trkpt lat="28.3944" lon="83.74924">
        <ele>2686.06</ele>
        <time>2013-11-02T05:51:03Z</time>
      </trkpt>
      <trkpt lat="28.39434" lon="83.74926">
        <ele>2686.54</ele>
        <time>2013-11-02T05:51:24Z</time>
      </trkpt>
      <trkpt lat="28.39432" lon="83.74918">
        <ele>2686.54</ele>
        <time>2013-11-02T05:51:47Z</time>
      </trkpt>
      <trkpt lat="28.39439" lon="83.74918">
        <ele>2686.54</ele>
        <time>2013-11-02T05:52:02Z</time>
      </trkpt>
      <trkpt lat="28.3945" lon="83.74918">
        <ele>2687.02</ele>
        <time>2013-11-02T05:52:27Z</time>
      </trkpt>
      <trkpt lat="28.39442" lon="83.74919">
        <ele>2687.5</ele>
        <time>2013-11-02T05:52:55Z</time>
      </trkpt>
      <trkpt lat="28.39438" lon="83.74922">
        <ele>2687.98</ele>
        <time>2013-11-02T05:53:16Z</time>
      </trkpt>
      <trkpt lat="28.39436" lon="83.74926">
        <ele>2688.46</ele>
        <time>2013-11-02T05:53:38Z</time>
      </trkpt>
      <trkpt lat="28.39438" lon="83.74928">
        <ele>2688.94</ele>
        <time>2013-11-02T05:54:12Z</time>
      </trkpt>
      <trkpt lat="28.39439" lon="83.74927">
        <ele>2689.43</ele>
        <time>2013-11-02T05:54:40Z</time>
      </trkpt>
      <trkpt lat="28.39434" lon="83.7493">
        <ele>2689.91</ele>
        <time>2013-11-02T05:55:09Z</time>
      </trkpt>
      <trkpt lat="28.39433" lon="83.74931">
        <ele>2690.39</ele>
        <time>2013-11-02T05:55:38Z</time>
      </trkpt>
      <trkpt lat="28.39431" lon="83.7493">
        <ele>2690.39</ele>
        <time>2013-11-02T05:56:00Z</time>
      </trkpt>
      <trkpt lat="28.39431" lon="83.7493">
        <ele>2691.35</ele>
        <time>2013-11-02T05:56:24Z</time>
      </trkpt>
      <trkpt lat="28.3943" lon="83.74935">
        <ele>2691.83</ele>
        <time>2013-11-02T05:56:44Z</time>
      </trkpt>
      <trkpt lat="28.3943" lon="83.74933">
        <ele>2691.83</ele>
        <time>2013-11-02T05:57:02Z</time>
      </trkpt>
      <trkpt lat="28.39431" lon="83.74933">
        <ele>2692.31</ele>
        <time>2013-11-02T05:57:27Z</time>
      </trkpt>
      <trkpt lat="28.39427" lon="83.74931">
        <ele>2692.79</ele>
        <time>2013-11-02T05:57:49Z</time>
      </trkpt>
      <trkpt lat="28.39431" lon="83.7493">
        <ele>2692.79</ele>
        <time>2013-11-02T05:58:12Z</time>
      </trkpt>
      <trkpt lat="28.39433" lon="83.7493">
        <ele>2693.27</ele>
        <time>2013-11-02T05:58:40Z</time>
      </trkpt>
      <trkpt lat="28.39424" lon="83.74931">
        <ele>2693.75</ele>
        <time>2013-11-02T05:59:00Z</time>
      </trkpt>
      <trkpt lat="28.39424" lon="83.74932">
        <ele>2693.75</ele>
        <time>2013-11-02T05:59:18Z</time>
      </trkpt>
      <trkpt lat="28.39431" lon="83.74932">
        <ele>2694.71</ele>
        <time>2013-11-02T05:59:40Z</time>
      </trkpt>
      <trkpt lat="28.3943" lon="83.74934">
        <ele>2694.71</ele>
        <time>2013-11-02T06:00:06Z</time>
      </trkpt>
      <trkpt lat="28.3943" lon="83.74937">
        <ele>2694.71</ele>
        <time>2013-11-02T06:00:10Z</time>
      </trkpt>
      <trkpt lat="28.39431" lon="83.7494">
        <ele>2694.71</ele>
        <time>2013-11-02T06:00:27Z</time>
      </trkpt>
      <trkpt lat="28.39433" lon="83.74938">
        <ele>2695.19</ele>
        <time>2013-11-02T06:00:50Z</time>
      </trkpt>
      <trkpt lat="28.39435" lon="83.74943">
        <ele>2695.67</ele>
        <time>2013-11-02T06:01:13Z</time>
      </trkpt>
      <trkpt lat="28.39437" lon="83.74936">
        <ele>2695.67</ele>
        <time>2013-11-02T06:01:32Z</time>
      </trkpt>
      <trkpt lat="28.39437" lon="83.74931">
        <ele>2695.67</ele>
        <time>2013-11-02T06:01:49Z</time>
      </trkpt>
      <trkpt lat="28.39441" lon="83.7493">
        <ele>2695.67</ele>
        <time>2013-11-02T06:02:14Z</time>
      </trkpt>
      <trkpt lat="28.39454" lon="83.74922">
        <ele>2696.15</ele>
        <time>2013-11-02T06:02:39Z</time>
      </trkpt>
      <trkpt lat="28.39451" lon="83.74924">
        <ele>2696.64</ele>
        <time>2013-11-02T06:03:02Z</time>
      </trkpt>
      <trkpt lat="28.39447" lon="83.74923">
        <ele>2697.12</ele>
        <time>2013-11-02T06:03:28Z</time>
      </trkpt>
      <trkpt lat="28.39446" lon="83.74921">
        <ele>2698.08</ele>
        <time>2013-11-02T06:03:49Z</time>
      </trkpt>
      <trkpt lat="28.39448" lon="83.7492">
        <ele>2698.08</ele>
        <time>2013-11-02T06:04:16Z</time>
      </trkpt>
      <trkpt lat="28.3945" lon="83.74919">
        <ele>2698.08</ele>
        <time>2013-11-02T06:04:18Z</time>
      </trkpt>
      <trkpt lat="28.39463" lon="83.74915">
        <ele>2698.56</ele>
        <time>2013-11-02T06:04:50Z</time>
      </trkpt>
      <trkpt lat="28.39451" lon="83.7492">
        <ele>2699.04</ele>
        <time>2013-11-02T06:05:21Z</time>
      </trkpt>
      <trkpt lat="28.39444" lon="83.74922">
        <ele>2699.52</ele>
        <time>2013-11-02T06:05:50Z</time>
      </trkpt>
      <trkpt lat="28.39442" lon="83.74924">
        <ele>2700</ele>
        <time>2013-11-02T06:06:16Z</time>
      </trkpt>
      <trkpt lat="28.39449" lon="83.7492">
        <ele>2700</ele>
        <time>2013-11-02T06:06:42Z</time>
      </trkpt>
      <trkpt lat="28.39449" lon="83.74921">
        <ele>2700</ele>
        <time>2013-11-02T06:07:18Z</time>
      </trkpt>
      <trkpt lat="28.39449" lon="83.74921">
        <ele>2700.48</ele>
        <time>2013-11-02T06:07:46Z</time>
      </trkpt>
      <trkpt lat="28.39452" lon="83.74915">
        <ele>2700.96</ele>
        <time>2013-11-02T06:08:06Z</time>
      </trkpt>
      <trkpt lat="28.39452" lon="83.74918">
        <ele>2701.44</ele>
        <time>2013-11-02T06:08:35Z</time>
      </trkpt>
      <trkpt lat="28.3946" lon="83.74912">
        <ele>2701.92</ele>
        <time>2013-11-02T06:08:57Z</time>
      </trkpt>
      <trkpt lat="28.39452" lon="83.74919">
        <ele>2702.4</ele>
        <time>2013-11-02T06:09:18Z</time>
      </trkpt>
      <trkpt lat="28.39449" lon="83.7492">
        <ele>2702.4</ele>
        <time>2013-11-02T06:09:42Z</time>
      </trkpt>
      <trkpt lat="28.39449" lon="83.74921">
        <ele>2702.4</ele>
        <time>2013-11-02T06:10:08Z</time>
      </trkpt>
      <trkpt lat="28.39445" lon="83.74922">
        <ele>2702.88</ele>
        <time>2013-11-02T06:10:34Z</time>
      </trkpt>
      <trkpt lat="28.39448" lon="83.74923">
        <ele>2703.36</ele>
        <time>2013-11-02T06:10:58Z</time>
      </trkpt>
      <trkpt lat="28.39446" lon="83.74923">
        <ele>2703.36</ele>
        <time>2013-11-02T06:11:26Z</time>
      </trkpt>
      <trkpt lat="28.39445" lon="83.74923">
        <ele>2703.36</ele>
        <time>2013-11-02T06:11:46Z</time>
      </trkpt>
      <trkpt lat="28.39452" lon="83.74929">
        <ele>2703.85</ele>
        <time>2013-11-02T06:11:58Z</time>
      </trkpt>
      <trkpt lat="28.39419" lon="83.74928">
        <ele>2704.33</ele>
        <time>2013-11-02T06:13:34Z</time>
      </trkpt>
      <trkpt lat="28.39417" lon="83.74924">
        <ele>2703.85</ele>
        <time>2013-11-02T06:13:44Z</time>
      </trkpt>
      <trkpt lat="28.39442" lon="83.74931">
        <ele>2704.33</ele>
        <time>2013-11-02T06:14:07Z</time>
      </trkpt>
      <trkpt lat="28.39425" lon="83.7492">
        <ele>2704.33</ele>
        <time>2013-11-02T06:14:28Z</time>
      </trkpt>
      <trkpt lat="28.39425" lon="83.7492">
        <ele>2704.33</ele>
        <time>2013-11-02T06:14:45Z</time>
      </trkpt>
      <trkpt lat="28.39439" lon="83.74923">
        <ele>2703.85</ele>
        <time>2013-11-02T06:15:10Z</time>
      </trkpt>
      <trkpt lat="28.39444" lon="83.74924">
        <ele>2703.85</ele>
        <time>2013-11-02T06:15:28Z</time>
      </trkpt>
      <trkpt lat="28.39439" lon="83.74919">
        <ele>2704.33</ele>
        <time>2013-11-02T06:15:43Z</time>
      </trkpt>
      <trkpt lat="28.39439" lon="83.74923">
        <ele>2704.33</ele>
        <time>2013-11-02T06:16:00Z</time>
      </trkpt>
      <trkpt lat="28.39447" lon="83.7493">
        <ele>2703.85</ele>
        <time>2013-11-02T06:16:20Z</time>
      </trkpt>
      <trkpt lat="28.39448" lon="83.74922">
        <ele>2704.33</ele>
        <time>2013-11-02T06:16:54Z</time>
      </trkpt>
      <trkpt lat="28.39521" lon="83.75163">
        <ele>2701.92</ele>
        <time>2013-11-02T06:42:46Z</time>
      </trkpt>
      <trkpt lat="28.3946" lon="83.75205">
        <ele>2703.36</ele>
        <time>2013-11-02T06:42:58Z</time>
      </trkpt>
      <trkpt lat="28.39454" lon="83.75215">
        <ele>2705.77</ele>
        <time>2013-11-02T06:43:11Z</time>
      </trkpt>
      <trkpt lat="28.39447" lon="83.75223">
        <ele>2709.13</ele>
        <time>2013-11-02T06:43:23Z</time>
      </trkpt>
      <trkpt lat="28.39443" lon="83.75238">
        <ele>2710.09</ele>
        <time>2013-11-02T06:43:30Z</time>
      </trkpt>
      <trkpt lat="28.39437" lon="83.75255">
        <ele>2708.17</ele>
        <time>2013-11-02T06:43:45Z</time>
      </trkpt>
      <trkpt lat="28.39443" lon="83.75258">
        <ele>2706.73</ele>
        <time>2013-11-02T06:43:57Z</time>
      </trkpt>
      <trkpt lat="28.39451" lon="83.75266">
        <ele>2706.25</ele>
        <time>2013-11-02T06:44:11Z</time>
      </trkpt>
      <trkpt lat="28.39454" lon="83.75272">
        <ele>2709.61</ele>
        <time>2013-11-02T06:44:22Z</time>
      </trkpt>
      <trkpt lat="28.39452" lon="83.75286">
        <ele>2708.65</ele>
        <time>2013-11-02T06:44:36Z</time>
      </trkpt>
      <trkpt lat="28.39452" lon="83.75287">
        <ele>2709.13</ele>
        <time>2013-11-02T06:44:37Z</time>
      </trkpt>
      <trkpt lat="28.39465" lon="83.75296">
        <ele>2708.17</ele>
        <time>2013-11-02T06:44:53Z</time>
      </trkpt>
      <trkpt lat="28.39465" lon="83.75312">
        <ele>2706.73</ele>
        <time>2013-11-02T06:45:12Z</time>
      </trkpt>
      <trkpt lat="28.39455" lon="83.75317">
        <ele>2708.17</ele>
        <time>2013-11-02T06:45:28Z</time>
      </trkpt>
      <trkpt lat="28.39443" lon="83.75325">
        <ele>2709.61</ele>
        <time>2013-11-02T06:45:40Z</time>
      </trkpt>
      <trkpt lat="28.3945" lon="83.75335">
        <ele>2710.57</ele>
        <time>2013-11-02T06:45:52Z</time>
      </trkpt>
      <trkpt lat="28.39447" lon="83.75336">
        <ele>2709.13</ele>
        <time>2013-11-02T06:46:08Z</time>
      </trkpt>
      <trkpt lat="28.39447" lon="83.7534">
        <ele>2709.13</ele>
        <time>2013-11-02T06:46:29Z</time>
      </trkpt>
      <trkpt lat="28.39446" lon="83.75343">
        <ele>2709.13</ele>
        <time>2013-11-02T06:46:52Z</time>
      </trkpt>
      <trkpt lat="28.39449" lon="83.75351">
        <ele>2708.65</ele>
        <time>2013-11-02T06:47:19Z</time>
      </trkpt>
      <trkpt lat="28.39452" lon="83.75351">
        <ele>2708.65</ele>
        <time>2013-11-02T06:47:43Z</time>
      </trkpt>
      <trkpt lat="28.39456" lon="83.75358">
        <ele>2708.65</ele>
        <time>2013-11-02T06:48:02Z</time>
      </trkpt>
      <trkpt lat="28.39453" lon="83.75369">
        <ele>2708.65</ele>
        <time>2013-11-02T06:48:20Z</time>
      </trkpt>
      <trkpt lat="28.39455" lon="83.75374">
        <ele>2712.02</ele>
        <time>2013-11-02T06:48:36Z</time>
      </trkpt>
      <trkpt lat="28.39462" lon="83.7538">
        <ele>2714.42</ele>
        <time>2013-11-02T06:48:54Z</time>
      </trkpt>
      <trkpt lat="28.39475" lon="83.75385">
        <ele>2715.38</ele>
        <time>2013-11-02T06:49:09Z</time>
      </trkpt>
      <trkpt lat="28.39482" lon="83.75382">
        <ele>2716.82</ele>
        <time>2013-11-02T06:49:25Z</time>
      </trkpt>
      <trkpt lat="28.39496" lon="83.75376">
        <ele>2716.82</ele>
        <time>2013-11-02T06:49:44Z</time>
      </trkpt>
      <trkpt lat="28.39497" lon="83.75384">
        <ele>2717.3</ele>
        <time>2013-11-02T06:49:59Z</time>
      </trkpt>
      <trkpt lat="28.39498" lon="83.75397">
        <ele>2718.27</ele>
        <time>2013-11-02T06:50:17Z</time>
      </trkpt>
      <trkpt lat="28.39495" lon="83.75406">
        <ele>2718.27</ele>
        <time>2013-11-02T06:50:33Z</time>
      </trkpt>
      <trkpt lat="28.39502" lon="83.75414">
        <ele>2716.34</ele>
        <time>2013-11-02T06:50:46Z</time>
      </trkpt>
      <trkpt lat="28.39504" lon="83.75416">
        <ele>2715.86</ele>
        <time>2013-11-02T06:50:48Z</time>
      </trkpt>
      <trkpt lat="28.39508" lon="83.75423">
        <ele>2715.38</ele>
        <time>2013-11-02T06:50:55Z</time>
      </trkpt>
      <trkpt lat="28.39509" lon="83.7543">
        <ele>2714.9</ele>
        <time>2013-11-02T06:51:01Z</time>
      </trkpt>
      <trkpt lat="28.39512" lon="83.75444">
        <ele>2716.34</ele>
        <time>2013-11-02T06:51:16Z</time>
      </trkpt>
      <trkpt lat="28.39512" lon="83.7546">
        <ele>2715.38</ele>
        <time>2013-11-02T06:51:34Z</time>
      </trkpt>
      <trkpt lat="28.39513" lon="83.75469">
        <ele>2714.42</ele>
        <time>2013-11-02T06:51:49Z</time>
      </trkpt>
      <trkpt lat="28.39511" lon="83.75483">
        <ele>2713.46</ele>
        <time>2013-11-02T06:52:08Z</time>
      </trkpt>
      <trkpt lat="28.3951" lon="83.75487">
        <ele>2712.5</ele>
        <time>2013-11-02T06:52:13Z</time>
      </trkpt>
      <trkpt lat="28.39509" lon="83.75506">
        <ele>2712.02</ele>
        <time>2013-11-02T06:52:30Z</time>
      </trkpt>
      <trkpt lat="28.39506" lon="83.75519">
        <ele>2709.13</ele>
        <time>2013-11-02T06:52:48Z</time>
      </trkpt>
      <trkpt lat="28.39503" lon="83.75536">
        <ele>2706.73</ele>
        <time>2013-11-02T06:53:04Z</time>
      </trkpt>
      <trkpt lat="28.395" lon="83.75553">
        <ele>2704.33</ele>
        <time>2013-11-02T06:53:19Z</time>
      </trkpt>
      <trkpt lat="28.39498" lon="83.7556">
        <ele>2705.29</ele>
        <time>2013-11-02T06:53:30Z</time>
      </trkpt>
      <trkpt lat="28.39494" lon="83.7557">
        <ele>2704.81</ele>
        <time>2013-11-02T06:53:40Z</time>
      </trkpt>
      <trkpt lat="28.39494" lon="83.75575">
        <ele>2704.33</ele>
        <time>2013-11-02T06:53:43Z</time>
      </trkpt>
      <trkpt lat="28.39493" lon="83.75578">
        <ele>2703.85</ele>
        <time>2013-11-02T06:53:45Z</time>
      </trkpt>
      <trkpt lat="28.3949" lon="83.75586">
        <ele>2702.88</ele>
        <time>2013-11-02T06:53:52Z</time>
      </trkpt>
      <trkpt lat="28.39492" lon="83.756">
        <ele>2701.92</ele>
        <time>2013-11-02T06:54:06Z</time>
      </trkpt>
      <trkpt lat="28.39495" lon="83.756">
        <ele>2701.92</ele>
        <time>2013-11-02T06:54:09Z</time>
      </trkpt>
      <trkpt lat="28.39496" lon="83.75607">
        <ele>2703.36</ele>
        <time>2013-11-02T06:54:22Z</time>
      </trkpt>
      <trkpt lat="28.39485" lon="83.75623">
        <ele>2704.81</ele>
        <time>2013-11-02T06:54:36Z</time>
      </trkpt>
      <trkpt lat="28.39482" lon="83.75635">
        <ele>2706.25</ele>
        <time>2013-11-02T06:54:46Z</time>
      </trkpt>
      <trkpt lat="28.39477" lon="83.75651">
        <ele>2706.73</ele>
        <time>2013-11-02T06:55:01Z</time>
      </trkpt>
      <trkpt lat="28.39476" lon="83.75651">
        <ele>2706.25</ele>
        <time>2013-11-02T06:55:02Z</time>
      </trkpt>
      <trkpt lat="28.39471" lon="83.75662">
        <ele>2705.29</ele>
        <time>2013-11-02T06:55:16Z</time>
      </trkpt>
      <trkpt lat="28.3947" lon="83.75667">
        <ele>2704.33</ele>
        <time>2013-11-02T06:55:35Z</time>
      </trkpt>
      <trkpt lat="28.39471" lon="83.75671">
        <ele>2704.81</ele>
        <time>2013-11-02T06:55:43Z</time>
      </trkpt>
      <trkpt lat="28.39471" lon="83.75674">
        <ele>2704.81</ele>
        <time>2013-11-02T06:55:45Z</time>
      </trkpt>
      <trkpt lat="28.39469" lon="83.7568">
        <ele>2704.81</ele>
        <time>2013-11-02T06:55:49Z</time>
      </trkpt>
      <trkpt lat="28.39466" lon="83.75689">
        <ele>2704.81</ele>
        <time>2013-11-02T06:55:57Z</time>
      </trkpt>
      <trkpt lat="28.3946" lon="83.757">
        <ele>2704.33</ele>
        <time>2013-11-02T06:56:07Z</time>
      </trkpt>
      <trkpt lat="28.39462" lon="83.7571">
        <ele>2702.88</ele>
        <time>2013-11-02T06:56:23Z</time>
      </trkpt>
      <trkpt lat="28.39467" lon="83.75718">
        <ele>2702.88</ele>
        <time>2013-11-02T06:56:32Z</time>
      </trkpt>
      <trkpt lat="28.39467" lon="83.75721">
        <ele>2702.88</ele>
        <time>2013-11-02T06:56:34Z</time>
      </trkpt>
      <trkpt lat="28.39463" lon="83.7574">
        <ele>2701.92</ele>
        <time>2013-11-02T06:56:46Z</time>
      </trkpt>
      <trkpt lat="28.39463" lon="83.7575">
        <ele>2700.96</ele>
        <time>2013-11-02T06:57:01Z</time>
      </trkpt>
      <trkpt lat="28.39464" lon="83.75757">
        <ele>2698.08</ele>
        <time>2013-11-02T06:57:18Z</time>
      </trkpt>
      <trkpt lat="28.39465" lon="83.75764">
        <ele>2695.19</ele>
        <time>2013-11-02T06:57:33Z</time>
      </trkpt>
      <trkpt lat="28.39472" lon="83.75765">
        <ele>2691.83</ele>
        <time>2013-11-02T06:57:46Z</time>
      </trkpt>
      <trkpt lat="28.39473" lon="83.75765">
        <ele>2691.83</ele>
        <time>2013-11-02T06:57:47Z</time>
      </trkpt>
      <trkpt lat="28.3948" lon="83.75765">
        <ele>2689.43</ele>
        <time>2013-11-02T06:58:01Z</time>
      </trkpt>
      <trkpt lat="28.39478" lon="83.75773">
        <ele>2686.06</ele>
        <time>2013-11-02T06:58:14Z</time>
      </trkpt>
      <trkpt lat="28.39481" lon="83.75775">
        <ele>2683.18</ele>
        <time>2013-11-02T06:58:27Z</time>
      </trkpt>
      <trkpt lat="28.39482" lon="83.75783">
        <ele>2679.81</ele>
        <time>2013-11-02T06:58:38Z</time>
      </trkpt>
      <trkpt lat="28.39488" lon="83.75782">
        <ele>2676.93</ele>
        <time>2013-11-02T06:58:55Z</time>
      </trkpt>
      <trkpt lat="28.39496" lon="83.75774">
        <ele>2673.56</ele>
        <time>2013-11-02T06:59:13Z</time>
      </trkpt>
      <trkpt lat="28.39503" lon="83.75773">
        <ele>2670.2</ele>
        <time>2013-11-02T06:59:25Z</time>
      </trkpt>
      <trkpt lat="28.39517" lon="83.75761">
        <ele>2667.31</ele>
        <time>2013-11-02T06:59:39Z</time>
      </trkpt>
      <trkpt lat="28.39541" lon="83.75738">
        <ele>2665.87</ele>
        <time>2013-11-02T07:00:01Z</time>
      </trkpt>
      <trkpt lat="28.39546" lon="83.7574">
        <ele>2662.51</ele>
        <time>2013-11-02T07:00:20Z</time>
      </trkpt>
      <trkpt lat="28.39551" lon="83.75735">
        <ele>2661.07</ele>
        <time>2013-11-02T07:00:27Z</time>
      </trkpt>
      <trkpt lat="28.39557" lon="83.75728">
        <ele>2659.14</ele>
        <time>2013-11-02T07:00:34Z</time>
      </trkpt>
      <trkpt lat="28.39569" lon="83.75721">
        <ele>2656.26</ele>
        <time>2013-11-02T07:00:47Z</time>
      </trkpt>
      <trkpt lat="28.39577" lon="83.75721">
        <ele>2652.9</ele>
        <time>2013-11-02T07:01:01Z</time>
      </trkpt>
      <trkpt lat="28.39581" lon="83.75722">
        <ele>2651.93</ele>
        <time>2013-11-02T07:01:12Z</time>
      </trkpt>
      <trkpt lat="28.39582" lon="83.75722">
        <ele>2651.45</ele>
        <time>2013-11-02T07:01:13Z</time>
      </trkpt>
      <trkpt lat="28.3959" lon="83.7572">
        <ele>2648.09</ele>
        <time>2013-11-02T07:01:21Z</time>
      </trkpt>
      <trkpt lat="28.3959" lon="83.7572">
        <ele>2648.09</ele>
        <time>2013-11-02T07:01:22Z</time>
      </trkpt>
      <trkpt lat="28.39591" lon="83.7572">
        <ele>2650.49</ele>
        <time>2013-11-02T07:01:23Z</time>
      </trkpt>
      <trkpt lat="28.39599" lon="83.75716">
        <ele>2647.61</ele>
        <time>2013-11-02T07:01:33Z</time>
      </trkpt>
      <trkpt lat="28.39601" lon="83.75718">
        <ele>2647.61</ele>
        <time>2013-11-02T07:01:38Z</time>
      </trkpt>
      <trkpt lat="28.39613" lon="83.75708">
        <ele>2644.24</ele>
        <time>2013-11-02T07:01:51Z</time>
      </trkpt>
      <trkpt lat="28.39635" lon="83.75689">
        <ele>2643.28</ele>
        <time>2013-11-02T07:02:08Z</time>
      </trkpt>
      <trkpt lat="28.39634" lon="83.75693">
        <ele>2643.76</ele>
        <time>2013-11-02T07:02:25Z</time>
      </trkpt>
      <trkpt lat="28.3964" lon="83.75686">
        <ele>2643.76</ele>
        <time>2013-11-02T07:02:46Z</time>
      </trkpt>
      <trkpt lat="28.39642" lon="83.75691">
        <ele>2643.76</ele>
        <time>2013-11-02T07:03:12Z</time>
      </trkpt>
      <trkpt lat="28.39645" lon="83.75679">
        <ele>2643.76</ele>
        <time>2013-11-02T07:03:34Z</time>
      </trkpt>
      <trkpt lat="28.39645" lon="83.75686">
        <ele>2641.84</ele>
        <time>2013-11-02T07:03:45Z</time>
      </trkpt>
      <trkpt lat="28.39643" lon="83.75692">
        <ele>2640.88</ele>
        <time>2013-11-02T07:03:48Z</time>
      </trkpt>
      <trkpt lat="28.39637" lon="83.75713">
        <ele>2637.51</ele>
        <time>2013-11-02T07:04:01Z</time>
      </trkpt>
      <trkpt lat="28.39629" lon="83.75731">
        <ele>2635.59</ele>
        <time>2013-11-02T07:04:15Z</time>
      </trkpt>
      <trkpt lat="28.39624" lon="83.75733">
        <ele>2632.71</ele>
        <time>2013-11-02T07:04:25Z</time>
      </trkpt>
      <trkpt lat="28.39633" lon="83.75743">
        <ele>2629.34</ele>
        <time>2013-11-02T07:04:36Z</time>
      </trkpt>
      <trkpt lat="28.39645" lon="83.75732">
        <ele>2626.46</ele>
        <time>2013-11-02T07:04:51Z</time>
      </trkpt>
      <trkpt lat="28.39652" lon="83.75724">
        <ele>2623.58</ele>
        <time>2013-11-02T07:05:05Z</time>
      </trkpt>
      <trkpt lat="28.39674" lon="83.75704">
        <ele>2620.69</ele>
        <time>2013-11-02T07:05:17Z</time>
      </trkpt>
      <trkpt lat="28.3972" lon="83.75638">
        <ele>2618.29</ele>
        <time>2013-11-02T07:05:30Z</time>
      </trkpt>
      <trkpt lat="28.39774" lon="83.75563">
        <ele>2615.4</ele>
        <time>2013-11-02T07:05:50Z</time>
      </trkpt>
      <trkpt lat="28.39844" lon="83.75467">
        <ele>2615.88</ele>
        <time>2013-11-02T07:06:20Z</time>
      </trkpt>
      <trkpt lat="28.39889" lon="83.75395">
        <ele>2618.29</ele>
        <time>2013-11-02T07:06:39Z</time>
      </trkpt>
      <trkpt lat="28.39931" lon="83.75334">
        <ele>2615.88</ele>
        <time>2013-11-02T07:06:55Z</time>
      </trkpt>
      <trkpt lat="28.3998" lon="83.75279">
        <ele>2613</ele>
        <time>2013-11-02T07:07:06Z</time>
      </trkpt>
      <trkpt lat="28.4003" lon="83.75214">
        <ele>2610.12</ele>
        <time>2013-11-02T07:07:21Z</time>
      </trkpt>
      <trkpt lat="28.40087" lon="83.75136">
        <ele>2606.75</ele>
        <time>2013-11-02T07:07:36Z</time>
      </trkpt>
      <trkpt lat="28.4014" lon="83.75067">
        <ele>2603.87</ele>
        <time>2013-11-02T07:07:49Z</time>
      </trkpt>
      <trkpt lat="28.40215" lon="83.7498">
        <ele>2600.98</ele>
        <time>2013-11-02T07:08:04Z</time>
      </trkpt>
      <trkpt lat="28.40283" lon="83.74898">
        <ele>2597.62</ele>
        <time>2013-11-02T07:08:16Z</time>
      </trkpt>
      <trkpt lat="28.40355" lon="83.74812">
        <ele>2594.25</ele>
        <time>2013-11-02T07:08:27Z</time>
      </trkpt>
      <trkpt lat="28.40485" lon="83.74639">
        <ele>2592.33</ele>
        <time>2013-11-02T07:08:47Z</time>
      </trkpt>
      <trkpt lat="28.40547" lon="83.74564">
        <ele>2588.97</ele>
        <time>2013-11-02T07:08:56Z</time>
      </trkpt>
      <trkpt lat="28.40613" lon="83.7448">
        <ele>2586.08</ele>
        <time>2013-11-02T07:09:05Z</time>
      </trkpt>
      <trkpt lat="28.40745" lon="83.74288">
        <ele>2582.72</ele>
        <time>2013-11-02T07:09:26Z</time>
      </trkpt>
      <trkpt lat="28.40838" lon="83.74199">
        <ele>2579.84</ele>
        <time>2013-11-02T07:09:41Z</time>
      </trkpt>
      <trkpt lat="28.40841" lon="83.74199">
        <ele>2578.87</ele>
        <time>2013-11-02T07:09:45Z</time>
      </trkpt>
      <trkpt lat="28.40679" lon="83.74399">
        <ele>2575.99</ele>
        <time>2013-11-02T07:10:00Z</time>
      </trkpt>
      <trkpt lat="28.40389" lon="83.74817">
        <ele>2573.11</ele>
        <time>2013-11-02T07:10:14Z</time>
      </trkpt>
      <trkpt lat="28.3996" lon="83.75384">
        <ele>2571.18</ele>
        <time>2013-11-02T07:10:28Z</time>
      </trkpt>
      <trkpt lat="28.39754" lon="83.75672">
        <ele>2570.22</ele>
        <time>2013-11-02T07:10:33Z</time>
      </trkpt>
      <trkpt lat="28.39521" lon="83.75997">
        <ele>2566.86</ele>
        <time>2013-11-02T07:10:44Z</time>
      </trkpt>
      <trkpt lat="28.39415" lon="83.76149">
        <ele>2563.49</ele>
        <time>2013-11-02T07:10:56Z</time>
      </trkpt>
      <trkpt lat="28.39454" lon="83.76107">
        <ele>2560.61</ele>
        <time>2013-11-02T07:11:09Z</time>
      </trkpt>
      <trkpt lat="28.39485" lon="83.76064">
        <ele>2557.24</ele>
        <time>2013-11-02T07:11:22Z</time>
      </trkpt>
      <trkpt lat="28.39507" lon="83.76041">
        <ele>2553.88</ele>
        <time>2013-11-02T07:11:38Z</time>
      </trkpt>
      <trkpt lat="28.39511" lon="83.76046">
        <ele>2551.48</ele>
        <time>2013-11-02T07:11:51Z</time>
      </trkpt>
      <trkpt lat="28.39528" lon="83.76047">
        <ele>2547.63</ele>
        <time>2013-11-02T07:12:06Z</time>
      </trkpt>
      <trkpt lat="28.39545" lon="83.76037">
        <ele>2544.75</ele>
        <time>2013-11-02T07:12:20Z</time>
      </trkpt>
      <trkpt lat="28.39554" lon="83.76046">
        <ele>2541.86</ele>
        <time>2013-11-02T07:12:36Z</time>
      </trkpt>
      <trkpt lat="28.39556" lon="83.76047">
        <ele>2541.38</ele>
        <time>2013-11-02T07:12:40Z</time>
      </trkpt>
      <trkpt lat="28.39561" lon="83.76049">
        <ele>2540.42</ele>
        <time>2013-11-02T07:12:54Z</time>
      </trkpt>
      <trkpt lat="28.39567" lon="83.76045">
        <ele>2539.46</ele>
        <time>2013-11-02T07:13:05Z</time>
      </trkpt>
      <trkpt lat="28.39583" lon="83.76051">
        <ele>2539.94</ele>
        <time>2013-11-02T07:13:19Z</time>
      </trkpt>
      <trkpt lat="28.39591" lon="83.7605">
        <ele>2540.9</ele>
        <time>2013-11-02T07:13:25Z</time>
      </trkpt>
      <trkpt lat="28.396" lon="83.76048">
        <ele>2539.94</ele>
        <time>2013-11-02T07:13:40Z</time>
      </trkpt>
      <trkpt lat="28.39609" lon="83.76038">
        <ele>2539.94</ele>
        <time>2013-11-02T07:13:58Z</time>
      </trkpt>
      <trkpt lat="28.39617" lon="83.76024">
        <ele>2538.98</ele>
        <time>2013-11-02T07:14:25Z</time>
      </trkpt>
      <trkpt lat="28.39616" lon="83.76026">
        <ele>2538.5</ele>
        <time>2013-11-02T07:14:47Z</time>
      </trkpt>
      <trkpt lat="28.3962" lon="83.76029">
        <ele>2538.02</ele>
        <time>2013-11-02T07:15:13Z</time>
      </trkpt>
      <trkpt lat="28.39626" lon="83.76026">
        <ele>2537.54</ele>
        <time>2013-11-02T07:15:33Z</time>
      </trkpt>
      <trkpt lat="28.39625" lon="83.76027">
        <ele>2537.06</ele>
        <time>2013-11-02T07:15:52Z</time>
      </trkpt>
      <trkpt lat="28.39623" lon="83.76025">
        <ele>2536.58</ele>
        <time>2013-11-02T07:16:11Z</time>
      </trkpt>
      <trkpt lat="28.39628" lon="83.76022">
        <ele>2536.58</ele>
        <time>2013-11-02T07:16:28Z</time>
      </trkpt>
      <trkpt lat="28.39622" lon="83.76035">
        <ele>2536.1</ele>
        <time>2013-11-02T07:16:48Z</time>
      </trkpt>
      <trkpt lat="28.39621" lon="83.76038">
        <ele>2535.61</ele>
        <time>2013-11-02T07:17:09Z</time>
      </trkpt>
      <trkpt lat="28.3963" lon="83.76038">
        <ele>2535.13</ele>
        <time>2013-11-02T07:17:31Z</time>
      </trkpt>
      <trkpt lat="28.39638" lon="83.76028">
        <ele>2534.17</ele>
        <time>2013-11-02T07:17:54Z</time>
      </trkpt>
      <trkpt lat="28.39636" lon="83.76027">
        <ele>2535.61</ele>
        <time>2013-11-02T07:17:56Z</time>
      </trkpt>
      <trkpt lat="28.39632" lon="83.7602">
        <ele>2534.65</ele>
        <time>2013-11-02T07:18:19Z</time>
      </trkpt>
      <trkpt lat="28.39633" lon="83.76021">
        <ele>2534.17</ele>
        <time>2013-11-02T07:18:37Z</time>
      </trkpt>
      <trkpt lat="28.39631" lon="83.76024">
        <ele>2533.69</ele>
        <time>2013-11-02T07:19:00Z</time>
      </trkpt>
      <trkpt lat="28.39629" lon="83.76025">
        <ele>2534.17</ele>
        <time>2013-11-02T07:19:13Z</time>
      </trkpt>
      <trkpt lat="28.3963" lon="83.76024">
        <ele>2533.21</ele>
        <time>2013-11-02T07:19:31Z</time>
      </trkpt>
      <trkpt lat="28.39629" lon="83.76025">
        <ele>2533.69</ele>
        <time>2013-11-02T07:19:37Z</time>
      </trkpt>
      <trkpt lat="28.39632" lon="83.76024">
        <ele>2533.21</ele>
        <time>2013-11-02T07:19:57Z</time>
      </trkpt>
      <trkpt lat="28.39631" lon="83.76023">
        <ele>2532.73</ele>
        <time>2013-11-02T07:20:19Z</time>
      </trkpt>
      <trkpt lat="28.39631" lon="83.76023">
        <ele>2532.25</ele>
        <time>2013-11-02T07:20:38Z</time>
      </trkpt>
      <trkpt lat="28.39639" lon="83.76018">
        <ele>2532.73</ele>
        <time>2013-11-02T07:20:54Z</time>
      </trkpt>
      <trkpt lat="28.39662" lon="83.75994">
        <ele>2532.73</ele>
        <time>2013-11-02T07:21:11Z</time>
      </trkpt>
      <trkpt lat="28.39672" lon="83.75993">
        <ele>2535.61</ele>
        <time>2013-11-02T07:21:24Z</time>
      </trkpt>
      <trkpt lat="28.39666" lon="83.75995">
        <ele>2536.1</ele>
        <time>2013-11-02T07:21:37Z</time>
      </trkpt>
      <trkpt lat="28.39659" lon="83.75999">
        <ele>2537.54</ele>
        <time>2013-11-02T07:21:50Z</time>
      </trkpt>
      <trkpt lat="28.39651" lon="83.75999">
        <ele>2539.46</ele>
        <time>2013-11-02T07:22:04Z</time>
      </trkpt>
      <trkpt lat="28.39641" lon="83.75998">
        <ele>2541.86</ele>
        <time>2013-11-02T07:22:19Z</time>
      </trkpt>
      <trkpt lat="28.3964" lon="83.76001">
        <ele>2543.79</ele>
        <time>2013-11-02T07:22:38Z</time>
      </trkpt>
      <trkpt lat="28.39639" lon="83.76006">
        <ele>2545.71</ele>
        <time>2013-11-02T07:22:55Z</time>
      </trkpt>
      <trkpt lat="28.39631" lon="83.76005">
        <ele>2549.07</ele>
        <time>2013-11-02T07:23:10Z</time>
      </trkpt>
      <trkpt lat="28.39625" lon="83.76003">
        <ele>2551</ele>
        <time>2013-11-02T07:23:21Z</time>
      </trkpt>
      <trkpt lat="28.3962" lon="83.76005">
        <ele>2553.4</ele>
        <time>2013-11-02T07:23:35Z</time>
      </trkpt>
      <trkpt lat="28.39616" lon="83.76016">
        <ele>2555.8</ele>
        <time>2013-11-02T07:23:51Z</time>
      </trkpt>
      <trkpt lat="28.39616" lon="83.76024">
        <ele>2559.17</ele>
        <time>2013-11-02T07:24:04Z</time>
      </trkpt>
      <trkpt lat="28.39619" lon="83.76029">
        <ele>2561.57</ele>
        <time>2013-11-02T07:24:18Z</time>
      </trkpt>
      <trkpt lat="28.3962" lon="83.7603">
        <ele>2562.53</ele>
        <time>2013-11-02T07:24:39Z</time>
      </trkpt>
      <trkpt lat="28.3962" lon="83.76029">
        <ele>2563.01</ele>
        <time>2013-11-02T07:25:06Z</time>
      </trkpt>
      <trkpt lat="28.3962" lon="83.7603">
        <ele>2562.05</ele>
        <time>2013-11-02T07:25:11Z</time>
      </trkpt>
      <trkpt lat="28.39617" lon="83.76036">
        <ele>2563.49</ele>
        <time>2013-11-02T07:25:20Z</time>
      </trkpt>
      <trkpt lat="28.39614" lon="83.76037">
        <ele>2565.42</ele>
        <time>2013-11-02T07:25:33Z</time>
      </trkpt>
      <trkpt lat="28.39613" lon="83.76037">
        <ele>2567.34</ele>
        <time>2013-11-02T07:25:50Z</time>
      </trkpt>
      <trkpt lat="28.39612" lon="83.76041">
        <ele>2569.74</ele>
        <time>2013-11-02T07:26:06Z</time>
      </trkpt>
      <trkpt lat="28.39609" lon="83.76045">
        <ele>2571.66</ele>
        <time>2013-11-02T07:26:19Z</time>
      </trkpt>
      <trkpt lat="28.39605" lon="83.76049">
        <ele>2574.55</ele>
        <time>2013-11-02T07:26:37Z</time>
      </trkpt>
      <trkpt lat="28.39608" lon="83.76047">
        <ele>2576.47</ele>
        <time>2013-11-02T07:26:51Z</time>
      </trkpt>
      <trkpt lat="28.39606" lon="83.76052">
        <ele>2579.35</ele>
        <time>2013-11-02T07:27:10Z</time>
      </trkpt>
      <trkpt lat="28.39607" lon="83.76052">
        <ele>2579.35</ele>
        <time>2013-11-02T07:27:18Z</time>
      </trkpt>
      <trkpt lat="28.39608" lon="83.76053">
        <ele>2581.76</ele>
        <time>2013-11-02T07:27:34Z</time>
      </trkpt>
      <trkpt lat="28.39603" lon="83.76056">
        <ele>2583.68</ele>
        <time>2013-11-02T07:27:52Z</time>
      </trkpt>
      <trkpt lat="28.39601" lon="83.76059">
        <ele>2586.08</ele>
        <time>2013-11-02T07:28:07Z</time>
      </trkpt>
      <trkpt lat="28.39601" lon="83.76058">
        <ele>2588.01</ele>
        <time>2013-11-02T07:28:24Z</time>
      </trkpt>
      <trkpt lat="28.39607" lon="83.76054">
        <ele>2588.97</ele>
        <time>2013-11-02T07:28:39Z</time>
      </trkpt>
      <trkpt lat="28.39609" lon="83.76051">
        <ele>2591.85</ele>
        <time>2013-11-02T07:28:54Z</time>
      </trkpt>
      <trkpt lat="28.39609" lon="83.76056">
        <ele>2593.29</ele>
        <time>2013-11-02T07:29:08Z</time>
      </trkpt>
      <trkpt lat="28.3961" lon="83.76061">
        <ele>2594.25</ele>
        <time>2013-11-02T07:29:21Z</time>
      </trkpt>
      <trkpt lat="28.39612" lon="83.76067">
        <ele>2595.22</ele>
        <time>2013-11-02T07:29:36Z</time>
      </trkpt>
      <trkpt lat="28.39611" lon="83.76068">
        <ele>2595.7</ele>
        <time>2013-11-02T07:29:49Z</time>
      </trkpt>
      <trkpt lat="28.39609" lon="83.76071">
        <ele>2597.14</ele>
        <time>2013-11-02T07:30:03Z</time>
      </trkpt>
      <trkpt lat="28.39608" lon="83.76071">
        <ele>2597.14</ele>
        <time>2013-11-02T07:30:22Z</time>
      </trkpt>
      <trkpt lat="28.3961" lon="83.76076">
        <ele>2597.14</ele>
        <time>2013-11-02T07:30:43Z</time>
      </trkpt>
      <trkpt lat="28.39607" lon="83.76079">
        <ele>2596.66</ele>
        <time>2013-11-02T07:31:02Z</time>
      </trkpt>
      <trkpt lat="28.39607" lon="83.76077">
        <ele>2596.18</ele>
        <time>2013-11-02T07:31:26Z</time>
      </trkpt>
      <trkpt lat="28.39608" lon="83.76085">
        <ele>2597.62</ele>
        <time>2013-11-02T07:31:44Z</time>
      </trkpt>
      <trkpt lat="28.39609" lon="83.76085">
        <ele>2599.54</ele>
        <time>2013-11-02T07:32:02Z</time>
      </trkpt>
      <trkpt lat="28.39608" lon="83.76085">
        <ele>2602.43</ele>
        <time>2013-11-02T07:32:19Z</time>
      </trkpt>
      <trkpt lat="28.39609" lon="83.76078">
        <ele>2603.87</ele>
        <time>2013-11-02T07:32:34Z</time>
      </trkpt>
      <trkpt lat="28.39612" lon="83.76074">
        <ele>2605.79</ele>
        <time>2013-11-02T07:32:47Z</time>
      </trkpt>
      <trkpt lat="28.39612" lon="83.76074">
        <ele>2607.23</ele>
        <time>2013-11-02T07:33:04Z</time>
      </trkpt>
      <trkpt lat="28.39611" lon="83.76079">
        <ele>2609.16</ele>
        <time>2013-11-02T07:33:21Z</time>
      </trkpt>
      <trkpt lat="28.39609" lon="83.76082">
        <ele>2609.64</ele>
        <time>2013-11-02T07:33:37Z</time>
      </trkpt>
      <trkpt lat="28.3961" lon="83.76081">
        <ele>2609.64</ele>
        <time>2013-11-02T07:33:39Z</time>
      </trkpt>
      <trkpt lat="28.39609" lon="83.76075">
        <ele>2611.08</ele>
        <time>2013-11-02T07:33:43Z</time>
      </trkpt>
      <trkpt lat="28.3961" lon="83.76073">
        <ele>2611.56</ele>
        <time>2013-11-02T07:33:58Z</time>
      </trkpt>
      <trkpt lat="28.39612" lon="83.76077">
        <ele>2613.96</ele>
        <time>2013-11-02T07:34:12Z</time>
      </trkpt>
      <trkpt lat="28.39614" lon="83.76077">
        <ele>2614.44</ele>
        <time>2013-11-02T07:34:33Z</time>
      </trkpt>
      <trkpt lat="28.39613" lon="83.7608">
        <ele>2616.37</ele>
        <time>2013-11-02T07:34:50Z</time>
      </trkpt>
      <trkpt lat="28.39615" lon="83.76085">
        <ele>2618.77</ele>
        <time>2013-11-02T07:35:11Z</time>
      </trkpt>
      <trkpt lat="28.39618" lon="83.76094">
        <ele>2621.65</ele>
        <time>2013-11-02T07:35:27Z</time>
      </trkpt>
      <trkpt lat="28.3962" lon="83.76105">
        <ele>2623.09</ele>
        <time>2013-11-02T07:35:45Z</time>
      </trkpt>
      <trkpt lat="28.39617" lon="83.76105">
        <ele>2623.09</ele>
        <time>2013-11-02T07:36:01Z</time>
      </trkpt>
      <trkpt lat="28.39617" lon="83.76104">
        <ele>2623.09</ele>
        <time>2013-11-02T07:36:19Z</time>
      </trkpt>
      <trkpt lat="28.39616" lon="83.76105">
        <ele>2623.09</ele>
        <time>2013-11-02T07:36:38Z</time>
      </trkpt>
      <trkpt lat="28.39617" lon="83.76104">
        <ele>2622.61</ele>
        <time>2013-11-02T07:37:01Z</time>
      </trkpt>
      <trkpt lat="28.39618" lon="83.76103">
        <ele>2622.61</ele>
        <time>2013-11-02T07:37:25Z</time>
      </trkpt>
      <trkpt lat="28.39617" lon="83.76102">
        <ele>2622.61</ele>
        <time>2013-11-02T07:37:53Z</time>
      </trkpt>
      <trkpt lat="28.39617" lon="83.76102">
        <ele>2623.09</ele>
        <time>2013-11-02T07:38:21Z</time>
      </trkpt>
      <trkpt lat="28.39615" lon="83.76103">
        <ele>2622.61</ele>
        <time>2013-11-02T07:38:38Z</time>
      </trkpt>
      <trkpt lat="28.39613" lon="83.76105">
        <ele>2623.09</ele>
        <time>2013-11-02T07:39:06Z</time>
      </trkpt>
      <trkpt lat="28.39611" lon="83.76106">
        <ele>2623.09</ele>
        <time>2013-11-02T07:39:36Z</time>
      </trkpt>
      <trkpt lat="28.3961" lon="83.76106">
        <ele>2623.09</ele>
        <time>2013-11-02T07:40:05Z</time>
      </trkpt>
      <trkpt lat="28.3961" lon="83.76106">
        <ele>2623.09</ele>
        <time>2013-11-02T07:40:33Z</time>
      </trkpt>
      <trkpt lat="28.39611" lon="83.76109">
        <ele>2624.06</ele>
        <time>2013-11-02T07:40:54Z</time>
      </trkpt>
      <trkpt lat="28.39616" lon="83.76113">
        <ele>2625.5</ele>
        <time>2013-11-02T07:41:02Z</time>
      </trkpt>
      <trkpt lat="28.39624" lon="83.76131">
        <ele>2627.42</ele>
        <time>2013-11-02T07:41:20Z</time>
      </trkpt>
      <trkpt lat="28.39629" lon="83.76146">
        <ele>2626.94</ele>
        <time>2013-11-02T07:41:40Z</time>
      </trkpt>
      <trkpt lat="28.39636" lon="83.76159">
        <ele>2628.38</ele>
        <time>2013-11-02T07:41:59Z</time>
      </trkpt>
      <trkpt lat="28.39637" lon="83.76166">
        <ele>2628.38</ele>
        <time>2013-11-02T07:42:15Z</time>
      </trkpt>
      <trkpt lat="28.39636" lon="83.7618">
        <ele>2629.34</ele>
        <time>2013-11-02T07:42:33Z</time>
      </trkpt>
      <trkpt lat="28.39634" lon="83.76186">
        <ele>2632.23</ele>
        <time>2013-11-02T07:42:49Z</time>
      </trkpt>
      <trkpt lat="28.39634" lon="83.76193">
        <ele>2635.59</ele>
        <time>2013-11-02T07:43:08Z</time>
      </trkpt>
      <trkpt lat="28.39633" lon="83.76196">
        <ele>2637.99</ele>
        <time>2013-11-02T07:43:26Z</time>
      </trkpt>
      <trkpt lat="28.3963" lon="83.76195">
        <ele>2640.4</ele>
        <time>2013-11-02T07:43:42Z</time>
      </trkpt>
      <trkpt lat="28.39626" lon="83.76208">
        <ele>2641.36</ele>
        <time>2013-11-02T07:44:01Z</time>
      </trkpt>
      <trkpt lat="28.39624" lon="83.76214">
        <ele>2643.76</ele>
        <time>2013-11-02T07:44:19Z</time>
      </trkpt>
      <trkpt lat="28.39621" lon="83.76219">
        <ele>2645.69</ele>
        <time>2013-11-02T07:44:35Z</time>
      </trkpt>
      <trkpt lat="28.39613" lon="83.76224">
        <ele>2648.09</ele>
        <time>2013-11-02T07:44:50Z</time>
      </trkpt>
      <trkpt lat="28.39608" lon="83.76229">
        <ele>2650.49</ele>
        <time>2013-11-02T07:45:05Z</time>
      </trkpt>
      <trkpt lat="28.39605" lon="83.76234">
        <ele>2651.93</ele>
        <time>2013-11-02T07:45:22Z</time>
      </trkpt>
      <trkpt lat="28.396" lon="83.76239">
        <ele>2655.3</ele>
        <time>2013-11-02T07:45:37Z</time>
      </trkpt>
      <trkpt lat="28.39599" lon="83.76248">
        <ele>2658.18</ele>
        <time>2013-11-02T07:45:54Z</time>
      </trkpt>
      <trkpt lat="28.39597" lon="83.7626">
        <ele>2661.07</ele>
        <time>2013-11-02T07:46:07Z</time>
      </trkpt>
      <trkpt lat="28.39599" lon="83.76266">
        <ele>2663.95</ele>
        <time>2013-11-02T07:46:24Z</time>
      </trkpt>
      <trkpt lat="28.39601" lon="83.76273">
        <ele>2664.43</ele>
        <time>2013-11-02T07:46:40Z</time>
      </trkpt>
      <trkpt lat="28.39596" lon="83.76282">
        <ele>2665.39</ele>
        <time>2013-11-02T07:47:00Z</time>
      </trkpt>
      <trkpt lat="28.39598" lon="83.76304">
        <ele>2666.83</ele>
        <time>2013-11-02T07:47:18Z</time>
      </trkpt>
      <trkpt lat="28.39599" lon="83.76306">
        <ele>2668.28</ele>
        <time>2013-11-02T07:47:24Z</time>
      </trkpt>
      <trkpt lat="28.39601" lon="83.76307">
        <ele>2668.28</ele>
        <time>2013-11-02T07:47:29Z</time>
      </trkpt>
      <trkpt lat="28.39599" lon="83.76313">
        <ele>2670.2</ele>
        <time>2013-11-02T07:47:48Z</time>
      </trkpt>
      <trkpt lat="28.39595" lon="83.76327">
        <ele>2670.2</ele>
        <time>2013-11-02T07:47:55Z</time>
      </trkpt>
      <trkpt lat="28.39592" lon="83.76345">
        <ele>2672.12</ele>
        <time>2013-11-02T07:48:12Z</time>
      </trkpt>
      <trkpt lat="28.39596" lon="83.76355">
        <ele>2674.52</ele>
        <time>2013-11-02T07:48:30Z</time>
      </trkpt>
      <trkpt lat="28.39597" lon="83.76357">
        <ele>2675.01</ele>
        <time>2013-11-02T07:48:43Z</time>
      </trkpt>
      <trkpt lat="28.39603" lon="83.76361">
        <ele>2677.41</ele>
        <time>2013-11-02T07:48:56Z</time>
      </trkpt>
      <trkpt lat="28.39605" lon="83.76376">
        <ele>2679.33</ele>
        <time>2013-11-02T07:49:16Z</time>
      </trkpt>
      <trkpt lat="28.39611" lon="83.76384">
        <ele>2681.25</ele>
        <time>2013-11-02T07:49:39Z</time>
      </trkpt>
      <trkpt lat="28.39613" lon="83.76391">
        <ele>2682.22</ele>
        <time>2013-11-02T07:49:53Z</time>
      </trkpt>
      <trkpt lat="28.39614" lon="83.76406">
        <ele>2682.7</ele>
        <time>2013-11-02T07:50:07Z</time>
      </trkpt>
      <trkpt lat="28.39618" lon="83.76419">
        <ele>2684.62</ele>
        <time>2013-11-02T07:50:22Z</time>
      </trkpt>
      <trkpt lat="28.39623" lon="83.76441">
        <ele>2687.5</ele>
        <time>2013-11-02T07:50:44Z</time>
      </trkpt>
      <trkpt lat="28.39636" lon="83.76455">
        <ele>2689.91</ele>
        <time>2013-11-02T07:51:00Z</time>
      </trkpt>
      <trkpt lat="28.39642" lon="83.76469">
        <ele>2690.39</ele>
        <time>2013-11-02T07:51:11Z</time>
      </trkpt>
      <trkpt lat="28.39639" lon="83.76475">
        <ele>2689.91</ele>
        <time>2013-11-02T07:51:31Z</time>
      </trkpt>
      <trkpt lat="28.39643" lon="83.76487">
        <ele>2690.87</ele>
        <time>2013-11-02T07:51:48Z</time>
      </trkpt>
      <trkpt lat="28.3964" lon="83.76497">
        <ele>2691.35</ele>
        <time>2013-11-02T07:52:03Z</time>
      </trkpt>
      <trkpt lat="28.39642" lon="83.76508">
        <ele>2691.83</ele>
        <time>2013-11-02T07:52:18Z</time>
      </trkpt>
      <trkpt lat="28.39642" lon="83.76515">
        <ele>2693.27</ele>
        <time>2013-11-02T07:52:37Z</time>
      </trkpt>
      <trkpt lat="28.39642" lon="83.76518">
        <ele>2693.27</ele>
        <time>2013-11-02T07:52:44Z</time>
      </trkpt>
      <trkpt lat="28.39646" lon="83.76529">
        <ele>2694.23</ele>
        <time>2013-11-02T07:53:00Z</time>
      </trkpt>
      <trkpt lat="28.39644" lon="83.76533">
        <ele>2694.23</ele>
        <time>2013-11-02T07:53:16Z</time>
      </trkpt>
      <trkpt lat="28.39644" lon="83.76542">
        <ele>2694.71</ele>
        <time>2013-11-02T07:53:30Z</time>
      </trkpt>
      <trkpt lat="28.39647" lon="83.76543">
        <ele>2695.19</ele>
        <time>2013-11-02T07:53:35Z</time>
      </trkpt>
      <trkpt lat="28.39656" lon="83.7654">
        <ele>2695.67</ele>
        <time>2013-11-02T07:53:49Z</time>
      </trkpt>
      <trkpt lat="28.39661" lon="83.76546">
        <ele>2697.12</ele>
        <time>2013-11-02T07:54:01Z</time>
      </trkpt>
      <trkpt lat="28.39668" lon="83.7655">
        <ele>2698.08</ele>
        <time>2013-11-02T07:54:13Z</time>
      </trkpt>
      <trkpt lat="28.3967" lon="83.7655">
        <ele>2697.12</ele>
        <time>2013-11-02T07:54:28Z</time>
      </trkpt>
      <trkpt lat="28.39671" lon="83.76548">
        <ele>2697.12</ele>
        <time>2013-11-02T07:54:34Z</time>
      </trkpt>
      <trkpt lat="28.39671" lon="83.76543">
        <ele>2696.64</ele>
        <time>2013-11-02T07:54:49Z</time>
      </trkpt>
      <trkpt lat="28.39671" lon="83.76543">
        <ele>2698.08</ele>
        <time>2013-11-02T07:54:51Z</time>
      </trkpt>
      <trkpt lat="28.39672" lon="83.76543">
        <ele>2699.04</ele>
        <time>2013-11-02T07:55:11Z</time>
      </trkpt>
      <trkpt lat="28.39672" lon="83.76552">
        <ele>2698.56</ele>
        <time>2013-11-02T07:55:35Z</time>
      </trkpt>
      <trkpt lat="28.39673" lon="83.7655">
        <ele>2699.04</ele>
        <time>2013-11-02T07:56:00Z</time>
      </trkpt>
      <trkpt lat="28.39673" lon="83.76549">
        <ele>2696.15</ele>
        <time>2013-11-02T07:56:20Z</time>
      </trkpt>
      <trkpt lat="28.39673" lon="83.76549">
        <ele>2695.19</ele>
        <time>2013-11-02T07:56:21Z</time>
      </trkpt>
      <trkpt lat="28.39673" lon="83.76549">
        <ele>2700.96</ele>
        <time>2013-11-02T07:56:22Z</time>
      </trkpt>
      <trkpt lat="28.39673" lon="83.76549">
        <ele>2699.52</ele>
        <time>2013-11-02T07:56:23Z</time>
      </trkpt>
      <trkpt lat="28.39673" lon="83.76549">
        <ele>2695.19</ele>
        <time>2013-11-02T07:56:24Z</time>
      </trkpt>
      <trkpt lat="28.39674" lon="83.76549">
        <ele>2700.48</ele>
        <time>2013-11-02T07:56:25Z</time>
      </trkpt>
      <trkpt lat="28.39674" lon="83.76549">
        <ele>2698.56</ele>
        <time>2013-11-02T07:56:26Z</time>
      </trkpt>
      <trkpt lat="28.39674" lon="83.76549">
        <ele>2695.67</ele>
        <time>2013-11-02T07:56:30Z</time>
      </trkpt>
      <trkpt lat="28.39674" lon="83.76549">
        <ele>2704.81</ele>
        <time>2013-11-02T07:56:31Z</time>
      </trkpt>
      <trkpt lat="28.39674" lon="83.76549">
        <ele>2704.81</ele>
        <time>2013-11-02T07:56:32Z</time>
      </trkpt>
      <trkpt lat="28.39674" lon="83.76549">
        <ele>2689.91</ele>
        <time>2013-11-02T07:56:33Z</time>
      </trkpt>
      <trkpt lat="28.39674" lon="83.76549">
        <ele>2702.4</ele>
        <time>2013-11-02T07:56:34Z</time>
      </trkpt>
      <trkpt lat="28.39674" lon="83.76549">
        <ele>2693.75</ele>
        <time>2013-11-02T07:56:38Z</time>
      </trkpt>
      <trkpt lat="28.39674" lon="83.76549">
        <ele>2703.85</ele>
        <time>2013-11-02T07:56:39Z</time>
      </trkpt>
      <trkpt lat="28.39674" lon="83.76549">
        <ele>2698.08</ele>
        <time>2013-11-02T07:56:40Z</time>
      </trkpt>
      <trkpt lat="28.39674" lon="83.76549">
        <ele>2693.27</ele>
        <time>2013-11-02T07:56:41Z</time>
      </trkpt>
      <trkpt lat="28.39674" lon="83.76549">
        <ele>2699.04</ele>
        <time>2013-11-02T07:56:42Z</time>
      </trkpt>
      <trkpt lat="28.39674" lon="83.7655">
        <ele>2699.04</ele>
        <time>2013-11-02T07:56:43Z</time>
      </trkpt>
      <trkpt lat="28.39674" lon="83.76549">
        <ele>2696.64</ele>
        <time>2013-11-02T07:56:44Z</time>
      </trkpt>
      <trkpt lat="28.39674" lon="83.76549">
        <ele>2698.56</ele>
        <time>2013-11-02T07:56:45Z</time>
      </trkpt>
      <trkpt lat="28.39674" lon="83.76549">
        <ele>2693.75</ele>
        <time>2013-11-02T07:56:46Z</time>
      </trkpt>
      <trkpt lat="28.39674" lon="83.76549">
        <ele>2698.08</ele>
        <time>2013-11-02T07:56:47Z</time>
      </trkpt>
      <trkpt lat="28.39674" lon="83.76549">
        <ele>2702.4</ele>
        <time>2013-11-02T07:56:48Z</time>
      </trkpt>
      <trkpt lat="28.39674" lon="83.76549">
        <ele>2698.08</ele>
        <time>2013-11-02T07:56:49Z</time>
      </trkpt>
      <trkpt lat="28.39674" lon="83.76549">
        <ele>2693.75</ele>
        <time>2013-11-02T07:56:50Z</time>
      </trkpt>
      <trkpt lat="28.39674" lon="83.76549">
        <ele>2699.52</ele>
        <time>2013-11-02T07:56:51Z</time>
      </trkpt>
      <trkpt lat="28.39674" lon="83.76549">
        <ele>2698.08</ele>
        <time>2013-11-02T07:56:53Z</time>
      </trkpt>
      <trkpt lat="28.39674" lon="83.7655">
        <ele>2697.6</ele>
        <time>2013-11-02T07:57:20Z</time>
      </trkpt>
      <trkpt lat="28.39674" lon="83.76549">
        <ele>2696.64</ele>
        <time>2013-11-02T07:57:36Z</time>
      </trkpt>
      <trkpt lat="28.39673" lon="83.76551">
        <ele>2696.15</ele>
        <time>2013-11-02T07:57:57Z</time>
      </trkpt>
      <trkpt lat="28.39673" lon="83.7655">
        <ele>2695.67</ele>
        <time>2013-11-02T07:58:20Z</time>
      </trkpt>
      <trkpt lat="28.39673" lon="83.76548">
        <ele>2695.67</ele>
        <time>2013-11-02T07:58:37Z</time>
      </trkpt>
      <trkpt lat="28.39675" lon="83.76553">
        <ele>2694.71</ele>
        <time>2013-11-02T07:58:59Z</time>
      </trkpt>
      <trkpt lat="28.39675" lon="83.76555">
        <ele>2695.19</ele>
        <time>2013-11-02T07:59:21Z</time>
      </trkpt>
      <trkpt lat="28.39676" lon="83.76557">
        <ele>2694.71</ele>
        <time>2013-11-02T07:59:36Z</time>
      </trkpt>
      <trkpt lat="28.39676" lon="83.76559">
        <ele>2694.23</ele>
        <time>2013-11-02T07:59:59Z</time>
      </trkpt>
      <trkpt lat="28.39676" lon="83.76559">
        <ele>2694.23</ele>
        <time>2013-11-02T08:00:24Z</time>
      </trkpt>
      <trkpt lat="28.39675" lon="83.76557">
        <ele>2693.27</ele>
        <time>2013-11-02T08:00:46Z</time>
      </trkpt>
      <trkpt lat="28.39676" lon="83.76557">
        <ele>2692.79</ele>
        <time>2013-11-02T08:01:12Z</time>
      </trkpt>
      <trkpt lat="28.39674" lon="83.76557">
        <ele>2691.35</ele>
        <time>2013-11-02T08:01:40Z</time>
      </trkpt>
      <trkpt lat="28.39675" lon="83.76567">
        <ele>2691.35</ele>
        <time>2013-11-02T08:01:59Z</time>
      </trkpt>
      <trkpt lat="28.39676" lon="83.76561">
        <ele>2690.39</ele>
        <time>2013-11-02T08:02:27Z</time>
      </trkpt>
      <trkpt lat="28.39675" lon="83.7656">
        <ele>2689.43</ele>
        <time>2013-11-02T08:02:58Z</time>
      </trkpt>
    </trkseg>
  </trk>
</gpx>